<?xml version="1.0" encoding="UTF-8"?>
<gpx xmlns="http://www.topografix.com/GPX/1/1" xmlns:gpsies="http://www.gpsies.com/GPX/1/0" creator="GPSies http://www.gpsies.com - Zanoach-sansan-tzur-hadasah-bargiora-zanoach" version="1.1" xmlns:xsi="http://www.w3.org/2001/XMLSchema-instance" xsi:schemaLocation="http://www.topografix.com/GPX/1/1 http://www.topografix.com/GPX/1/1/gpx.xsd http://www.gpsies.com/GPX/1/0 http://www.gpsies.com/gpsies.xsd">
  <metadata>
    <name>Zanoach-sansan-tzur-hadasah-bargiora-zanoach</name>
    <link href="http://www.gpsies.com/map.do?fileId=hzewydqjyoqhdfys">
      <text>Zanoach-sansan-tzur-hadasah-bargiora-zanoach on GPSies.com</text>
    </link>
    <time>2012-11-15T10:15:14Z</time>
    <extensions>
      <gpsies:property>round trip</gpsies:property>
      <gpsies:trackLengthMeter>45130.712533074686</gpsies:trackLengthMeter>
      <gpsies:totalAscentMeter>1185.7500000000027</gpsies:totalAscentMeter>
      <gpsies:totalDescentMeter>1180.9500000000007</gpsies:totalDescentMeter>
      <gpsies:minHeightMeter>248.16</gpsies:minHeightMeter>
      <gpsies:maxHeightMeter>758.14</gpsies:maxHeightMeter>
    </extensions>
  </metadata>
  <trk>
    <name>Zanoach-sansan-tzur-hadasah-bargiora-zanoach on GPSies.com</name>
    <link href="http://www.gpsies.com/map.do?fileId=hzewydqjyoqhdfys" />
    <trkseg>
      <trkpt lat="31.73177650" lon="35.00455330">
        <ele>248.16000</ele>
        <time>2010-01-01T00:00:00Z</time>
      </trkpt>
      <trkpt lat="31.73181670" lon="35.00455950">
        <ele>256.33000</ele>
        <time>2010-01-01T00:00:01Z</time>
      </trkpt>
      <trkpt lat="31.73182790" lon="35.00454130">
        <ele>255.85000</ele>
        <time>2010-01-01T00:00:01Z</time>
      </trkpt>
      <trkpt lat="31.73173660" lon="35.00433110">
        <ele>257.29000</ele>
        <time>2010-01-01T00:00:06Z</time>
      </trkpt>
      <trkpt lat="31.73165330" lon="35.00404440">
        <ele>258.73000</ele>
        <time>2010-01-01T00:00:12Z</time>
      </trkpt>
      <trkpt lat="31.73149520" lon="35.00385610">
        <ele>260.17000</ele>
        <time>2010-01-01T00:00:18Z</time>
      </trkpt>
      <trkpt lat="31.73128780" lon="35.00368550">
        <ele>262.58000</ele>
        <time>2010-01-01T00:00:24Z</time>
      </trkpt>
      <trkpt lat="31.73110320" lon="35.00365590">
        <ele>264.50000</ele>
        <time>2010-01-01T00:00:29Z</time>
      </trkpt>
      <trkpt lat="31.73103590" lon="35.00386490">
        <ele>267.86000</ele>
        <time>2010-01-01T00:00:34Z</time>
      </trkpt>
      <trkpt lat="31.73105720" lon="35.00412220">
        <ele>270.27000</ele>
        <time>2010-01-01T00:00:39Z</time>
      </trkpt>
      <trkpt lat="31.73098130" lon="35.00431940">
        <ele>272.19000</ele>
        <time>2010-01-01T00:00:44Z</time>
      </trkpt>
      <trkpt lat="31.73074340" lon="35.00450570">
        <ele>274.11000</ele>
        <time>2010-01-01T00:00:51Z</time>
      </trkpt>
      <trkpt lat="31.73041390" lon="35.00447550">
        <ele>273.63000</ele>
        <time>2010-01-01T00:00:59Z</time>
      </trkpt>
      <trkpt lat="31.73005600" lon="35.00442320">
        <ele>274.59000</ele>
        <time>2010-01-01T00:01:08Z</time>
      </trkpt>
      <trkpt lat="31.72979950" lon="35.00440080">
        <ele>276.04000</ele>
        <time>2010-01-01T00:01:14Z</time>
      </trkpt>
      <trkpt lat="31.72956700" lon="35.00445120">
        <ele>278.92000</ele>
        <time>2010-01-01T00:01:20Z</time>
      </trkpt>
      <trkpt lat="31.72933360" lon="35.00452720">
        <ele>281.32000</ele>
        <time>2010-01-01T00:01:26Z</time>
      </trkpt>
      <trkpt lat="31.72924480" lon="35.00455190">
        <ele>281.80000</ele>
        <time>2010-01-01T00:01:29Z</time>
      </trkpt>
      <trkpt lat="31.72887140" lon="35.00457790">
        <ele>283.25000</ele>
        <time>2010-01-01T00:01:38Z</time>
      </trkpt>
      <trkpt lat="31.72857070" lon="35.00439870">
        <ele>285.65000</ele>
        <time>2010-01-01T00:01:46Z</time>
      </trkpt>
      <trkpt lat="31.72849250" lon="35.00430910">
        <ele>287.09000</ele>
        <time>2010-01-01T00:01:49Z</time>
      </trkpt>
      <trkpt lat="31.72831200" lon="35.00409480">
        <ele>288.53000</ele>
        <time>2010-01-01T00:01:55Z</time>
      </trkpt>
      <trkpt lat="31.72804950" lon="35.00392260">
        <ele>289.49000</ele>
        <time>2010-01-01T00:02:03Z</time>
      </trkpt>
      <trkpt lat="31.72800600" lon="35.00390990">
        <ele>289.97000</ele>
        <time>2010-01-01T00:02:04Z</time>
      </trkpt>
      <trkpt lat="31.72773620" lon="35.00398200">
        <ele>289.49000</ele>
        <time>2010-01-01T00:02:11Z</time>
      </trkpt>
      <trkpt lat="31.72738750" lon="35.00405570">
        <ele>288.05000</ele>
        <time>2010-01-01T00:02:20Z</time>
      </trkpt>
      <trkpt lat="31.72725100" lon="35.00428800">
        <ele>291.90000</ele>
        <time>2010-01-01T00:02:26Z</time>
      </trkpt>
      <trkpt lat="31.72729720" lon="35.00456520">
        <ele>291.90000</ele>
        <time>2010-01-01T00:02:32Z</time>
      </trkpt>
      <trkpt lat="31.72726900" lon="35.00467660">
        <ele>291.90000</ele>
        <time>2010-01-01T00:02:34Z</time>
      </trkpt>
      <trkpt lat="31.72711440" lon="35.00475690">
        <ele>292.38000</ele>
        <time>2010-01-01T00:02:38Z</time>
      </trkpt>
      <trkpt lat="31.72670820" lon="35.00488150">
        <ele>292.86000</ele>
        <time>2010-01-01T00:02:49Z</time>
      </trkpt>
      <trkpt lat="31.72656060" lon="35.00492400">
        <ele>292.86000</ele>
        <time>2010-01-01T00:02:53Z</time>
      </trkpt>
      <trkpt lat="31.72647420" lon="35.00492570">
        <ele>292.86000</ele>
        <time>2010-01-01T00:02:55Z</time>
      </trkpt>
      <trkpt lat="31.72609620" lon="35.00475910">
        <ele>293.34000</ele>
        <time>2010-01-01T00:03:05Z</time>
      </trkpt>
      <trkpt lat="31.72578080" lon="35.00467880">
        <ele>296.70000</ele>
        <time>2010-01-01T00:03:13Z</time>
      </trkpt>
      <trkpt lat="31.72565960" lon="35.00489050">
        <ele>297.18000</ele>
        <time>2010-01-01T00:03:18Z</time>
      </trkpt>
      <trkpt lat="31.72567800" lon="35.00516070">
        <ele>295.26000</ele>
        <time>2010-01-01T00:03:24Z</time>
      </trkpt>
      <trkpt lat="31.72556100" lon="35.00544220">
        <ele>295.74000</ele>
        <time>2010-01-01T00:03:30Z</time>
      </trkpt>
      <trkpt lat="31.72550400" lon="35.00547120">
        <ele>296.70000</ele>
        <time>2010-01-01T00:03:32Z</time>
      </trkpt>
      <trkpt lat="31.72537630" lon="35.00548310">
        <ele>300.55000</ele>
        <time>2010-01-01T00:03:35Z</time>
      </trkpt>
      <trkpt lat="31.72540300" lon="35.00548110">
        <ele>300.07000</ele>
        <time>2010-01-01T00:03:36Z</time>
      </trkpt>
      <trkpt lat="31.72539650" lon="35.00571450">
        <ele>295.74000</ele>
        <time>2010-01-01T00:03:41Z</time>
      </trkpt>
      <trkpt lat="31.72529620" lon="35.00607770">
        <ele>289.97000</ele>
        <time>2010-01-01T00:03:49Z</time>
      </trkpt>
      <trkpt lat="31.72516690" lon="35.00619460">
        <ele>287.57000</ele>
        <time>2010-01-01T00:03:53Z</time>
      </trkpt>
      <trkpt lat="31.72503970" lon="35.00625960">
        <ele>286.61000</ele>
        <time>2010-01-01T00:03:56Z</time>
      </trkpt>
      <trkpt lat="31.72481580" lon="35.00671220">
        <ele>282.28000</ele>
        <time>2010-01-01T00:04:08Z</time>
      </trkpt>
      <trkpt lat="31.72476310" lon="35.00707860">
        <ele>277.96000</ele>
        <time>2010-01-01T00:04:15Z</time>
      </trkpt>
      <trkpt lat="31.72453250" lon="35.00751280">
        <ele>276.04000</ele>
        <time>2010-01-01T00:04:26Z</time>
      </trkpt>
      <trkpt lat="31.72430820" lon="35.00772460">
        <ele>277.00000</ele>
        <time>2010-01-01T00:04:33Z</time>
      </trkpt>
      <trkpt lat="31.72425730" lon="35.00785680">
        <ele>277.00000</ele>
        <time>2010-01-01T00:04:36Z</time>
      </trkpt>
      <trkpt lat="31.72429500" lon="35.00827490">
        <ele>273.63000</ele>
        <time>2010-01-01T00:04:45Z</time>
      </trkpt>
      <trkpt lat="31.72429450" lon="35.00847510">
        <ele>273.15000</ele>
        <time>2010-01-01T00:04:50Z</time>
      </trkpt>
      <trkpt lat="31.72432250" lon="35.00852390">
        <ele>272.67000</ele>
        <time>2010-01-01T00:04:51Z</time>
      </trkpt>
      <trkpt lat="31.72430590" lon="35.00861280">
        <ele>272.67000</ele>
        <time>2010-01-01T00:04:53Z</time>
      </trkpt>
      <trkpt lat="31.72426580" lon="35.00865660">
        <ele>272.67000</ele>
        <time>2010-01-01T00:04:54Z</time>
      </trkpt>
      <trkpt lat="31.72426140" lon="35.00868460">
        <ele>272.19000</ele>
        <time>2010-01-01T00:04:55Z</time>
      </trkpt>
      <trkpt lat="31.72405680" lon="35.00881020">
        <ele>271.71000</ele>
        <time>2010-01-01T00:05:00Z</time>
      </trkpt>
      <trkpt lat="31.72374770" lon="35.00892840">
        <ele>271.71000</ele>
        <time>2010-01-01T00:05:09Z</time>
      </trkpt>
      <trkpt lat="31.72341960" lon="35.00902470">
        <ele>272.19000</ele>
        <time>2010-01-01T00:05:17Z</time>
      </trkpt>
      <trkpt lat="31.72322510" lon="35.00908320">
        <ele>273.63000</ele>
        <time>2010-01-01T00:05:22Z</time>
      </trkpt>
      <trkpt lat="31.72320810" lon="35.00908370">
        <ele>273.63000</ele>
        <time>2010-01-01T00:05:22Z</time>
      </trkpt>
      <trkpt lat="31.72320960" lon="35.00908690">
        <ele>274.11000</ele>
        <time>2010-01-01T00:05:22Z</time>
      </trkpt>
      <trkpt lat="31.72320790" lon="35.00910490">
        <ele>275.07000</ele>
        <time>2010-01-01T00:05:23Z</time>
      </trkpt>
      <trkpt lat="31.72320510" lon="35.00910350">
        <ele>275.07000</ele>
        <time>2010-01-01T00:05:23Z</time>
      </trkpt>
      <trkpt lat="31.72301030" lon="35.00911330">
        <ele>275.56000</ele>
        <time>2010-01-01T00:05:28Z</time>
      </trkpt>
      <trkpt lat="31.72249300" lon="35.00907730">
        <ele>277.00000</ele>
        <time>2010-01-01T00:05:41Z</time>
      </trkpt>
      <trkpt lat="31.72203190" lon="35.00897720">
        <ele>278.92000</ele>
        <time>2010-01-01T00:05:52Z</time>
      </trkpt>
      <trkpt lat="31.72155650" lon="35.00888160">
        <ele>280.36000</ele>
        <time>2010-01-01T00:06:04Z</time>
      </trkpt>
      <trkpt lat="31.72113740" lon="35.00879800">
        <ele>281.80000</ele>
        <time>2010-01-01T00:06:15Z</time>
      </trkpt>
      <trkpt lat="31.72048020" lon="35.00867480">
        <ele>284.21000</ele>
        <time>2010-01-01T00:06:31Z</time>
      </trkpt>
      <trkpt lat="31.71981090" lon="35.00858000">
        <ele>285.65000</ele>
        <time>2010-01-01T00:06:48Z</time>
      </trkpt>
      <trkpt lat="31.71907220" lon="35.00851730">
        <ele>287.57000</ele>
        <time>2010-01-01T00:07:07Z</time>
      </trkpt>
      <trkpt lat="31.71833370" lon="35.00845240">
        <ele>289.01000</ele>
        <time>2010-01-01T00:07:25Z</time>
      </trkpt>
      <trkpt lat="31.71818660" lon="35.00844020">
        <ele>289.49000</ele>
        <time>2010-01-01T00:07:29Z</time>
      </trkpt>
      <trkpt lat="31.71802650" lon="35.00853050">
        <ele>290.46000</ele>
        <time>2010-01-01T00:07:33Z</time>
      </trkpt>
      <trkpt lat="31.71748840" lon="35.00850730">
        <ele>291.90000</ele>
        <time>2010-01-01T00:07:47Z</time>
      </trkpt>
      <trkpt lat="31.71736120" lon="35.00875250">
        <ele>291.90000</ele>
        <time>2010-01-01T00:07:53Z</time>
      </trkpt>
      <trkpt lat="31.71720080" lon="35.00869450">
        <ele>291.90000</ele>
        <time>2010-01-01T00:07:57Z</time>
      </trkpt>
      <trkpt lat="31.71686440" lon="35.00849030">
        <ele>293.34000</ele>
        <time>2010-01-01T00:08:06Z</time>
      </trkpt>
      <trkpt lat="31.71646220" lon="35.00832190">
        <ele>294.30000</ele>
        <time>2010-01-01T00:08:17Z</time>
      </trkpt>
      <trkpt lat="31.71639150" lon="35.00829480">
        <ele>294.78000</ele>
        <time>2010-01-01T00:08:19Z</time>
      </trkpt>
      <trkpt lat="31.71638450" lon="35.00831440">
        <ele>295.26000</ele>
        <time>2010-01-01T00:08:19Z</time>
      </trkpt>
      <trkpt lat="31.71634960" lon="35.00836070">
        <ele>295.74000</ele>
        <time>2010-01-01T00:08:20Z</time>
      </trkpt>
      <trkpt lat="31.71630530" lon="35.00839950">
        <ele>296.22000</ele>
        <time>2010-01-01T00:08:22Z</time>
      </trkpt>
      <trkpt lat="31.71612570" lon="35.00835440">
        <ele>295.74000</ele>
        <time>2010-01-01T00:08:26Z</time>
      </trkpt>
      <trkpt lat="31.71578310" lon="35.00825620">
        <ele>295.26000</ele>
        <time>2010-01-01T00:08:35Z</time>
      </trkpt>
      <trkpt lat="31.71554160" lon="35.00821310">
        <ele>296.22000</ele>
        <time>2010-01-01T00:08:41Z</time>
      </trkpt>
      <trkpt lat="31.71526050" lon="35.00808860">
        <ele>296.70000</ele>
        <time>2010-01-01T00:08:49Z</time>
      </trkpt>
      <trkpt lat="31.71487560" lon="35.00790620">
        <ele>296.70000</ele>
        <time>2010-01-01T00:08:59Z</time>
      </trkpt>
      <trkpt lat="31.71459480" lon="35.00793290">
        <ele>297.67000</ele>
        <time>2010-01-01T00:09:06Z</time>
      </trkpt>
      <trkpt lat="31.71436240" lon="35.00790520">
        <ele>299.11000</ele>
        <time>2010-01-01T00:09:12Z</time>
      </trkpt>
      <trkpt lat="31.71412350" lon="35.00771590">
        <ele>300.07000</ele>
        <time>2010-01-01T00:09:19Z</time>
      </trkpt>
      <trkpt lat="31.71388810" lon="35.00761390">
        <ele>301.03000</ele>
        <time>2010-01-01T00:09:25Z</time>
      </trkpt>
      <trkpt lat="31.71362820" lon="35.00762910">
        <ele>302.95000</ele>
        <time>2010-01-01T00:09:32Z</time>
      </trkpt>
      <trkpt lat="31.71336700" lon="35.00779980">
        <ele>304.39000</ele>
        <time>2010-01-01T00:09:39Z</time>
      </trkpt>
      <trkpt lat="31.71319600" lon="35.00795010">
        <ele>305.84000</ele>
        <time>2010-01-01T00:09:44Z</time>
      </trkpt>
      <trkpt lat="31.71309040" lon="35.00832380">
        <ele>310.16000</ele>
        <time>2010-01-01T00:09:53Z</time>
      </trkpt>
      <trkpt lat="31.71295440" lon="35.00869960">
        <ele>312.09000</ele>
        <time>2010-01-01T00:10:01Z</time>
      </trkpt>
      <trkpt lat="31.71264950" lon="35.00896020">
        <ele>311.60000</ele>
        <time>2010-01-01T00:10:11Z</time>
      </trkpt>
      <trkpt lat="31.71230100" lon="35.00923960">
        <ele>311.60000</ele>
        <time>2010-01-01T00:10:21Z</time>
      </trkpt>
      <trkpt lat="31.71185000" lon="35.00953280">
        <ele>311.60000</ele>
        <time>2010-01-01T00:10:34Z</time>
      </trkpt>
      <trkpt lat="31.71159300" lon="35.00967190">
        <ele>311.60000</ele>
        <time>2010-01-01T00:10:41Z</time>
      </trkpt>
      <trkpt lat="31.71118690" lon="35.00997060">
        <ele>313.05000</ele>
        <time>2010-01-01T00:10:53Z</time>
      </trkpt>
      <trkpt lat="31.71096400" lon="35.01038440">
        <ele>316.41000</ele>
        <time>2010-01-01T00:11:03Z</time>
      </trkpt>
      <trkpt lat="31.71092160" lon="35.01073010">
        <ele>318.33000</ele>
        <time>2010-01-01T00:11:11Z</time>
      </trkpt>
      <trkpt lat="31.71101880" lon="35.01113400">
        <ele>319.30000</ele>
        <time>2010-01-01T00:11:20Z</time>
      </trkpt>
      <trkpt lat="31.71117060" lon="35.01154800">
        <ele>320.74000</ele>
        <time>2010-01-01T00:11:29Z</time>
      </trkpt>
      <trkpt lat="31.71131690" lon="35.01192790">
        <ele>322.66000</ele>
        <time>2010-01-01T00:11:38Z</time>
      </trkpt>
      <trkpt lat="31.71144980" lon="35.01223970">
        <ele>325.54000</ele>
        <time>2010-01-01T00:11:46Z</time>
      </trkpt>
      <trkpt lat="31.71158800" lon="35.01248660">
        <ele>328.43000</ele>
        <time>2010-01-01T00:11:52Z</time>
      </trkpt>
      <trkpt lat="31.71177710" lon="35.01276320">
        <ele>329.39000</ele>
        <time>2010-01-01T00:11:59Z</time>
      </trkpt>
      <trkpt lat="31.71195260" lon="35.01299330">
        <ele>329.87000</ele>
        <time>2010-01-01T00:12:06Z</time>
      </trkpt>
      <trkpt lat="31.71218460" lon="35.01332880">
        <ele>330.35000</ele>
        <time>2010-01-01T00:12:15Z</time>
      </trkpt>
      <trkpt lat="31.71232680" lon="35.01378540">
        <ele>329.87000</ele>
        <time>2010-01-01T00:12:25Z</time>
      </trkpt>
      <trkpt lat="31.71215120" lon="35.01400140">
        <ele>330.35000</ele>
        <time>2010-01-01T00:12:32Z</time>
      </trkpt>
      <trkpt lat="31.71212790" lon="35.01403080">
        <ele>330.35000</ele>
        <time>2010-01-01T00:12:32Z</time>
      </trkpt>
      <trkpt lat="31.71221010" lon="35.01440430">
        <ele>329.87000</ele>
        <time>2010-01-01T00:12:41Z</time>
      </trkpt>
      <trkpt lat="31.71234020" lon="35.01487250">
        <ele>331.79000</ele>
        <time>2010-01-01T00:12:51Z</time>
      </trkpt>
      <trkpt lat="31.71242220" lon="35.01516110">
        <ele>333.23000</ele>
        <time>2010-01-01T00:12:57Z</time>
      </trkpt>
      <trkpt lat="31.71252270" lon="35.01546970">
        <ele>333.71000</ele>
        <time>2010-01-01T00:13:04Z</time>
      </trkpt>
      <trkpt lat="31.71253810" lon="35.01570750">
        <ele>335.16000</ele>
        <time>2010-01-01T00:13:09Z</time>
      </trkpt>
      <trkpt lat="31.71261580" lon="35.01597040">
        <ele>334.68000</ele>
        <time>2010-01-01T00:13:15Z</time>
      </trkpt>
      <trkpt lat="31.71274010" lon="35.01622240">
        <ele>338.04000</ele>
        <time>2010-01-01T00:13:22Z</time>
      </trkpt>
      <trkpt lat="31.71276630" lon="35.01646650">
        <ele>341.41000</ele>
        <time>2010-01-01T00:13:27Z</time>
      </trkpt>
      <trkpt lat="31.71276220" lon="35.01668230">
        <ele>342.37000</ele>
        <time>2010-01-01T00:13:31Z</time>
      </trkpt>
      <trkpt lat="31.71273920" lon="35.01675870">
        <ele>341.89000</ele>
        <time>2010-01-01T00:13:33Z</time>
      </trkpt>
      <trkpt lat="31.71260040" lon="35.01697430">
        <ele>339.48000</ele>
        <time>2010-01-01T00:13:39Z</time>
      </trkpt>
      <trkpt lat="31.71234270" lon="35.01725490">
        <ele>339.96000</ele>
        <time>2010-01-01T00:13:48Z</time>
      </trkpt>
      <trkpt lat="31.71200030" lon="35.01759070">
        <ele>340.92000</ele>
        <time>2010-01-01T00:13:59Z</time>
      </trkpt>
      <trkpt lat="31.71173030" lon="35.01783460">
        <ele>342.85000</ele>
        <time>2010-01-01T00:14:07Z</time>
      </trkpt>
      <trkpt lat="31.71160030" lon="35.01810780">
        <ele>344.77000</ele>
        <time>2010-01-01T00:14:14Z</time>
      </trkpt>
      <trkpt lat="31.71140860" lon="35.01822910">
        <ele>345.73000</ele>
        <time>2010-01-01T00:14:19Z</time>
      </trkpt>
      <trkpt lat="31.71132920" lon="35.01832470">
        <ele>348.13000</ele>
        <time>2010-01-01T00:14:22Z</time>
      </trkpt>
      <trkpt lat="31.71129140" lon="35.01838310">
        <ele>349.10000</ele>
        <time>2010-01-01T00:14:23Z</time>
      </trkpt>
      <trkpt lat="31.71125130" lon="35.01852300">
        <ele>351.98000</ele>
        <time>2010-01-01T00:14:27Z</time>
      </trkpt>
      <trkpt lat="31.71126620" lon="35.01871980">
        <ele>355.83000</ele>
        <time>2010-01-01T00:14:31Z</time>
      </trkpt>
      <trkpt lat="31.71126240" lon="35.01876150">
        <ele>356.31000</ele>
        <time>2010-01-01T00:14:32Z</time>
      </trkpt>
      <trkpt lat="31.71123490" lon="35.01879230">
        <ele>356.79000</ele>
        <time>2010-01-01T00:14:33Z</time>
      </trkpt>
      <trkpt lat="31.71119610" lon="35.01877340">
        <ele>357.27000</ele>
        <time>2010-01-01T00:14:34Z</time>
      </trkpt>
      <trkpt lat="31.71116480" lon="35.01872930">
        <ele>357.75000</ele>
        <time>2010-01-01T00:14:35Z</time>
      </trkpt>
      <trkpt lat="31.71115020" lon="35.01870310">
        <ele>357.75000</ele>
        <time>2010-01-01T00:14:36Z</time>
      </trkpt>
      <trkpt lat="31.71111540" lon="35.01863650">
        <ele>358.71000</ele>
        <time>2010-01-01T00:14:37Z</time>
      </trkpt>
      <trkpt lat="31.71107130" lon="35.01836220">
        <ele>360.63000</ele>
        <time>2010-01-01T00:14:43Z</time>
      </trkpt>
      <trkpt lat="31.71109520" lon="35.01813020">
        <ele>362.07000</ele>
        <time>2010-01-01T00:14:48Z</time>
      </trkpt>
      <trkpt lat="31.71119450" lon="35.01787470">
        <ele>363.52000</ele>
        <time>2010-01-01T00:14:54Z</time>
      </trkpt>
      <trkpt lat="31.71133230" lon="35.01763040">
        <ele>364.96000</ele>
        <time>2010-01-01T00:15:00Z</time>
      </trkpt>
      <trkpt lat="31.71143890" lon="35.01742640">
        <ele>364.96000</ele>
        <time>2010-01-01T00:15:05Z</time>
      </trkpt>
      <trkpt lat="31.71158380" lon="35.01719050">
        <ele>366.40000</ele>
        <time>2010-01-01T00:15:11Z</time>
      </trkpt>
      <trkpt lat="31.71166710" lon="35.01706380">
        <ele>367.36000</ele>
        <time>2010-01-01T00:15:15Z</time>
      </trkpt>
      <trkpt lat="31.71172240" lon="35.01695130">
        <ele>367.84000</ele>
        <time>2010-01-01T00:15:18Z</time>
      </trkpt>
      <trkpt lat="31.71188290" lon="35.01664290">
        <ele>370.24000</ele>
        <time>2010-01-01T00:15:25Z</time>
      </trkpt>
      <trkpt lat="31.71193090" lon="35.01638730">
        <ele>372.65000</ele>
        <time>2010-01-01T00:15:31Z</time>
      </trkpt>
      <trkpt lat="31.71191810" lon="35.01610370">
        <ele>372.17000</ele>
        <time>2010-01-01T00:15:37Z</time>
      </trkpt>
      <trkpt lat="31.71188070" lon="35.01577490">
        <ele>371.69000</ele>
        <time>2010-01-01T00:15:44Z</time>
      </trkpt>
      <trkpt lat="31.71178400" lon="35.01537440">
        <ele>372.65000</ele>
        <time>2010-01-01T00:15:53Z</time>
      </trkpt>
      <trkpt lat="31.71164260" lon="35.01508800">
        <ele>374.57000</ele>
        <time>2010-01-01T00:16:00Z</time>
      </trkpt>
      <trkpt lat="31.71141830" lon="35.01478830">
        <ele>378.42000</ele>
        <time>2010-01-01T00:16:08Z</time>
      </trkpt>
      <trkpt lat="31.71117680" lon="35.01469010">
        <ele>380.82000</ele>
        <time>2010-01-01T00:16:14Z</time>
      </trkpt>
      <trkpt lat="31.71105530" lon="35.01466300">
        <ele>382.26000</ele>
        <time>2010-01-01T00:16:18Z</time>
      </trkpt>
      <trkpt lat="31.71079280" lon="35.01471500">
        <ele>385.15000</ele>
        <time>2010-01-01T00:16:24Z</time>
      </trkpt>
      <trkpt lat="31.71051230" lon="35.01494650">
        <ele>385.63000</ele>
        <time>2010-01-01T00:16:33Z</time>
      </trkpt>
      <trkpt lat="31.71030220" lon="35.01529370">
        <ele>385.63000</ele>
        <time>2010-01-01T00:16:42Z</time>
      </trkpt>
      <trkpt lat="31.71008590" lon="35.01554660">
        <ele>388.51000</ele>
        <time>2010-01-01T00:16:49Z</time>
      </trkpt>
      <trkpt lat="31.70991910" lon="35.01585540">
        <ele>388.99000</ele>
        <time>2010-01-01T00:16:57Z</time>
      </trkpt>
      <trkpt lat="31.70980200" lon="35.01618470">
        <ele>390.43000</ele>
        <time>2010-01-01T00:17:05Z</time>
      </trkpt>
      <trkpt lat="31.70968580" lon="35.01647220">
        <ele>392.84000</ele>
        <time>2010-01-01T00:17:11Z</time>
      </trkpt>
      <trkpt lat="31.70956940" lon="35.01675500">
        <ele>394.76000</ele>
        <time>2010-01-01T00:17:18Z</time>
      </trkpt>
      <trkpt lat="31.70954700" lon="35.01680740">
        <ele>395.24000</ele>
        <time>2010-01-01T00:17:19Z</time>
      </trkpt>
      <trkpt lat="31.70940480" lon="35.01698800">
        <ele>396.20000</ele>
        <time>2010-01-01T00:17:24Z</time>
      </trkpt>
      <trkpt lat="31.70913440" lon="35.01714380">
        <ele>399.57000</ele>
        <time>2010-01-01T00:17:32Z</time>
      </trkpt>
      <trkpt lat="31.70887310" lon="35.01712430">
        <ele>401.97000</ele>
        <time>2010-01-01T00:17:38Z</time>
      </trkpt>
      <trkpt lat="31.70867730" lon="35.01703000">
        <ele>403.89000</ele>
        <time>2010-01-01T00:17:44Z</time>
      </trkpt>
      <trkpt lat="31.70849650" lon="35.01681630">
        <ele>404.37000</ele>
        <time>2010-01-01T00:17:50Z</time>
      </trkpt>
      <trkpt lat="31.70844080" lon="35.01651350">
        <ele>403.41000</ele>
        <time>2010-01-01T00:17:57Z</time>
      </trkpt>
      <trkpt lat="31.70853860" lon="35.01612690">
        <ele>403.41000</ele>
        <time>2010-01-01T00:18:05Z</time>
      </trkpt>
      <trkpt lat="31.70863800" lon="35.01569890">
        <ele>404.85000</ele>
        <time>2010-01-01T00:18:15Z</time>
      </trkpt>
      <trkpt lat="31.70859800" lon="35.01527950">
        <ele>406.77000</ele>
        <time>2010-01-01T00:18:23Z</time>
      </trkpt>
      <trkpt lat="31.70841630" lon="35.01498550">
        <ele>406.77000</ele>
        <time>2010-01-01T00:18:31Z</time>
      </trkpt>
      <trkpt lat="31.70823890" lon="35.01469550">
        <ele>409.18000</ele>
        <time>2010-01-01T00:18:39Z</time>
      </trkpt>
      <trkpt lat="31.70801420" lon="35.01441100">
        <ele>411.10000</ele>
        <time>2010-01-01T00:18:47Z</time>
      </trkpt>
      <trkpt lat="31.70776920" lon="35.01420670">
        <ele>412.54000</ele>
        <time>2010-01-01T00:18:54Z</time>
      </trkpt>
      <trkpt lat="31.70751120" lon="35.01405970">
        <ele>413.50000</ele>
        <time>2010-01-01T00:19:02Z</time>
      </trkpt>
      <trkpt lat="31.70721850" lon="35.01389930">
        <ele>413.02000</ele>
        <time>2010-01-01T00:19:10Z</time>
      </trkpt>
      <trkpt lat="31.70665460" lon="35.01362890">
        <ele>409.66000</ele>
        <time>2010-01-01T00:19:25Z</time>
      </trkpt>
      <trkpt lat="31.70644820" lon="35.01359730">
        <ele>407.74000</ele>
        <time>2010-01-01T00:19:30Z</time>
      </trkpt>
      <trkpt lat="31.70622730" lon="35.01361570">
        <ele>406.29000</ele>
        <time>2010-01-01T00:19:35Z</time>
      </trkpt>
      <trkpt lat="31.70530320" lon="35.01394860">
        <ele>397.16000</ele>
        <time>2010-01-01T00:19:59Z</time>
      </trkpt>
      <trkpt lat="31.70462690" lon="35.01419690">
        <ele>389.47000</ele>
        <time>2010-01-01T00:20:17Z</time>
      </trkpt>
      <trkpt lat="31.70430390" lon="35.01428990">
        <ele>386.11000</ele>
        <time>2010-01-01T00:20:25Z</time>
      </trkpt>
      <trkpt lat="31.70418530" lon="35.01430330">
        <ele>384.66000</ele>
        <time>2010-01-01T00:20:28Z</time>
      </trkpt>
      <trkpt lat="31.70407050" lon="35.01428720">
        <ele>383.70000</ele>
        <time>2010-01-01T00:20:31Z</time>
      </trkpt>
      <trkpt lat="31.70397680" lon="35.01426380">
        <ele>382.74000</ele>
        <time>2010-01-01T00:20:34Z</time>
      </trkpt>
      <trkpt lat="31.70369150" lon="35.01412280">
        <ele>381.30000</ele>
        <time>2010-01-01T00:20:41Z</time>
      </trkpt>
      <trkpt lat="31.70306170" lon="35.01375660">
        <ele>377.45000</ele>
        <time>2010-01-01T00:20:59Z</time>
      </trkpt>
      <trkpt lat="31.70236720" lon="35.01335790">
        <ele>373.13000</ele>
        <time>2010-01-01T00:21:18Z</time>
      </trkpt>
      <trkpt lat="31.70216560" lon="35.01324080">
        <ele>371.69000</ele>
        <time>2010-01-01T00:21:24Z</time>
      </trkpt>
      <trkpt lat="31.70189460" lon="35.01317120">
        <ele>369.76000</ele>
        <time>2010-01-01T00:21:30Z</time>
      </trkpt>
      <trkpt lat="31.70159850" lon="35.01335780">
        <ele>367.36000</ele>
        <time>2010-01-01T00:21:39Z</time>
      </trkpt>
      <trkpt lat="31.70164550" lon="35.01369670">
        <ele>364.96000</ele>
        <time>2010-01-01T00:21:46Z</time>
      </trkpt>
      <trkpt lat="31.70168060" lon="35.01376350">
        <ele>364.48000</ele>
        <time>2010-01-01T00:21:48Z</time>
      </trkpt>
      <trkpt lat="31.70175330" lon="35.01389260">
        <ele>363.52000</ele>
        <time>2010-01-01T00:21:51Z</time>
      </trkpt>
      <trkpt lat="31.70187880" lon="35.01407640">
        <ele>362.07000</ele>
        <time>2010-01-01T00:21:56Z</time>
      </trkpt>
      <trkpt lat="31.70247460" lon="35.01451410">
        <ele>356.31000</ele>
        <time>2010-01-01T00:22:14Z</time>
      </trkpt>
      <trkpt lat="31.70257540" lon="35.01459820">
        <ele>355.34000</ele>
        <time>2010-01-01T00:22:17Z</time>
      </trkpt>
      <trkpt lat="31.70268400" lon="35.01473450">
        <ele>354.38000</ele>
        <time>2010-01-01T00:22:21Z</time>
      </trkpt>
      <trkpt lat="31.70273760" lon="35.01495450">
        <ele>353.90000</ele>
        <time>2010-01-01T00:22:25Z</time>
      </trkpt>
      <trkpt lat="31.70266350" lon="35.01506100">
        <ele>354.38000</ele>
        <time>2010-01-01T00:22:28Z</time>
      </trkpt>
      <trkpt lat="31.70263060" lon="35.01509860">
        <ele>354.38000</ele>
        <time>2010-01-01T00:22:29Z</time>
      </trkpt>
      <trkpt lat="31.70274140" lon="35.01520310">
        <ele>355.83000</ele>
        <time>2010-01-01T00:22:33Z</time>
      </trkpt>
      <trkpt lat="31.70269050" lon="35.01539880">
        <ele>352.46000</ele>
        <time>2010-01-01T00:22:37Z</time>
      </trkpt>
      <trkpt lat="31.70268360" lon="35.01543500">
        <ele>351.98000</ele>
        <time>2010-01-01T00:22:38Z</time>
      </trkpt>
      <trkpt lat="31.70263520" lon="35.01541120">
        <ele>351.98000</ele>
        <time>2010-01-01T00:22:39Z</time>
      </trkpt>
      <trkpt lat="31.70260970" lon="35.01538540">
        <ele>351.98000</ele>
        <time>2010-01-01T00:22:40Z</time>
      </trkpt>
      <trkpt lat="31.70242600" lon="35.01529180">
        <ele>350.06000</ele>
        <time>2010-01-01T00:22:45Z</time>
      </trkpt>
      <trkpt lat="31.70212030" lon="35.01515800">
        <ele>346.21000</ele>
        <time>2010-01-01T00:22:53Z</time>
      </trkpt>
      <trkpt lat="31.70180980" lon="35.01512590">
        <ele>345.25000</ele>
        <time>2010-01-01T00:23:01Z</time>
      </trkpt>
      <trkpt lat="31.70155540" lon="35.01514890">
        <ele>343.81000</ele>
        <time>2010-01-01T00:23:07Z</time>
      </trkpt>
      <trkpt lat="31.70119250" lon="35.01520980">
        <ele>343.81000</ele>
        <time>2010-01-01T00:23:17Z</time>
      </trkpt>
      <trkpt lat="31.70089940" lon="35.01521040">
        <ele>343.33000</ele>
        <time>2010-01-01T00:23:24Z</time>
      </trkpt>
      <trkpt lat="31.70088030" lon="35.01521290">
        <ele>343.33000</ele>
        <time>2010-01-01T00:23:24Z</time>
      </trkpt>
      <trkpt lat="31.70082380" lon="35.01528650">
        <ele>345.25000</ele>
        <time>2010-01-01T00:23:26Z</time>
      </trkpt>
      <trkpt lat="31.70084530" lon="35.01532450">
        <ele>346.21000</ele>
        <time>2010-01-01T00:23:27Z</time>
      </trkpt>
      <trkpt lat="31.70088050" lon="35.01546090">
        <ele>347.65000</ele>
        <time>2010-01-01T00:23:30Z</time>
      </trkpt>
      <trkpt lat="31.70088290" lon="35.01548120">
        <ele>347.65000</ele>
        <time>2010-01-01T00:23:31Z</time>
      </trkpt>
      <trkpt lat="31.70090990" lon="35.01570780">
        <ele>349.10000</ele>
        <time>2010-01-01T00:23:36Z</time>
      </trkpt>
      <trkpt lat="31.70098030" lon="35.01595110">
        <ele>350.54000</ele>
        <time>2010-01-01T00:23:41Z</time>
      </trkpt>
      <trkpt lat="31.70101970" lon="35.01606500">
        <ele>351.02000</ele>
        <time>2010-01-01T00:23:44Z</time>
      </trkpt>
      <trkpt lat="31.70106320" lon="35.01624770">
        <ele>351.50000</ele>
        <time>2010-01-01T00:23:48Z</time>
      </trkpt>
      <trkpt lat="31.70105590" lon="35.01629660">
        <ele>351.50000</ele>
        <time>2010-01-01T00:23:49Z</time>
      </trkpt>
      <trkpt lat="31.70099410" lon="35.01655780">
        <ele>352.94000</ele>
        <time>2010-01-01T00:23:55Z</time>
      </trkpt>
      <trkpt lat="31.70098400" lon="35.01680390">
        <ele>355.83000</ele>
        <time>2010-01-01T00:24:00Z</time>
      </trkpt>
      <trkpt lat="31.70095840" lon="35.01703060">
        <ele>356.79000</ele>
        <time>2010-01-01T00:24:05Z</time>
      </trkpt>
      <trkpt lat="31.70097430" lon="35.01727740">
        <ele>358.71000</ele>
        <time>2010-01-01T00:24:10Z</time>
      </trkpt>
      <trkpt lat="31.70097730" lon="35.01736660">
        <ele>359.19000</ele>
        <time>2010-01-01T00:24:12Z</time>
      </trkpt>
      <trkpt lat="31.70098190" lon="35.01747540">
        <ele>360.15000</ele>
        <time>2010-01-01T00:24:14Z</time>
      </trkpt>
      <trkpt lat="31.70095960" lon="35.01764240">
        <ele>360.63000</ele>
        <time>2010-01-01T00:24:18Z</time>
      </trkpt>
      <trkpt lat="31.70094660" lon="35.01785890">
        <ele>362.07000</ele>
        <time>2010-01-01T00:24:22Z</time>
      </trkpt>
      <trkpt lat="31.70096310" lon="35.01793530">
        <ele>363.04000</ele>
        <time>2010-01-01T00:24:24Z</time>
      </trkpt>
      <trkpt lat="31.70092820" lon="35.01814140">
        <ele>364.48000</ele>
        <time>2010-01-01T00:24:28Z</time>
      </trkpt>
      <trkpt lat="31.70084630" lon="35.01841060">
        <ele>364.96000</ele>
        <time>2010-01-01T00:24:34Z</time>
      </trkpt>
      <trkpt lat="31.70074360" lon="35.01865030">
        <ele>366.40000</ele>
        <time>2010-01-01T00:24:40Z</time>
      </trkpt>
      <trkpt lat="31.70071460" lon="35.01888200">
        <ele>368.32000</ele>
        <time>2010-01-01T00:24:45Z</time>
      </trkpt>
      <trkpt lat="31.70071120" lon="35.01896830">
        <ele>368.80000</ele>
        <time>2010-01-01T00:24:47Z</time>
      </trkpt>
      <trkpt lat="31.70070530" lon="35.01905070">
        <ele>368.80000</ele>
        <time>2010-01-01T00:24:49Z</time>
      </trkpt>
      <trkpt lat="31.70069060" lon="35.01913130">
        <ele>368.80000</ele>
        <time>2010-01-01T00:24:50Z</time>
      </trkpt>
      <trkpt lat="31.70069470" lon="35.01917340">
        <ele>369.28000</ele>
        <time>2010-01-01T00:24:51Z</time>
      </trkpt>
      <trkpt lat="31.70062170" lon="35.01928520">
        <ele>369.76000</ele>
        <time>2010-01-01T00:24:54Z</time>
      </trkpt>
      <trkpt lat="31.70054010" lon="35.01934770">
        <ele>370.73000</ele>
        <time>2010-01-01T00:24:57Z</time>
      </trkpt>
      <trkpt lat="31.70049400" lon="35.01941290">
        <ele>371.21000</ele>
        <time>2010-01-01T00:24:58Z</time>
      </trkpt>
      <trkpt lat="31.70036220" lon="35.01956990">
        <ele>372.17000</ele>
        <time>2010-01-01T00:25:03Z</time>
      </trkpt>
      <trkpt lat="31.70015470" lon="35.01969090">
        <ele>373.13000</ele>
        <time>2010-01-01T00:25:09Z</time>
      </trkpt>
      <trkpt lat="31.70001130" lon="35.01978760">
        <ele>375.53000</ele>
        <time>2010-01-01T00:25:13Z</time>
      </trkpt>
      <trkpt lat="31.69987990" lon="35.01993060">
        <ele>379.38000</ele>
        <time>2010-01-01T00:25:17Z</time>
      </trkpt>
      <trkpt lat="31.69974700" lon="35.02005250">
        <ele>381.30000</ele>
        <time>2010-01-01T00:25:22Z</time>
      </trkpt>
      <trkpt lat="31.69956830" lon="35.02016490">
        <ele>383.22000</ele>
        <time>2010-01-01T00:25:27Z</time>
      </trkpt>
      <trkpt lat="31.69943010" lon="35.02026610">
        <ele>386.59000</ele>
        <time>2010-01-01T00:25:31Z</time>
      </trkpt>
      <trkpt lat="31.69941600" lon="35.02029720">
        <ele>386.59000</ele>
        <time>2010-01-01T00:25:31Z</time>
      </trkpt>
      <trkpt lat="31.69943150" lon="35.02040460">
        <ele>387.55000</ele>
        <time>2010-01-01T00:25:34Z</time>
      </trkpt>
      <trkpt lat="31.69942690" lon="35.02053030">
        <ele>389.95000</ele>
        <time>2010-01-01T00:25:36Z</time>
      </trkpt>
      <trkpt lat="31.69940480" lon="35.02065100">
        <ele>391.87000</ele>
        <time>2010-01-01T00:25:39Z</time>
      </trkpt>
      <trkpt lat="31.69937070" lon="35.02062910">
        <ele>391.87000</ele>
        <time>2010-01-01T00:25:40Z</time>
      </trkpt>
      <trkpt lat="31.69928900" lon="35.02055720">
        <ele>392.36000</ele>
        <time>2010-01-01T00:25:43Z</time>
      </trkpt>
      <trkpt lat="31.69921770" lon="35.02046070">
        <ele>393.80000</ele>
        <time>2010-01-01T00:25:45Z</time>
      </trkpt>
      <trkpt lat="31.69912120" lon="35.02037440">
        <ele>394.76000</ele>
        <time>2010-01-01T00:25:48Z</time>
      </trkpt>
      <trkpt lat="31.69895140" lon="35.02028580">
        <ele>395.72000</ele>
        <time>2010-01-01T00:25:53Z</time>
      </trkpt>
      <trkpt lat="31.69879410" lon="35.02021300">
        <ele>396.68000</ele>
        <time>2010-01-01T00:25:57Z</time>
      </trkpt>
      <trkpt lat="31.69877420" lon="35.02021890">
        <ele>396.68000</ele>
        <time>2010-01-01T00:25:58Z</time>
      </trkpt>
      <trkpt lat="31.69868900" lon="35.02042240">
        <ele>398.12000</ele>
        <time>2010-01-01T00:26:02Z</time>
      </trkpt>
      <trkpt lat="31.69867770" lon="35.02052140">
        <ele>399.08000</ele>
        <time>2010-01-01T00:26:05Z</time>
      </trkpt>
      <trkpt lat="31.69865720" lon="35.02072160">
        <ele>401.97000</ele>
        <time>2010-01-01T00:26:09Z</time>
      </trkpt>
      <trkpt lat="31.69863340" lon="35.02094220">
        <ele>404.85000</ele>
        <time>2010-01-01T00:26:13Z</time>
      </trkpt>
      <trkpt lat="31.69863300" lon="35.02097740">
        <ele>405.33000</ele>
        <time>2010-01-01T00:26:14Z</time>
      </trkpt>
      <trkpt lat="31.69862000" lon="35.02111300">
        <ele>407.74000</ele>
        <time>2010-01-01T00:26:17Z</time>
      </trkpt>
      <trkpt lat="31.69855500" lon="35.02130510">
        <ele>411.58000</ele>
        <time>2010-01-01T00:26:22Z</time>
      </trkpt>
      <trkpt lat="31.69853200" lon="35.02134220">
        <ele>412.06000</ele>
        <time>2010-01-01T00:26:22Z</time>
      </trkpt>
      <trkpt lat="31.69846210" lon="35.02142560">
        <ele>414.95000</ele>
        <time>2010-01-01T00:26:25Z</time>
      </trkpt>
      <trkpt lat="31.69842260" lon="35.02148140">
        <ele>415.91000</ele>
        <time>2010-01-01T00:26:26Z</time>
      </trkpt>
      <trkpt lat="31.69829310" lon="35.02163680">
        <ele>417.83000</ele>
        <time>2010-01-01T00:26:31Z</time>
      </trkpt>
      <trkpt lat="31.69817060" lon="35.02179090">
        <ele>420.71000</ele>
        <time>2010-01-01T00:26:36Z</time>
      </trkpt>
      <trkpt lat="31.69803720" lon="35.02194540">
        <ele>422.64000</ele>
        <time>2010-01-01T00:26:40Z</time>
      </trkpt>
      <trkpt lat="31.69797400" lon="35.02201580">
        <ele>423.12000</ele>
        <time>2010-01-01T00:26:42Z</time>
      </trkpt>
      <trkpt lat="31.69796030" lon="35.02208170">
        <ele>424.08000</ele>
        <time>2010-01-01T00:26:44Z</time>
      </trkpt>
      <trkpt lat="31.69796090" lon="35.02219750">
        <ele>426.00000</ele>
        <time>2010-01-01T00:26:46Z</time>
      </trkpt>
      <trkpt lat="31.69796400" lon="35.02225810">
        <ele>426.96000</ele>
        <time>2010-01-01T00:26:48Z</time>
      </trkpt>
      <trkpt lat="31.69795930" lon="35.02235160">
        <ele>428.40000</ele>
        <time>2010-01-01T00:26:50Z</time>
      </trkpt>
      <trkpt lat="31.69794510" lon="35.02243090">
        <ele>429.37000</ele>
        <time>2010-01-01T00:26:51Z</time>
      </trkpt>
      <trkpt lat="31.69793150" lon="35.02254100">
        <ele>430.33000</ele>
        <time>2010-01-01T00:26:54Z</time>
      </trkpt>
      <trkpt lat="31.69788400" lon="35.02280810">
        <ele>433.69000</ele>
        <time>2010-01-01T00:26:59Z</time>
      </trkpt>
      <trkpt lat="31.69787820" lon="35.02288850">
        <ele>434.65000</ele>
        <time>2010-01-01T00:27:01Z</time>
      </trkpt>
      <trkpt lat="31.69786930" lon="35.02309950">
        <ele>437.54000</ele>
        <time>2010-01-01T00:27:06Z</time>
      </trkpt>
      <trkpt lat="31.69785730" lon="35.02328770">
        <ele>439.94000</ele>
        <time>2010-01-01T00:27:10Z</time>
      </trkpt>
      <trkpt lat="31.69785660" lon="35.02348880">
        <ele>441.86000</ele>
        <time>2010-01-01T00:27:14Z</time>
      </trkpt>
      <trkpt lat="31.69780700" lon="35.02367100">
        <ele>444.27000</ele>
        <time>2010-01-01T00:27:18Z</time>
      </trkpt>
      <trkpt lat="31.69781390" lon="35.02386910">
        <ele>446.19000</ele>
        <time>2010-01-01T00:27:22Z</time>
      </trkpt>
      <trkpt lat="31.69781320" lon="35.02408210">
        <ele>448.11000</ele>
        <time>2010-01-01T00:27:27Z</time>
      </trkpt>
      <trkpt lat="31.69781270" lon="35.02410100">
        <ele>448.11000</ele>
        <time>2010-01-01T00:27:27Z</time>
      </trkpt>
      <trkpt lat="31.69778740" lon="35.02425020">
        <ele>449.07000</ele>
        <time>2010-01-01T00:27:30Z</time>
      </trkpt>
      <trkpt lat="31.69778270" lon="35.02450760">
        <ele>451.96000</ele>
        <time>2010-01-01T00:27:36Z</time>
      </trkpt>
      <trkpt lat="31.69770810" lon="35.02475850">
        <ele>454.36000</ele>
        <time>2010-01-01T00:27:41Z</time>
      </trkpt>
      <trkpt lat="31.69764910" lon="35.02492670">
        <ele>455.32000</ele>
        <time>2010-01-01T00:27:45Z</time>
      </trkpt>
      <trkpt lat="31.69758200" lon="35.02511090">
        <ele>455.80000</ele>
        <time>2010-01-01T00:27:49Z</time>
      </trkpt>
      <trkpt lat="31.69756100" lon="35.02518180">
        <ele>456.28000</ele>
        <time>2010-01-01T00:27:51Z</time>
      </trkpt>
      <trkpt lat="31.69748490" lon="35.02534730">
        <ele>456.28000</ele>
        <time>2010-01-01T00:27:55Z</time>
      </trkpt>
      <trkpt lat="31.69748530" lon="35.02534830">
        <ele>456.76000</ele>
        <time>2010-01-01T00:27:55Z</time>
      </trkpt>
      <trkpt lat="31.69748560" lon="35.02534870">
        <ele>456.76000</ele>
        <time>2010-01-01T00:27:55Z</time>
      </trkpt>
      <trkpt lat="31.69748590" lon="35.02534990">
        <ele>456.76000</ele>
        <time>2010-01-01T00:27:55Z</time>
      </trkpt>
      <trkpt lat="31.69748480" lon="35.02534820">
        <ele>456.76000</ele>
        <time>2010-01-01T00:27:55Z</time>
      </trkpt>
      <trkpt lat="31.69748340" lon="35.02535270">
        <ele>456.76000</ele>
        <time>2010-01-01T00:27:55Z</time>
      </trkpt>
      <trkpt lat="31.69735270" lon="35.02547470">
        <ele>456.76000</ele>
        <time>2010-01-01T00:27:59Z</time>
      </trkpt>
      <trkpt lat="31.69720040" lon="35.02556670">
        <ele>456.28000</ele>
        <time>2010-01-01T00:28:04Z</time>
      </trkpt>
      <trkpt lat="31.69682240" lon="35.02564200">
        <ele>453.40000</ele>
        <time>2010-01-01T00:28:13Z</time>
      </trkpt>
      <trkpt lat="31.69636970" lon="35.02559850">
        <ele>448.59000</ele>
        <time>2010-01-01T00:28:24Z</time>
      </trkpt>
      <trkpt lat="31.69615100" lon="35.02542530">
        <ele>443.79000</ele>
        <time>2010-01-01T00:28:31Z</time>
      </trkpt>
      <trkpt lat="31.69595120" lon="35.02534940">
        <ele>440.90000</ele>
        <time>2010-01-01T00:28:36Z</time>
      </trkpt>
      <trkpt lat="31.69573600" lon="35.02524910">
        <ele>437.06000</ele>
        <time>2010-01-01T00:28:42Z</time>
      </trkpt>
      <trkpt lat="31.69563190" lon="35.02510950">
        <ele>436.10000</ele>
        <time>2010-01-01T00:28:46Z</time>
      </trkpt>
      <trkpt lat="31.69550170" lon="35.02504890">
        <ele>434.17000</ele>
        <time>2010-01-01T00:28:49Z</time>
      </trkpt>
      <trkpt lat="31.69532440" lon="35.02479080">
        <ele>433.69000</ele>
        <time>2010-01-01T00:28:56Z</time>
      </trkpt>
      <trkpt lat="31.69519630" lon="35.02445580">
        <ele>431.77000</ele>
        <time>2010-01-01T00:29:04Z</time>
      </trkpt>
      <trkpt lat="31.69513790" lon="35.02412170">
        <ele>430.33000</ele>
        <time>2010-01-01T00:29:11Z</time>
      </trkpt>
      <trkpt lat="31.69527950" lon="35.02373780">
        <ele>428.40000</ele>
        <time>2010-01-01T00:29:20Z</time>
      </trkpt>
      <trkpt lat="31.69518920" lon="35.02357450">
        <ele>426.00000</ele>
        <time>2010-01-01T00:29:24Z</time>
      </trkpt>
      <trkpt lat="31.69515820" lon="35.02357370">
        <ele>425.52000</ele>
        <time>2010-01-01T00:29:25Z</time>
      </trkpt>
      <trkpt lat="31.69491980" lon="35.02365660">
        <ele>424.08000</ele>
        <time>2010-01-01T00:29:31Z</time>
      </trkpt>
      <trkpt lat="31.69489220" lon="35.02365060">
        <ele>423.60000</ele>
        <time>2010-01-01T00:29:32Z</time>
      </trkpt>
      <trkpt lat="31.69484290" lon="35.02337020">
        <ele>419.27000</ele>
        <time>2010-01-01T00:29:38Z</time>
      </trkpt>
      <trkpt lat="31.69474080" lon="35.02324780">
        <ele>417.35000</ele>
        <time>2010-01-01T00:29:42Z</time>
      </trkpt>
      <trkpt lat="31.69466490" lon="35.02323730">
        <ele>416.39000</ele>
        <time>2010-01-01T00:29:44Z</time>
      </trkpt>
      <trkpt lat="31.69438990" lon="35.02328850">
        <ele>413.50000</ele>
        <time>2010-01-01T00:29:51Z</time>
      </trkpt>
      <trkpt lat="31.69436360" lon="35.02329280">
        <ele>413.02000</ele>
        <time>2010-01-01T00:29:51Z</time>
      </trkpt>
      <trkpt lat="31.69426450" lon="35.02309310">
        <ele>410.14000</ele>
        <time>2010-01-01T00:29:56Z</time>
      </trkpt>
      <trkpt lat="31.69435890" lon="35.02269420">
        <ele>406.29000</ele>
        <time>2010-01-01T00:30:05Z</time>
      </trkpt>
      <trkpt lat="31.69465140" lon="35.02256190">
        <ele>405.81000</ele>
        <time>2010-01-01T00:30:13Z</time>
      </trkpt>
      <trkpt lat="31.69467930" lon="35.02248010">
        <ele>404.85000</ele>
        <time>2010-01-01T00:30:15Z</time>
      </trkpt>
      <trkpt lat="31.69455380" lon="35.02234310">
        <ele>402.93000</ele>
        <time>2010-01-01T00:30:19Z</time>
      </trkpt>
      <trkpt lat="31.69443850" lon="35.02219780">
        <ele>401.01000</ele>
        <time>2010-01-01T00:30:23Z</time>
      </trkpt>
      <trkpt lat="31.69430530" lon="35.02201540">
        <ele>398.12000</ele>
        <time>2010-01-01T00:30:28Z</time>
      </trkpt>
      <trkpt lat="31.69417640" lon="35.02195200">
        <ele>396.68000</ele>
        <time>2010-01-01T00:30:32Z</time>
      </trkpt>
      <trkpt lat="31.69376460" lon="35.02195740">
        <ele>392.36000</ele>
        <time>2010-01-01T00:30:42Z</time>
      </trkpt>
      <trkpt lat="31.69356570" lon="35.02195860">
        <ele>389.95000</ele>
        <time>2010-01-01T00:30:47Z</time>
      </trkpt>
      <trkpt lat="31.69343710" lon="35.02190200">
        <ele>387.55000</ele>
        <time>2010-01-01T00:30:50Z</time>
      </trkpt>
      <trkpt lat="31.69305690" lon="35.02150690">
        <ele>384.66000</ele>
        <time>2010-01-01T00:31:03Z</time>
      </trkpt>
      <trkpt lat="31.69291600" lon="35.02134060">
        <ele>385.15000</ele>
        <time>2010-01-01T00:31:08Z</time>
      </trkpt>
      <trkpt lat="31.69277010" lon="35.02122370">
        <ele>386.11000</ele>
        <time>2010-01-01T00:31:12Z</time>
      </trkpt>
      <trkpt lat="31.69264270" lon="35.02104980">
        <ele>385.63000</ele>
        <time>2010-01-01T00:31:17Z</time>
      </trkpt>
      <trkpt lat="31.69259050" lon="35.02094800">
        <ele>385.63000</ele>
        <time>2010-01-01T00:31:20Z</time>
      </trkpt>
      <trkpt lat="31.69238630" lon="35.02072150">
        <ele>385.15000</ele>
        <time>2010-01-01T00:31:26Z</time>
      </trkpt>
      <trkpt lat="31.69226120" lon="35.02032590">
        <ele>379.38000</ele>
        <time>2010-01-01T00:31:35Z</time>
      </trkpt>
      <trkpt lat="31.69229140" lon="35.02009670">
        <ele>374.57000</ele>
        <time>2010-01-01T00:31:40Z</time>
      </trkpt>
      <trkpt lat="31.69229840" lon="35.01964470">
        <ele>366.40000</ele>
        <time>2010-01-01T00:31:50Z</time>
      </trkpt>
      <trkpt lat="31.69225670" lon="35.01920940">
        <ele>358.71000</ele>
        <time>2010-01-01T00:31:59Z</time>
      </trkpt>
      <trkpt lat="31.69217770" lon="35.01910540">
        <ele>354.86000</ele>
        <time>2010-01-01T00:32:02Z</time>
      </trkpt>
      <trkpt lat="31.69216150" lon="35.01915460">
        <ele>353.90000</ele>
        <time>2010-01-01T00:32:03Z</time>
      </trkpt>
      <trkpt lat="31.69208960" lon="35.01942910">
        <ele>353.42000</ele>
        <time>2010-01-01T00:32:09Z</time>
      </trkpt>
      <trkpt lat="31.69206800" lon="35.01947380">
        <ele>352.94000</ele>
        <time>2010-01-01T00:32:10Z</time>
      </trkpt>
      <trkpt lat="31.69197530" lon="35.01963950">
        <ele>351.50000</ele>
        <time>2010-01-01T00:32:15Z</time>
      </trkpt>
      <trkpt lat="31.69176140" lon="35.01981080">
        <ele>348.13000</ele>
        <time>2010-01-01T00:32:21Z</time>
      </trkpt>
      <trkpt lat="31.69174740" lon="35.01982270">
        <ele>348.13000</ele>
        <time>2010-01-01T00:32:21Z</time>
      </trkpt>
      <trkpt lat="31.69168840" lon="35.01978290">
        <ele>347.65000</ele>
        <time>2010-01-01T00:32:23Z</time>
      </trkpt>
      <trkpt lat="31.69170710" lon="35.01950650">
        <ele>345.73000</ele>
        <time>2010-01-01T00:32:29Z</time>
      </trkpt>
      <trkpt lat="31.69174110" lon="35.01934860">
        <ele>344.77000</ele>
        <time>2010-01-01T00:32:32Z</time>
      </trkpt>
      <trkpt lat="31.69172120" lon="35.01919950">
        <ele>343.33000</ele>
        <time>2010-01-01T00:32:36Z</time>
      </trkpt>
      <trkpt lat="31.69171800" lon="35.01907660">
        <ele>341.89000</ele>
        <time>2010-01-01T00:32:38Z</time>
      </trkpt>
      <trkpt lat="31.69185940" lon="35.01829770">
        <ele>335.64000</ele>
        <time>2010-01-01T00:32:55Z</time>
      </trkpt>
      <trkpt lat="31.69199050" lon="35.01803160">
        <ele>332.75000</ele>
        <time>2010-01-01T00:33:02Z</time>
      </trkpt>
      <trkpt lat="31.69196340" lon="35.01796780">
        <ele>331.79000</ele>
        <time>2010-01-01T00:33:03Z</time>
      </trkpt>
      <trkpt lat="31.69177640" lon="35.01768630">
        <ele>329.87000</ele>
        <time>2010-01-01T00:33:11Z</time>
      </trkpt>
      <trkpt lat="31.69174690" lon="35.01762630">
        <ele>330.35000</ele>
        <time>2010-01-01T00:33:12Z</time>
      </trkpt>
      <trkpt lat="31.69166240" lon="35.01748050">
        <ele>329.39000</ele>
        <time>2010-01-01T00:33:16Z</time>
      </trkpt>
      <trkpt lat="31.69146920" lon="35.01712350">
        <ele>331.31000</ele>
        <time>2010-01-01T00:33:25Z</time>
      </trkpt>
      <trkpt lat="31.69135920" lon="35.01679110">
        <ele>332.27000</ele>
        <time>2010-01-01T00:33:32Z</time>
      </trkpt>
      <trkpt lat="31.69142080" lon="35.01623910">
        <ele>329.87000</ele>
        <time>2010-01-01T00:33:44Z</time>
      </trkpt>
      <trkpt lat="31.69145880" lon="35.01596230">
        <ele>328.91000</ele>
        <time>2010-01-01T00:33:50Z</time>
      </trkpt>
      <trkpt lat="31.69162210" lon="35.01535620">
        <ele>327.95000</ele>
        <time>2010-01-01T00:34:04Z</time>
      </trkpt>
      <trkpt lat="31.69165260" lon="35.01523900">
        <ele>327.95000</ele>
        <time>2010-01-01T00:34:06Z</time>
      </trkpt>
      <trkpt lat="31.69164420" lon="35.01479970">
        <ele>329.87000</ele>
        <time>2010-01-01T00:34:16Z</time>
      </trkpt>
      <trkpt lat="31.69150030" lon="35.01439940">
        <ele>330.83000</ele>
        <time>2010-01-01T00:34:25Z</time>
      </trkpt>
      <trkpt lat="31.69141940" lon="35.01413560">
        <ele>329.39000</ele>
        <time>2010-01-01T00:34:31Z</time>
      </trkpt>
      <trkpt lat="31.69140020" lon="35.01360610">
        <ele>326.50000</ele>
        <time>2010-01-01T00:34:42Z</time>
      </trkpt>
      <trkpt lat="31.69137560" lon="35.01328550">
        <ele>326.99000</ele>
        <time>2010-01-01T00:34:49Z</time>
      </trkpt>
      <trkpt lat="31.69117570" lon="35.01281110">
        <ele>325.06000</ele>
        <time>2010-01-01T00:35:00Z</time>
      </trkpt>
      <trkpt lat="31.69082100" lon="35.01215720">
        <ele>321.70000</ele>
        <time>2010-01-01T00:35:16Z</time>
      </trkpt>
      <trkpt lat="31.69074810" lon="35.01182090">
        <ele>321.70000</ele>
        <time>2010-01-01T00:35:24Z</time>
      </trkpt>
      <trkpt lat="31.69080630" lon="35.01162890">
        <ele>320.26000</ele>
        <time>2010-01-01T00:35:28Z</time>
      </trkpt>
      <trkpt lat="31.69086190" lon="35.01149780">
        <ele>319.78000</ele>
        <time>2010-01-01T00:35:31Z</time>
      </trkpt>
      <trkpt lat="31.69089280" lon="35.01124760">
        <ele>318.81000</ele>
        <time>2010-01-01T00:35:36Z</time>
      </trkpt>
      <trkpt lat="31.69080610" lon="35.01106880">
        <ele>317.37000</ele>
        <time>2010-01-01T00:35:41Z</time>
      </trkpt>
      <trkpt lat="31.69048910" lon="35.01091450">
        <ele>318.33000</ele>
        <time>2010-01-01T00:35:49Z</time>
      </trkpt>
      <trkpt lat="31.69040350" lon="35.01089330">
        <ele>318.81000</ele>
        <time>2010-01-01T00:35:51Z</time>
      </trkpt>
      <trkpt lat="31.69024420" lon="35.01078450">
        <ele>320.74000</ele>
        <time>2010-01-01T00:35:56Z</time>
      </trkpt>
      <trkpt lat="31.69019600" lon="35.01069950">
        <ele>320.74000</ele>
        <time>2010-01-01T00:35:58Z</time>
      </trkpt>
      <trkpt lat="31.69006680" lon="35.01065700">
        <ele>322.18000</ele>
        <time>2010-01-01T00:36:02Z</time>
      </trkpt>
      <trkpt lat="31.68980500" lon="35.01095430">
        <ele>323.14000</ele>
        <time>2010-01-01T00:36:11Z</time>
      </trkpt>
      <trkpt lat="31.68969450" lon="35.01124940">
        <ele>324.10000</ele>
        <time>2010-01-01T00:36:17Z</time>
      </trkpt>
      <trkpt lat="31.68954010" lon="35.01167760">
        <ele>325.54000</ele>
        <time>2010-01-01T00:36:27Z</time>
      </trkpt>
      <trkpt lat="31.68935880" lon="35.01209610">
        <ele>326.50000</ele>
        <time>2010-01-01T00:36:37Z</time>
      </trkpt>
      <trkpt lat="31.68922220" lon="35.01235660">
        <ele>327.95000</ele>
        <time>2010-01-01T00:36:44Z</time>
      </trkpt>
      <trkpt lat="31.68910460" lon="35.01260490">
        <ele>329.87000</ele>
        <time>2010-01-01T00:36:50Z</time>
      </trkpt>
      <trkpt lat="31.68904280" lon="35.01294170">
        <ele>331.79000</ele>
        <time>2010-01-01T00:36:57Z</time>
      </trkpt>
      <trkpt lat="31.68895520" lon="35.01327410">
        <ele>334.20000</ele>
        <time>2010-01-01T00:37:04Z</time>
      </trkpt>
      <trkpt lat="31.68894900" lon="35.01341640">
        <ele>335.16000</ele>
        <time>2010-01-01T00:37:07Z</time>
      </trkpt>
      <trkpt lat="31.68894640" lon="35.01341650">
        <ele>335.16000</ele>
        <time>2010-01-01T00:37:07Z</time>
      </trkpt>
      <trkpt lat="31.68894800" lon="35.01341690">
        <ele>335.16000</ele>
        <time>2010-01-01T00:37:08Z</time>
      </trkpt>
      <trkpt lat="31.68894710" lon="35.01341660">
        <ele>335.16000</ele>
        <time>2010-01-01T00:37:08Z</time>
      </trkpt>
      <trkpt lat="31.68896480" lon="35.01351930">
        <ele>335.16000</ele>
        <time>2010-01-01T00:37:10Z</time>
      </trkpt>
      <trkpt lat="31.68898370" lon="35.01382670">
        <ele>337.08000</ele>
        <time>2010-01-01T00:37:16Z</time>
      </trkpt>
      <trkpt lat="31.68899430" lon="35.01407800">
        <ele>339.48000</ele>
        <time>2010-01-01T00:37:22Z</time>
      </trkpt>
      <trkpt lat="31.68897080" lon="35.01432190">
        <ele>341.89000</ele>
        <time>2010-01-01T00:37:27Z</time>
      </trkpt>
      <trkpt lat="31.68896220" lon="35.01462770">
        <ele>343.81000</ele>
        <time>2010-01-01T00:37:33Z</time>
      </trkpt>
      <trkpt lat="31.68895580" lon="35.01486930">
        <ele>346.21000</ele>
        <time>2010-01-01T00:37:38Z</time>
      </trkpt>
      <trkpt lat="31.68893420" lon="35.01512130">
        <ele>348.13000</ele>
        <time>2010-01-01T00:37:44Z</time>
      </trkpt>
      <trkpt lat="31.68889890" lon="35.01535050">
        <ele>351.02000</ele>
        <time>2010-01-01T00:37:49Z</time>
      </trkpt>
      <trkpt lat="31.68887400" lon="35.01539850">
        <ele>351.50000</ele>
        <time>2010-01-01T00:37:50Z</time>
      </trkpt>
      <trkpt lat="31.68861030" lon="35.01542250">
        <ele>350.06000</ele>
        <time>2010-01-01T00:37:56Z</time>
      </trkpt>
      <trkpt lat="31.68832640" lon="35.01535560">
        <ele>351.02000</ele>
        <time>2010-01-01T00:38:04Z</time>
      </trkpt>
      <trkpt lat="31.68830430" lon="35.01534500">
        <ele>351.50000</ele>
        <time>2010-01-01T00:38:04Z</time>
      </trkpt>
      <trkpt lat="31.68819500" lon="35.01522690">
        <ele>353.90000</ele>
        <time>2010-01-01T00:38:08Z</time>
      </trkpt>
      <trkpt lat="31.68807360" lon="35.01500520">
        <ele>354.86000</ele>
        <time>2010-01-01T00:38:14Z</time>
      </trkpt>
      <trkpt lat="31.68788030" lon="35.01484790">
        <ele>356.31000</ele>
        <time>2010-01-01T00:38:19Z</time>
      </trkpt>
      <trkpt lat="31.68764730" lon="35.01457340">
        <ele>357.27000</ele>
        <time>2010-01-01T00:38:28Z</time>
      </trkpt>
      <trkpt lat="31.68735100" lon="35.01440630">
        <ele>357.75000</ele>
        <time>2010-01-01T00:38:36Z</time>
      </trkpt>
      <trkpt lat="31.68723520" lon="35.01436020">
        <ele>357.27000</ele>
        <time>2010-01-01T00:38:39Z</time>
      </trkpt>
      <trkpt lat="31.68713880" lon="35.01444630">
        <ele>356.31000</ele>
        <time>2010-01-01T00:38:42Z</time>
      </trkpt>
      <trkpt lat="31.68714200" lon="35.01487120">
        <ele>356.79000</ele>
        <time>2010-01-01T00:38:51Z</time>
      </trkpt>
      <trkpt lat="31.68709480" lon="35.01521700">
        <ele>357.27000</ele>
        <time>2010-01-01T00:38:58Z</time>
      </trkpt>
      <trkpt lat="31.68708710" lon="35.01526370">
        <ele>356.79000</ele>
        <time>2010-01-01T00:38:59Z</time>
      </trkpt>
      <trkpt lat="31.68702970" lon="35.01566400">
        <ele>356.79000</ele>
        <time>2010-01-01T00:39:08Z</time>
      </trkpt>
      <trkpt lat="31.68683540" lon="35.01579040">
        <ele>356.31000</ele>
        <time>2010-01-01T00:39:13Z</time>
      </trkpt>
      <trkpt lat="31.68652300" lon="35.01597060">
        <ele>357.75000</ele>
        <time>2010-01-01T00:39:22Z</time>
      </trkpt>
      <trkpt lat="31.68636210" lon="35.01622420">
        <ele>358.71000</ele>
        <time>2010-01-01T00:39:29Z</time>
      </trkpt>
      <trkpt lat="31.68595760" lon="35.01663850">
        <ele>357.75000</ele>
        <time>2010-01-01T00:39:42Z</time>
      </trkpt>
      <trkpt lat="31.68592010" lon="35.01672550">
        <ele>357.27000</ele>
        <time>2010-01-01T00:39:44Z</time>
      </trkpt>
      <trkpt lat="31.68589890" lon="35.01693110">
        <ele>355.83000</ele>
        <time>2010-01-01T00:39:48Z</time>
      </trkpt>
      <trkpt lat="31.68591320" lon="35.01703270">
        <ele>354.86000</ele>
        <time>2010-01-01T00:39:51Z</time>
      </trkpt>
      <trkpt lat="31.68597060" lon="35.01727030">
        <ele>353.90000</ele>
        <time>2010-01-01T00:39:56Z</time>
      </trkpt>
      <trkpt lat="31.68609390" lon="35.01759040">
        <ele>356.31000</ele>
        <time>2010-01-01T00:40:03Z</time>
      </trkpt>
      <trkpt lat="31.68606380" lon="35.01784490">
        <ele>356.79000</ele>
        <time>2010-01-01T00:40:09Z</time>
      </trkpt>
      <trkpt lat="31.68582340" lon="35.01820890">
        <ele>354.86000</ele>
        <time>2010-01-01T00:40:19Z</time>
      </trkpt>
      <trkpt lat="31.68576020" lon="35.01828010">
        <ele>353.90000</ele>
        <time>2010-01-01T00:40:21Z</time>
      </trkpt>
      <trkpt lat="31.68568980" lon="35.01834680">
        <ele>352.94000</ele>
        <time>2010-01-01T00:40:23Z</time>
      </trkpt>
      <trkpt lat="31.68548970" lon="35.01872080">
        <ele>351.02000</ele>
        <time>2010-01-01T00:40:32Z</time>
      </trkpt>
      <trkpt lat="31.68548630" lon="35.01875980">
        <ele>351.50000</ele>
        <time>2010-01-01T00:40:33Z</time>
      </trkpt>
      <trkpt lat="31.68546340" lon="35.01902440">
        <ele>354.86000</ele>
        <time>2010-01-01T00:40:39Z</time>
      </trkpt>
      <trkpt lat="31.68545800" lon="35.01917780">
        <ele>355.83000</ele>
        <time>2010-01-01T00:40:42Z</time>
      </trkpt>
      <trkpt lat="31.68550400" lon="35.01953520">
        <ele>356.31000</ele>
        <time>2010-01-01T00:40:50Z</time>
      </trkpt>
      <trkpt lat="31.68549420" lon="35.01995530">
        <ele>357.75000</ele>
        <time>2010-01-01T00:40:59Z</time>
      </trkpt>
      <trkpt lat="31.68559530" lon="35.02030840">
        <ele>358.71000</ele>
        <time>2010-01-01T00:41:06Z</time>
      </trkpt>
      <trkpt lat="31.68568750" lon="35.02056680">
        <ele>359.67000</ele>
        <time>2010-01-01T00:41:12Z</time>
      </trkpt>
      <trkpt lat="31.68574810" lon="35.02087430">
        <ele>361.59000</ele>
        <time>2010-01-01T00:41:19Z</time>
      </trkpt>
      <trkpt lat="31.68574580" lon="35.02103810">
        <ele>363.52000</ele>
        <time>2010-01-01T00:41:23Z</time>
      </trkpt>
      <trkpt lat="31.68578900" lon="35.02131900">
        <ele>364.00000</ele>
        <time>2010-01-01T00:41:29Z</time>
      </trkpt>
      <trkpt lat="31.68588290" lon="35.02156810">
        <ele>365.44000</ele>
        <time>2010-01-01T00:41:34Z</time>
      </trkpt>
      <trkpt lat="31.68600720" lon="35.02185840">
        <ele>367.84000</ele>
        <time>2010-01-01T00:41:41Z</time>
      </trkpt>
      <trkpt lat="31.68614240" lon="35.02208740">
        <ele>369.76000</ele>
        <time>2010-01-01T00:41:47Z</time>
      </trkpt>
      <trkpt lat="31.68629750" lon="35.02235210">
        <ele>373.13000</ele>
        <time>2010-01-01T00:41:54Z</time>
      </trkpt>
      <trkpt lat="31.68643270" lon="35.02260280">
        <ele>375.05000</ele>
        <time>2010-01-01T00:42:00Z</time>
      </trkpt>
      <trkpt lat="31.68648080" lon="35.02286970">
        <ele>377.45000</ele>
        <time>2010-01-01T00:42:06Z</time>
      </trkpt>
      <trkpt lat="31.68644890" lon="35.02308700">
        <ele>379.86000</ele>
        <time>2010-01-01T00:42:11Z</time>
      </trkpt>
      <trkpt lat="31.68643990" lon="35.02318580">
        <ele>381.30000</ele>
        <time>2010-01-01T00:42:13Z</time>
      </trkpt>
      <trkpt lat="31.68643630" lon="35.02325230">
        <ele>382.74000</ele>
        <time>2010-01-01T00:42:14Z</time>
      </trkpt>
      <trkpt lat="31.68639890" lon="35.02340430">
        <ele>384.18000</ele>
        <time>2010-01-01T00:42:18Z</time>
      </trkpt>
      <trkpt lat="31.68638800" lon="35.02345940">
        <ele>384.66000</ele>
        <time>2010-01-01T00:42:19Z</time>
      </trkpt>
      <trkpt lat="31.68633180" lon="35.02352750">
        <ele>385.15000</ele>
        <time>2010-01-01T00:42:21Z</time>
      </trkpt>
      <trkpt lat="31.68631130" lon="35.02359910">
        <ele>386.59000</ele>
        <time>2010-01-01T00:42:22Z</time>
      </trkpt>
      <trkpt lat="31.68625870" lon="35.02385150">
        <ele>388.99000</ele>
        <time>2010-01-01T00:42:28Z</time>
      </trkpt>
      <trkpt lat="31.68624870" lon="35.02392790">
        <ele>390.43000</ele>
        <time>2010-01-01T00:42:29Z</time>
      </trkpt>
      <trkpt lat="31.68624200" lon="35.02406860">
        <ele>392.84000</ele>
        <time>2010-01-01T00:42:32Z</time>
      </trkpt>
      <trkpt lat="31.68623780" lon="35.02414850">
        <ele>394.28000</ele>
        <time>2010-01-01T00:42:34Z</time>
      </trkpt>
      <trkpt lat="31.68625410" lon="35.02431680">
        <ele>396.20000</ele>
        <time>2010-01-01T00:42:38Z</time>
      </trkpt>
      <trkpt lat="31.68626850" lon="35.02437440">
        <ele>397.16000</ele>
        <time>2010-01-01T00:42:39Z</time>
      </trkpt>
      <trkpt lat="31.68627560" lon="35.02443340">
        <ele>398.12000</ele>
        <time>2010-01-01T00:42:40Z</time>
      </trkpt>
      <trkpt lat="31.68625960" lon="35.02458910">
        <ele>400.05000</ele>
        <time>2010-01-01T00:42:44Z</time>
      </trkpt>
      <trkpt lat="31.68625670" lon="35.02460590">
        <ele>400.53000</ele>
        <time>2010-01-01T00:42:44Z</time>
      </trkpt>
      <trkpt lat="31.68625020" lon="35.02465280">
        <ele>401.01000</ele>
        <time>2010-01-01T00:42:45Z</time>
      </trkpt>
      <trkpt lat="31.68626410" lon="35.02473140">
        <ele>401.97000</ele>
        <time>2010-01-01T00:42:47Z</time>
      </trkpt>
      <trkpt lat="31.68628420" lon="35.02485550">
        <ele>402.93000</ele>
        <time>2010-01-01T00:42:49Z</time>
      </trkpt>
      <trkpt lat="31.68634960" lon="35.02498270">
        <ele>404.37000</ele>
        <time>2010-01-01T00:42:52Z</time>
      </trkpt>
      <trkpt lat="31.68639420" lon="35.02513280">
        <ele>406.29000</ele>
        <time>2010-01-01T00:42:56Z</time>
      </trkpt>
      <trkpt lat="31.68642480" lon="35.02533580">
        <ele>408.22000</ele>
        <time>2010-01-01T00:43:00Z</time>
      </trkpt>
      <trkpt lat="31.68642530" lon="35.02540440">
        <ele>408.70000</ele>
        <time>2010-01-01T00:43:02Z</time>
      </trkpt>
      <trkpt lat="31.68644860" lon="35.02552530">
        <ele>410.14000</ele>
        <time>2010-01-01T00:43:04Z</time>
      </trkpt>
      <trkpt lat="31.68645070" lon="35.02572010">
        <ele>412.54000</ele>
        <time>2010-01-01T00:43:08Z</time>
      </trkpt>
      <trkpt lat="31.68644610" lon="35.02580000">
        <ele>413.50000</ele>
        <time>2010-01-01T00:43:10Z</time>
      </trkpt>
      <trkpt lat="31.68648840" lon="35.02602380">
        <ele>415.43000</ele>
        <time>2010-01-01T00:43:15Z</time>
      </trkpt>
      <trkpt lat="31.68658760" lon="35.02620150">
        <ele>416.87000</ele>
        <time>2010-01-01T00:43:19Z</time>
      </trkpt>
      <trkpt lat="31.68667670" lon="35.02637480">
        <ele>417.35000</ele>
        <time>2010-01-01T00:43:24Z</time>
      </trkpt>
      <trkpt lat="31.68682940" lon="35.02667700">
        <ele>419.75000</ele>
        <time>2010-01-01T00:43:31Z</time>
      </trkpt>
      <trkpt lat="31.68695750" lon="35.02693790">
        <ele>422.16000</ele>
        <time>2010-01-01T00:43:38Z</time>
      </trkpt>
      <trkpt lat="31.68702660" lon="35.02714320">
        <ele>423.60000</ele>
        <time>2010-01-01T00:43:42Z</time>
      </trkpt>
      <trkpt lat="31.68709470" lon="35.02738750">
        <ele>425.04000</ele>
        <time>2010-01-01T00:43:48Z</time>
      </trkpt>
      <trkpt lat="31.68714080" lon="35.02763430">
        <ele>427.44000</ele>
        <time>2010-01-01T00:43:53Z</time>
      </trkpt>
      <trkpt lat="31.68717230" lon="35.02786020">
        <ele>430.33000</ele>
        <time>2010-01-01T00:43:58Z</time>
      </trkpt>
      <trkpt lat="31.68718050" lon="35.02806130">
        <ele>432.73000</ele>
        <time>2010-01-01T00:44:02Z</time>
      </trkpt>
      <trkpt lat="31.68721090" lon="35.02827340">
        <ele>435.13000</ele>
        <time>2010-01-01T00:44:07Z</time>
      </trkpt>
      <trkpt lat="31.68722820" lon="35.02851680">
        <ele>437.06000</ele>
        <time>2010-01-01T00:44:12Z</time>
      </trkpt>
      <trkpt lat="31.68731100" lon="35.02872720">
        <ele>438.50000</ele>
        <time>2010-01-01T00:44:17Z</time>
      </trkpt>
      <trkpt lat="31.68735700" lon="35.02893100">
        <ele>439.94000</ele>
        <time>2010-01-01T00:44:21Z</time>
      </trkpt>
      <trkpt lat="31.68738190" lon="35.02905760">
        <ele>441.38000</ele>
        <time>2010-01-01T00:44:24Z</time>
      </trkpt>
      <trkpt lat="31.68745780" lon="35.02929710">
        <ele>444.27000</ele>
        <time>2010-01-01T00:44:29Z</time>
      </trkpt>
      <trkpt lat="31.68751640" lon="35.02953860">
        <ele>445.71000</ele>
        <time>2010-01-01T00:44:35Z</time>
      </trkpt>
      <trkpt lat="31.68755100" lon="35.02977520">
        <ele>447.15000</ele>
        <time>2010-01-01T00:44:40Z</time>
      </trkpt>
      <trkpt lat="31.68758370" lon="35.03004990">
        <ele>449.55000</ele>
        <time>2010-01-01T00:44:46Z</time>
      </trkpt>
      <trkpt lat="31.68759320" lon="35.03011070">
        <ele>449.55000</ele>
        <time>2010-01-01T00:44:47Z</time>
      </trkpt>
      <trkpt lat="31.68759530" lon="35.03010980">
        <ele>449.55000</ele>
        <time>2010-01-01T00:44:47Z</time>
      </trkpt>
      <trkpt lat="31.68759760" lon="35.03015170">
        <ele>450.03000</ele>
        <time>2010-01-01T00:44:48Z</time>
      </trkpt>
      <trkpt lat="31.68762850" lon="35.03040240">
        <ele>451.48000</ele>
        <time>2010-01-01T00:44:53Z</time>
      </trkpt>
      <trkpt lat="31.68765440" lon="35.03056060">
        <ele>452.92000</ele>
        <time>2010-01-01T00:44:57Z</time>
      </trkpt>
      <trkpt lat="31.68766160" lon="35.03062700">
        <ele>453.88000</ele>
        <time>2010-01-01T00:44:58Z</time>
      </trkpt>
      <trkpt lat="31.68766180" lon="35.03071390">
        <ele>454.84000</ele>
        <time>2010-01-01T00:45:00Z</time>
      </trkpt>
      <trkpt lat="31.68764210" lon="35.03092390">
        <ele>457.24000</ele>
        <time>2010-01-01T00:45:04Z</time>
      </trkpt>
      <trkpt lat="31.68762600" lon="35.03112520">
        <ele>459.65000</ele>
        <time>2010-01-01T00:45:09Z</time>
      </trkpt>
      <trkpt lat="31.68761620" lon="35.03126040">
        <ele>462.53000</ele>
        <time>2010-01-01T00:45:12Z</time>
      </trkpt>
      <trkpt lat="31.68763830" lon="35.03142910">
        <ele>464.45000</ele>
        <time>2010-01-01T00:45:15Z</time>
      </trkpt>
      <trkpt lat="31.68764700" lon="35.03150600">
        <ele>464.93000</ele>
        <time>2010-01-01T00:45:17Z</time>
      </trkpt>
      <trkpt lat="31.68766670" lon="35.03161660">
        <ele>465.90000</ele>
        <time>2010-01-01T00:45:19Z</time>
      </trkpt>
      <trkpt lat="31.68772360" lon="35.03179490">
        <ele>468.30000</ele>
        <time>2010-01-01T00:45:23Z</time>
      </trkpt>
      <trkpt lat="31.68778460" lon="35.03189540">
        <ele>469.74000</ele>
        <time>2010-01-01T00:45:26Z</time>
      </trkpt>
      <trkpt lat="31.68784160" lon="35.03202550">
        <ele>472.14000</ele>
        <time>2010-01-01T00:45:29Z</time>
      </trkpt>
      <trkpt lat="31.68785010" lon="35.03208340">
        <ele>473.11000</ele>
        <time>2010-01-01T00:45:30Z</time>
      </trkpt>
      <trkpt lat="31.68779570" lon="35.03218630">
        <ele>475.03000</ele>
        <time>2010-01-01T00:45:33Z</time>
      </trkpt>
      <trkpt lat="31.68781880" lon="35.03221510">
        <ele>475.51000</ele>
        <time>2010-01-01T00:45:34Z</time>
      </trkpt>
      <trkpt lat="31.68785660" lon="35.03232780">
        <ele>476.95000</ele>
        <time>2010-01-01T00:45:36Z</time>
      </trkpt>
      <trkpt lat="31.68778490" lon="35.03244440">
        <ele>478.39000</ele>
        <time>2010-01-01T00:45:39Z</time>
      </trkpt>
      <trkpt lat="31.68760810" lon="35.03240770">
        <ele>479.35000</ele>
        <time>2010-01-01T00:45:44Z</time>
      </trkpt>
      <trkpt lat="31.68748840" lon="35.03237430">
        <ele>479.35000</ele>
        <time>2010-01-01T00:45:47Z</time>
      </trkpt>
      <trkpt lat="31.68741520" lon="35.03241680">
        <ele>479.35000</ele>
        <time>2010-01-01T00:45:49Z</time>
      </trkpt>
      <trkpt lat="31.68740520" lon="35.03244610">
        <ele>479.35000</ele>
        <time>2010-01-01T00:45:49Z</time>
      </trkpt>
      <trkpt lat="31.68746010" lon="35.03258220">
        <ele>480.32000</ele>
        <time>2010-01-01T00:45:53Z</time>
      </trkpt>
      <trkpt lat="31.68755610" lon="35.03269210">
        <ele>480.80000</ele>
        <time>2010-01-01T00:45:56Z</time>
      </trkpt>
      <trkpt lat="31.68758730" lon="35.03270800">
        <ele>480.80000</ele>
        <time>2010-01-01T00:45:57Z</time>
      </trkpt>
      <trkpt lat="31.68766750" lon="35.03281040">
        <ele>482.24000</ele>
        <time>2010-01-01T00:46:00Z</time>
      </trkpt>
      <trkpt lat="31.68778860" lon="35.03297580">
        <ele>484.16000</ele>
        <time>2010-01-01T00:46:04Z</time>
      </trkpt>
      <trkpt lat="31.68789600" lon="35.03315210">
        <ele>485.12000</ele>
        <time>2010-01-01T00:46:09Z</time>
      </trkpt>
      <trkpt lat="31.68805010" lon="35.03339570">
        <ele>488.01000</ele>
        <time>2010-01-01T00:46:15Z</time>
      </trkpt>
      <trkpt lat="31.68816640" lon="35.03357770">
        <ele>488.97000</ele>
        <time>2010-01-01T00:46:20Z</time>
      </trkpt>
      <trkpt lat="31.68829430" lon="35.03378400">
        <ele>490.89000</ele>
        <time>2010-01-01T00:46:26Z</time>
      </trkpt>
      <trkpt lat="31.68839280" lon="35.03401450">
        <ele>492.33000</ele>
        <time>2010-01-01T00:46:31Z</time>
      </trkpt>
      <trkpt lat="31.68843730" lon="35.03419040">
        <ele>493.77000</ele>
        <time>2010-01-01T00:46:35Z</time>
      </trkpt>
      <trkpt lat="31.68846720" lon="35.03444810">
        <ele>496.18000</ele>
        <time>2010-01-01T00:46:40Z</time>
      </trkpt>
      <trkpt lat="31.68854880" lon="35.03465540">
        <ele>497.62000</ele>
        <time>2010-01-01T00:46:45Z</time>
      </trkpt>
      <trkpt lat="31.68857600" lon="35.03474190">
        <ele>498.58000</ele>
        <time>2010-01-01T00:46:47Z</time>
      </trkpt>
      <trkpt lat="31.68868400" lon="35.03497160">
        <ele>500.98000</ele>
        <time>2010-01-01T00:46:53Z</time>
      </trkpt>
      <trkpt lat="31.68885050" lon="35.03513310">
        <ele>501.95000</ele>
        <time>2010-01-01T00:46:58Z</time>
      </trkpt>
      <trkpt lat="31.68910080" lon="35.03522940">
        <ele>503.87000</ele>
        <time>2010-01-01T00:47:05Z</time>
      </trkpt>
      <trkpt lat="31.68931290" lon="35.03525930">
        <ele>505.31000</ele>
        <time>2010-01-01T00:47:10Z</time>
      </trkpt>
      <trkpt lat="31.68949020" lon="35.03532950">
        <ele>507.23000</ele>
        <time>2010-01-01T00:47:15Z</time>
      </trkpt>
      <trkpt lat="31.68960510" lon="35.03537650">
        <ele>507.71000</ele>
        <time>2010-01-01T00:47:18Z</time>
      </trkpt>
      <trkpt lat="31.68967230" lon="35.03542770">
        <ele>508.19000</ele>
        <time>2010-01-01T00:47:20Z</time>
      </trkpt>
      <trkpt lat="31.68981160" lon="35.03567100">
        <ele>510.12000</ele>
        <time>2010-01-01T00:47:26Z</time>
      </trkpt>
      <trkpt lat="31.68990000" lon="35.03590280">
        <ele>511.56000</ele>
        <time>2010-01-01T00:47:31Z</time>
      </trkpt>
      <trkpt lat="31.68993930" lon="35.03612340">
        <ele>513.00000</ele>
        <time>2010-01-01T00:47:36Z</time>
      </trkpt>
      <trkpt lat="31.68995750" lon="35.03637290">
        <ele>515.40000</ele>
        <time>2010-01-01T00:47:41Z</time>
      </trkpt>
      <trkpt lat="31.68996050" lon="35.03666390">
        <ele>517.33000</ele>
        <time>2010-01-01T00:47:48Z</time>
      </trkpt>
      <trkpt lat="31.68997630" lon="35.03678830">
        <ele>518.29000</ele>
        <time>2010-01-01T00:47:50Z</time>
      </trkpt>
      <trkpt lat="31.69000840" lon="35.03704000">
        <ele>521.17000</ele>
        <time>2010-01-01T00:47:56Z</time>
      </trkpt>
      <trkpt lat="31.69003370" lon="35.03734650">
        <ele>523.58000</ele>
        <time>2010-01-01T00:48:02Z</time>
      </trkpt>
      <trkpt lat="31.69002790" lon="35.03759310">
        <ele>525.98000</ele>
        <time>2010-01-01T00:48:07Z</time>
      </trkpt>
      <trkpt lat="31.69003820" lon="35.03768100">
        <ele>526.46000</ele>
        <time>2010-01-01T00:48:09Z</time>
      </trkpt>
      <trkpt lat="31.69011150" lon="35.03795040">
        <ele>527.42000</ele>
        <time>2010-01-01T00:48:15Z</time>
      </trkpt>
      <trkpt lat="31.69020070" lon="35.03816810">
        <ele>527.90000</ele>
        <time>2010-01-01T00:48:20Z</time>
      </trkpt>
      <trkpt lat="31.69026380" lon="35.03833070">
        <ele>528.86000</ele>
        <time>2010-01-01T00:48:24Z</time>
      </trkpt>
      <trkpt lat="31.69026140" lon="35.03833000">
        <ele>528.86000</ele>
        <time>2010-01-01T00:48:24Z</time>
      </trkpt>
      <trkpt lat="31.69027490" lon="35.03837350">
        <ele>528.86000</ele>
        <time>2010-01-01T00:48:25Z</time>
      </trkpt>
      <trkpt lat="31.69038940" lon="35.03870040">
        <ele>530.30000</ele>
        <time>2010-01-01T00:48:33Z</time>
      </trkpt>
      <trkpt lat="31.69063050" lon="35.03903130">
        <ele>531.75000</ele>
        <time>2010-01-01T00:48:42Z</time>
      </trkpt>
      <trkpt lat="31.69081900" lon="35.03919750">
        <ele>533.19000</ele>
        <time>2010-01-01T00:48:48Z</time>
      </trkpt>
      <trkpt lat="31.69088700" lon="35.03926140">
        <ele>533.67000</ele>
        <time>2010-01-01T00:48:50Z</time>
      </trkpt>
      <trkpt lat="31.69108600" lon="35.03943850">
        <ele>534.63000</ele>
        <time>2010-01-01T00:48:56Z</time>
      </trkpt>
      <trkpt lat="31.69122570" lon="35.03967390">
        <ele>535.59000</ele>
        <time>2010-01-01T00:49:02Z</time>
      </trkpt>
      <trkpt lat="31.69139930" lon="35.03995190">
        <ele>537.99000</ele>
        <time>2010-01-01T00:49:09Z</time>
      </trkpt>
      <trkpt lat="31.69139940" lon="35.04019360">
        <ele>539.92000</ele>
        <time>2010-01-01T00:49:15Z</time>
      </trkpt>
      <trkpt lat="31.69119840" lon="35.04028420">
        <ele>542.32000</ele>
        <time>2010-01-01T00:49:20Z</time>
      </trkpt>
      <trkpt lat="31.69104520" lon="35.04038920">
        <ele>543.76000</ele>
        <time>2010-01-01T00:49:24Z</time>
      </trkpt>
      <trkpt lat="31.69108630" lon="35.04050200">
        <ele>544.24000</ele>
        <time>2010-01-01T00:49:27Z</time>
      </trkpt>
      <trkpt lat="31.69121550" lon="35.04065550">
        <ele>545.20000</ele>
        <time>2010-01-01T00:49:32Z</time>
      </trkpt>
      <trkpt lat="31.69136180" lon="35.04085050">
        <ele>546.65000</ele>
        <time>2010-01-01T00:49:37Z</time>
      </trkpt>
      <trkpt lat="31.69147410" lon="35.04099010">
        <ele>548.57000</ele>
        <time>2010-01-01T00:49:41Z</time>
      </trkpt>
      <trkpt lat="31.69162360" lon="35.04117260">
        <ele>549.53000</ele>
        <time>2010-01-01T00:49:46Z</time>
      </trkpt>
      <trkpt lat="31.69175730" lon="35.04143290">
        <ele>551.93000</ele>
        <time>2010-01-01T00:49:53Z</time>
      </trkpt>
      <trkpt lat="31.69186110" lon="35.04172870">
        <ele>554.34000</ele>
        <time>2010-01-01T00:50:00Z</time>
      </trkpt>
      <trkpt lat="31.69197880" lon="35.04204320">
        <ele>556.74000</ele>
        <time>2010-01-01T00:50:07Z</time>
      </trkpt>
      <trkpt lat="31.69206080" lon="35.04229260">
        <ele>557.70000</ele>
        <time>2010-01-01T00:50:13Z</time>
      </trkpt>
      <trkpt lat="31.69220630" lon="35.04245970">
        <ele>560.11000</ele>
        <time>2010-01-01T00:50:18Z</time>
      </trkpt>
      <trkpt lat="31.69229690" lon="35.04249120">
        <ele>561.55000</ele>
        <time>2010-01-01T00:50:20Z</time>
      </trkpt>
      <trkpt lat="31.69249690" lon="35.04251460">
        <ele>563.47000</ele>
        <time>2010-01-01T00:50:25Z</time>
      </trkpt>
      <trkpt lat="31.69262150" lon="35.04261770">
        <ele>565.39000</ele>
        <time>2010-01-01T00:50:29Z</time>
      </trkpt>
      <trkpt lat="31.69256200" lon="35.04277360">
        <ele>566.35000</ele>
        <time>2010-01-01T00:50:32Z</time>
      </trkpt>
      <trkpt lat="31.69243120" lon="35.04291640">
        <ele>567.32000</ele>
        <time>2010-01-01T00:50:37Z</time>
      </trkpt>
      <trkpt lat="31.69226880" lon="35.04307820">
        <ele>568.76000</ele>
        <time>2010-01-01T00:50:42Z</time>
      </trkpt>
      <trkpt lat="31.69221710" lon="35.04313940">
        <ele>569.24000</ele>
        <time>2010-01-01T00:50:44Z</time>
      </trkpt>
      <trkpt lat="31.69218960" lon="35.04333680">
        <ele>571.16000</ele>
        <time>2010-01-01T00:50:48Z</time>
      </trkpt>
      <trkpt lat="31.69220950" lon="35.04336620">
        <ele>571.64000</ele>
        <time>2010-01-01T00:50:49Z</time>
      </trkpt>
      <trkpt lat="31.69224040" lon="35.04341430">
        <ele>571.64000</ele>
        <time>2010-01-01T00:50:50Z</time>
      </trkpt>
      <trkpt lat="31.69227770" lon="35.04345380">
        <ele>571.64000</ele>
        <time>2010-01-01T00:50:52Z</time>
      </trkpt>
      <trkpt lat="31.69235160" lon="35.04354720">
        <ele>572.60000</ele>
        <time>2010-01-01T00:50:54Z</time>
      </trkpt>
      <trkpt lat="31.69246120" lon="35.04367180">
        <ele>572.60000</ele>
        <time>2010-01-01T00:50:58Z</time>
      </trkpt>
      <trkpt lat="31.69258900" lon="35.04382800">
        <ele>575.49000</ele>
        <time>2010-01-01T00:51:03Z</time>
      </trkpt>
      <trkpt lat="31.69274550" lon="35.04397700">
        <ele>576.93000</ele>
        <time>2010-01-01T00:51:08Z</time>
      </trkpt>
      <trkpt lat="31.69290010" lon="35.04412640">
        <ele>579.33000</ele>
        <time>2010-01-01T00:51:13Z</time>
      </trkpt>
      <trkpt lat="31.69297980" lon="35.04419910">
        <ele>580.77000</ele>
        <time>2010-01-01T00:51:15Z</time>
      </trkpt>
      <trkpt lat="31.69306230" lon="35.04428220">
        <ele>582.22000</ele>
        <time>2010-01-01T00:51:18Z</time>
      </trkpt>
      <trkpt lat="31.69322630" lon="35.04444890">
        <ele>584.14000</ele>
        <time>2010-01-01T00:51:23Z</time>
      </trkpt>
      <trkpt lat="31.69336740" lon="35.04458130">
        <ele>585.58000</ele>
        <time>2010-01-01T00:51:28Z</time>
      </trkpt>
      <trkpt lat="31.69347520" lon="35.04477690">
        <ele>586.54000</ele>
        <time>2010-01-01T00:51:33Z</time>
      </trkpt>
      <trkpt lat="31.69355590" lon="35.04504280">
        <ele>588.46000</ele>
        <time>2010-01-01T00:51:39Z</time>
      </trkpt>
      <trkpt lat="31.69365770" lon="35.04522170">
        <ele>589.91000</ele>
        <time>2010-01-01T00:51:43Z</time>
      </trkpt>
      <trkpt lat="31.69375240" lon="35.04538220">
        <ele>591.35000</ele>
        <time>2010-01-01T00:51:47Z</time>
      </trkpt>
      <trkpt lat="31.69385050" lon="35.04554550">
        <ele>592.79000</ele>
        <time>2010-01-01T00:51:52Z</time>
      </trkpt>
      <trkpt lat="31.69397380" lon="35.04566590">
        <ele>593.27000</ele>
        <time>2010-01-01T00:51:56Z</time>
      </trkpt>
      <trkpt lat="31.69410510" lon="35.04587100">
        <ele>594.23000</ele>
        <time>2010-01-01T00:52:01Z</time>
      </trkpt>
      <trkpt lat="31.69412580" lon="35.04610770">
        <ele>595.67000</ele>
        <time>2010-01-01T00:52:06Z</time>
      </trkpt>
      <trkpt lat="31.69412310" lon="35.04619050">
        <ele>596.15000</ele>
        <time>2010-01-01T00:52:08Z</time>
      </trkpt>
      <trkpt lat="31.69412730" lon="35.04645280">
        <ele>597.12000</ele>
        <time>2010-01-01T00:52:13Z</time>
      </trkpt>
      <trkpt lat="31.69412820" lon="35.04673620">
        <ele>599.04000</ele>
        <time>2010-01-01T00:52:19Z</time>
      </trkpt>
      <trkpt lat="31.69414020" lon="35.04701430">
        <ele>600.00000</ele>
        <time>2010-01-01T00:52:25Z</time>
      </trkpt>
      <trkpt lat="31.69424790" lon="35.04735680">
        <ele>600.96000</ele>
        <time>2010-01-01T00:52:33Z</time>
      </trkpt>
      <trkpt lat="31.69431910" lon="35.04762550">
        <ele>602.40000</ele>
        <time>2010-01-01T00:52:39Z</time>
      </trkpt>
      <trkpt lat="31.69442410" lon="35.04795650">
        <ele>603.85000</ele>
        <time>2010-01-01T00:52:46Z</time>
      </trkpt>
      <trkpt lat="31.69455180" lon="35.04826740">
        <ele>605.77000</ele>
        <time>2010-01-01T00:52:54Z</time>
      </trkpt>
      <trkpt lat="31.69465990" lon="35.04854840">
        <ele>607.21000</ele>
        <time>2010-01-01T00:53:00Z</time>
      </trkpt>
      <trkpt lat="31.69480830" lon="35.04881090">
        <ele>607.69000</ele>
        <time>2010-01-01T00:53:07Z</time>
      </trkpt>
      <trkpt lat="31.69502590" lon="35.04905300">
        <ele>606.25000</ele>
        <time>2010-01-01T00:53:14Z</time>
      </trkpt>
      <trkpt lat="31.69515840" lon="35.04917430">
        <ele>604.81000</ele>
        <time>2010-01-01T00:53:18Z</time>
      </trkpt>
      <trkpt lat="31.69543510" lon="35.04946270">
        <ele>602.88000</ele>
        <time>2010-01-01T00:53:28Z</time>
      </trkpt>
      <trkpt lat="31.69560740" lon="35.04979460">
        <ele>600.48000</ele>
        <time>2010-01-01T00:53:36Z</time>
      </trkpt>
      <trkpt lat="31.69568890" lon="35.05056610">
        <ele>599.04000</ele>
        <time>2010-01-01T00:53:52Z</time>
      </trkpt>
      <trkpt lat="31.69570470" lon="35.05076600">
        <ele>599.52000</ele>
        <time>2010-01-01T00:53:57Z</time>
      </trkpt>
      <trkpt lat="31.69574280" lon="35.05095360">
        <ele>600.48000</ele>
        <time>2010-01-01T00:54:01Z</time>
      </trkpt>
      <trkpt lat="31.69592160" lon="35.05130520">
        <ele>602.88000</ele>
        <time>2010-01-01T00:54:09Z</time>
      </trkpt>
      <trkpt lat="31.69603430" lon="35.05161200">
        <ele>604.81000</ele>
        <time>2010-01-01T00:54:16Z</time>
      </trkpt>
      <trkpt lat="31.69614880" lon="35.05187510">
        <ele>605.77000</ele>
        <time>2010-01-01T00:54:23Z</time>
      </trkpt>
      <trkpt lat="31.69628070" lon="35.05214720">
        <ele>607.69000</ele>
        <time>2010-01-01T00:54:29Z</time>
      </trkpt>
      <trkpt lat="31.69646040" lon="35.05249320">
        <ele>610.57000</ele>
        <time>2010-01-01T00:54:38Z</time>
      </trkpt>
      <trkpt lat="31.69659080" lon="35.05275280">
        <ele>613.46000</ele>
        <time>2010-01-01T00:54:44Z</time>
      </trkpt>
      <trkpt lat="31.69674650" lon="35.05302380">
        <ele>615.86000</ele>
        <time>2010-01-01T00:54:51Z</time>
      </trkpt>
      <trkpt lat="31.69683390" lon="35.05318960">
        <ele>617.30000</ele>
        <time>2010-01-01T00:54:55Z</time>
      </trkpt>
      <trkpt lat="31.69687880" lon="35.05333670">
        <ele>617.78000</ele>
        <time>2010-01-01T00:54:59Z</time>
      </trkpt>
      <trkpt lat="31.69696000" lon="35.05351490">
        <ele>619.23000</ele>
        <time>2010-01-01T00:55:03Z</time>
      </trkpt>
      <trkpt lat="31.69703680" lon="35.05386630">
        <ele>621.15000</ele>
        <time>2010-01-01T00:55:11Z</time>
      </trkpt>
      <trkpt lat="31.69704080" lon="35.05429530">
        <ele>623.07000</ele>
        <time>2010-01-01T00:55:20Z</time>
      </trkpt>
      <trkpt lat="31.69694000" lon="35.05479820">
        <ele>624.03000</ele>
        <time>2010-01-01T00:55:31Z</time>
      </trkpt>
      <trkpt lat="31.69677590" lon="35.05528720">
        <ele>622.11000</ele>
        <time>2010-01-01T00:55:42Z</time>
      </trkpt>
      <trkpt lat="31.69670200" lon="35.05545190">
        <ele>622.11000</ele>
        <time>2010-01-01T00:55:46Z</time>
      </trkpt>
      <trkpt lat="31.69637400" lon="35.05586450">
        <ele>622.59000</ele>
        <time>2010-01-01T00:55:58Z</time>
      </trkpt>
      <trkpt lat="31.69620920" lon="35.05597330">
        <ele>622.59000</ele>
        <time>2010-01-01T00:56:02Z</time>
      </trkpt>
      <trkpt lat="31.69597440" lon="35.05606020">
        <ele>622.59000</ele>
        <time>2010-01-01T00:56:08Z</time>
      </trkpt>
      <trkpt lat="31.69582090" lon="35.05631110">
        <ele>623.55000</ele>
        <time>2010-01-01T00:56:15Z</time>
      </trkpt>
      <trkpt lat="31.69581940" lon="35.05651860">
        <ele>624.51000</ele>
        <time>2010-01-01T00:56:19Z</time>
      </trkpt>
      <trkpt lat="31.69586410" lon="35.05696710">
        <ele>627.40000</ele>
        <time>2010-01-01T00:56:29Z</time>
      </trkpt>
      <trkpt lat="31.69589090" lon="35.05738380">
        <ele>629.80000</ele>
        <time>2010-01-01T00:56:38Z</time>
      </trkpt>
      <trkpt lat="31.69595870" lon="35.05791270">
        <ele>631.24000</ele>
        <time>2010-01-01T00:56:49Z</time>
      </trkpt>
      <trkpt lat="31.69600430" lon="35.05823690">
        <ele>631.72000</ele>
        <time>2010-01-01T00:56:56Z</time>
      </trkpt>
      <trkpt lat="31.69608510" lon="35.05880460">
        <ele>633.65000</ele>
        <time>2010-01-01T00:57:08Z</time>
      </trkpt>
      <trkpt lat="31.69610530" lon="35.05920180">
        <ele>634.61000</ele>
        <time>2010-01-01T00:57:17Z</time>
      </trkpt>
      <trkpt lat="31.69616800" lon="35.05960760">
        <ele>636.53000</ele>
        <time>2010-01-01T00:57:25Z</time>
      </trkpt>
      <trkpt lat="31.69623330" lon="35.05999960">
        <ele>638.93000</ele>
        <time>2010-01-01T00:57:34Z</time>
      </trkpt>
      <trkpt lat="31.69627270" lon="35.06041140">
        <ele>640.86000</ele>
        <time>2010-01-01T00:57:43Z</time>
      </trkpt>
      <trkpt lat="31.69630780" lon="35.06062650">
        <ele>641.34000</ele>
        <time>2010-01-01T00:57:47Z</time>
      </trkpt>
      <trkpt lat="31.69634200" lon="35.06084600">
        <ele>642.30000</ele>
        <time>2010-01-01T00:57:52Z</time>
      </trkpt>
      <trkpt lat="31.69637320" lon="35.06118820">
        <ele>643.74000</ele>
        <time>2010-01-01T00:57:59Z</time>
      </trkpt>
      <trkpt lat="31.69643690" lon="35.06153770">
        <ele>645.66000</ele>
        <time>2010-01-01T00:58:07Z</time>
      </trkpt>
      <trkpt lat="31.69647320" lon="35.06188290">
        <ele>647.10000</ele>
        <time>2010-01-01T00:58:14Z</time>
      </trkpt>
      <trkpt lat="31.69655070" lon="35.06223850">
        <ele>649.51000</ele>
        <time>2010-01-01T00:58:22Z</time>
      </trkpt>
      <trkpt lat="31.69669950" lon="35.06258990">
        <ele>649.51000</ele>
        <time>2010-01-01T00:58:30Z</time>
      </trkpt>
      <trkpt lat="31.69674780" lon="35.06298540">
        <ele>649.03000</ele>
        <time>2010-01-01T00:58:39Z</time>
      </trkpt>
      <trkpt lat="31.69660860" lon="35.06337400">
        <ele>649.51000</ele>
        <time>2010-01-01T00:58:48Z</time>
      </trkpt>
      <trkpt lat="31.69639030" lon="35.06384070">
        <ele>651.43000</ele>
        <time>2010-01-01T00:58:59Z</time>
      </trkpt>
      <trkpt lat="31.69623260" lon="35.06416470">
        <ele>652.87000</ele>
        <time>2010-01-01T00:59:07Z</time>
      </trkpt>
      <trkpt lat="31.69609070" lon="35.06471020">
        <ele>656.72000</ele>
        <time>2010-01-01T00:59:19Z</time>
      </trkpt>
      <trkpt lat="31.69609030" lon="35.06500530">
        <ele>657.68000</ele>
        <time>2010-01-01T00:59:25Z</time>
      </trkpt>
      <trkpt lat="31.69605410" lon="35.06538060">
        <ele>660.08000</ele>
        <time>2010-01-01T00:59:33Z</time>
      </trkpt>
      <trkpt lat="31.69612400" lon="35.06569760">
        <ele>661.04000</ele>
        <time>2010-01-01T00:59:40Z</time>
      </trkpt>
      <trkpt lat="31.69617000" lon="35.06582920">
        <ele>661.04000</ele>
        <time>2010-01-01T00:59:43Z</time>
      </trkpt>
      <trkpt lat="31.69618890" lon="35.06583760">
        <ele>661.04000</ele>
        <time>2010-01-01T00:59:44Z</time>
      </trkpt>
      <trkpt lat="31.69618920" lon="35.06583820">
        <ele>661.04000</ele>
        <time>2010-01-01T00:59:44Z</time>
      </trkpt>
      <trkpt lat="31.69618790" lon="35.06583800">
        <ele>661.52000</ele>
        <time>2010-01-01T00:59:44Z</time>
      </trkpt>
      <trkpt lat="31.69620460" lon="35.06586650">
        <ele>661.04000</ele>
        <time>2010-01-01T00:59:44Z</time>
      </trkpt>
      <trkpt lat="31.69620550" lon="35.06586510">
        <ele>661.52000</ele>
        <time>2010-01-01T00:59:44Z</time>
      </trkpt>
      <trkpt lat="31.69629020" lon="35.06595210">
        <ele>661.04000</ele>
        <time>2010-01-01T00:59:47Z</time>
      </trkpt>
      <trkpt lat="31.69645760" lon="35.06624080">
        <ele>661.52000</ele>
        <time>2010-01-01T00:59:55Z</time>
      </trkpt>
      <trkpt lat="31.69663160" lon="35.06669190">
        <ele>662.49000</ele>
        <time>2010-01-01T01:00:05Z</time>
      </trkpt>
      <trkpt lat="31.69667750" lon="35.06738790">
        <ele>662.97000</ele>
        <time>2010-01-01T01:00:20Z</time>
      </trkpt>
      <trkpt lat="31.69667910" lon="35.06743800">
        <ele>662.97000</ele>
        <time>2010-01-01T01:00:21Z</time>
      </trkpt>
      <trkpt lat="31.69669590" lon="35.06763900">
        <ele>663.45000</ele>
        <time>2010-01-01T01:00:25Z</time>
      </trkpt>
      <trkpt lat="31.69672770" lon="35.06824730">
        <ele>664.41000</ele>
        <time>2010-01-01T01:00:38Z</time>
      </trkpt>
      <trkpt lat="31.69672060" lon="35.06829530">
        <ele>664.41000</ele>
        <time>2010-01-01T01:00:39Z</time>
      </trkpt>
      <trkpt lat="31.69667830" lon="35.06848540">
        <ele>664.89000</ele>
        <time>2010-01-01T01:00:43Z</time>
      </trkpt>
      <trkpt lat="31.69661110" lon="35.06873290">
        <ele>664.89000</ele>
        <time>2010-01-01T01:00:49Z</time>
      </trkpt>
      <trkpt lat="31.69654850" lon="35.06902380">
        <ele>664.41000</ele>
        <time>2010-01-01T01:00:55Z</time>
      </trkpt>
      <trkpt lat="31.69655650" lon="35.06968480">
        <ele>662.97000</ele>
        <time>2010-01-01T01:01:09Z</time>
      </trkpt>
      <trkpt lat="31.69656520" lon="35.06975540">
        <ele>662.49000</ele>
        <time>2010-01-01T01:01:11Z</time>
      </trkpt>
      <trkpt lat="31.69661550" lon="35.07004720">
        <ele>661.52000</ele>
        <time>2010-01-01T01:01:17Z</time>
      </trkpt>
      <trkpt lat="31.69664180" lon="35.07028670">
        <ele>660.56000</ele>
        <time>2010-01-01T01:01:22Z</time>
      </trkpt>
      <trkpt lat="31.69664400" lon="35.07046030">
        <ele>659.60000</ele>
        <time>2010-01-01T01:01:26Z</time>
      </trkpt>
      <trkpt lat="31.69680470" lon="35.07087130">
        <ele>657.20000</ele>
        <time>2010-01-01T01:01:35Z</time>
      </trkpt>
      <trkpt lat="31.69720460" lon="35.07109750">
        <ele>655.76000</ele>
        <time>2010-01-01T01:01:46Z</time>
      </trkpt>
      <trkpt lat="31.69736240" lon="35.07112450">
        <ele>656.24000</ele>
        <time>2010-01-01T01:01:50Z</time>
      </trkpt>
      <trkpt lat="31.69762920" lon="35.07104300">
        <ele>657.20000</ele>
        <time>2010-01-01T01:01:57Z</time>
      </trkpt>
      <trkpt lat="31.69819060" lon="35.07062340">
        <ele>658.16000</ele>
        <time>2010-01-01T01:02:14Z</time>
      </trkpt>
      <trkpt lat="31.69852910" lon="35.07035200">
        <ele>659.12000</ele>
        <time>2010-01-01T01:02:24Z</time>
      </trkpt>
      <trkpt lat="31.69868910" lon="35.07011560">
        <ele>659.60000</ele>
        <time>2010-01-01T01:02:30Z</time>
      </trkpt>
      <trkpt lat="31.69877110" lon="35.06982870">
        <ele>660.56000</ele>
        <time>2010-01-01T01:02:37Z</time>
      </trkpt>
      <trkpt lat="31.69879450" lon="35.06957610">
        <ele>661.04000</ele>
        <time>2010-01-01T01:02:42Z</time>
      </trkpt>
      <trkpt lat="31.69884170" lon="35.06918530">
        <ele>660.08000</ele>
        <time>2010-01-01T01:02:50Z</time>
      </trkpt>
      <trkpt lat="31.69894040" lon="35.06894200">
        <ele>659.60000</ele>
        <time>2010-01-01T01:02:56Z</time>
      </trkpt>
      <trkpt lat="31.69930300" lon="35.06863740">
        <ele>661.04000</ele>
        <time>2010-01-01T01:03:07Z</time>
      </trkpt>
      <trkpt lat="31.69971150" lon="35.06845860">
        <ele>663.45000</ele>
        <time>2010-01-01T01:03:18Z</time>
      </trkpt>
      <trkpt lat="31.70001370" lon="35.06854490">
        <ele>664.89000</ele>
        <time>2010-01-01T01:03:26Z</time>
      </trkpt>
      <trkpt lat="31.70028960" lon="35.06892290">
        <ele>663.45000</ele>
        <time>2010-01-01T01:03:36Z</time>
      </trkpt>
      <trkpt lat="31.70035770" lon="35.06900510">
        <ele>662.97000</ele>
        <time>2010-01-01T01:03:39Z</time>
      </trkpt>
      <trkpt lat="31.70050690" lon="35.06915560">
        <ele>662.49000</ele>
        <time>2010-01-01T01:03:44Z</time>
      </trkpt>
      <trkpt lat="31.70079170" lon="35.06946610">
        <ele>661.04000</ele>
        <time>2010-01-01T01:03:53Z</time>
      </trkpt>
      <trkpt lat="31.70105180" lon="35.06979930">
        <ele>659.12000</ele>
        <time>2010-01-01T01:04:03Z</time>
      </trkpt>
      <trkpt lat="31.70157140" lon="35.07031200">
        <ele>657.20000</ele>
        <time>2010-01-01T01:04:20Z</time>
      </trkpt>
      <trkpt lat="31.70166880" lon="35.07044740">
        <ele>657.20000</ele>
        <time>2010-01-01T01:04:24Z</time>
      </trkpt>
      <trkpt lat="31.70186740" lon="35.07107620">
        <ele>656.24000</ele>
        <time>2010-01-01T01:04:38Z</time>
      </trkpt>
      <trkpt lat="31.70186500" lon="35.07140540">
        <ele>655.28000</ele>
        <time>2010-01-01T01:04:45Z</time>
      </trkpt>
      <trkpt lat="31.70153200" lon="35.07226380">
        <ele>649.51000</ele>
        <time>2010-01-01T01:05:05Z</time>
      </trkpt>
      <trkpt lat="31.70125300" lon="35.07276560">
        <ele>645.66000</ele>
        <time>2010-01-01T01:05:17Z</time>
      </trkpt>
      <trkpt lat="31.70104150" lon="35.07368900">
        <ele>643.74000</ele>
        <time>2010-01-01T01:05:38Z</time>
      </trkpt>
      <trkpt lat="31.70092490" lon="35.07438260">
        <ele>645.18000</ele>
        <time>2010-01-01T01:05:53Z</time>
      </trkpt>
      <trkpt lat="31.70083250" lon="35.07469900">
        <ele>646.62000</ele>
        <time>2010-01-01T01:06:00Z</time>
      </trkpt>
      <trkpt lat="31.70067730" lon="35.07507750">
        <ele>648.55000</ele>
        <time>2010-01-01T01:06:09Z</time>
      </trkpt>
      <trkpt lat="31.70061820" lon="35.07516730">
        <ele>649.03000</ele>
        <time>2010-01-01T01:06:11Z</time>
      </trkpt>
      <trkpt lat="31.70052330" lon="35.07536490">
        <ele>649.51000</ele>
        <time>2010-01-01T01:06:16Z</time>
      </trkpt>
      <trkpt lat="31.70047030" lon="35.07545350">
        <ele>649.51000</ele>
        <time>2010-01-01T01:06:18Z</time>
      </trkpt>
      <trkpt lat="31.70020680" lon="35.07589090">
        <ele>649.99000</ele>
        <time>2010-01-01T01:06:29Z</time>
      </trkpt>
      <trkpt lat="31.70001160" lon="35.07620610">
        <ele>652.39000</ele>
        <time>2010-01-01T01:06:38Z</time>
      </trkpt>
      <trkpt lat="31.69989750" lon="35.07641710">
        <ele>654.80000</ele>
        <time>2010-01-01T01:06:43Z</time>
      </trkpt>
      <trkpt lat="31.69975740" lon="35.07665010">
        <ele>656.24000</ele>
        <time>2010-01-01T01:06:49Z</time>
      </trkpt>
      <trkpt lat="31.69976240" lon="35.07692440">
        <ele>657.68000</ele>
        <time>2010-01-01T01:06:55Z</time>
      </trkpt>
      <trkpt lat="31.69979040" lon="35.07699530">
        <ele>657.68000</ele>
        <time>2010-01-01T01:06:56Z</time>
      </trkpt>
      <trkpt lat="31.69991160" lon="35.07730860">
        <ele>659.60000</ele>
        <time>2010-01-01T01:07:04Z</time>
      </trkpt>
      <trkpt lat="31.70004390" lon="35.07761030">
        <ele>661.04000</ele>
        <time>2010-01-01T01:07:11Z</time>
      </trkpt>
      <trkpt lat="31.70015520" lon="35.07788830">
        <ele>662.01000</ele>
        <time>2010-01-01T01:07:17Z</time>
      </trkpt>
      <trkpt lat="31.70028410" lon="35.07820530">
        <ele>663.45000</ele>
        <time>2010-01-01T01:07:25Z</time>
      </trkpt>
      <trkpt lat="31.70042590" lon="35.07853370">
        <ele>665.37000</ele>
        <time>2010-01-01T01:07:33Z</time>
      </trkpt>
      <trkpt lat="31.70045510" lon="35.07861920">
        <ele>665.37000</ele>
        <time>2010-01-01T01:07:35Z</time>
      </trkpt>
      <trkpt lat="31.70057580" lon="35.07895660">
        <ele>665.85000</ele>
        <time>2010-01-01T01:07:42Z</time>
      </trkpt>
      <trkpt lat="31.70073120" lon="35.07924150">
        <ele>667.77000</ele>
        <time>2010-01-01T01:07:50Z</time>
      </trkpt>
      <trkpt lat="31.70090950" lon="35.07963690">
        <ele>668.73000</ele>
        <time>2010-01-01T01:07:59Z</time>
      </trkpt>
      <trkpt lat="31.70106210" lon="35.08014890">
        <ele>670.18000</ele>
        <time>2010-01-01T01:08:11Z</time>
      </trkpt>
      <trkpt lat="31.70113330" lon="35.08067780">
        <ele>671.14000</ele>
        <time>2010-01-01T01:08:22Z</time>
      </trkpt>
      <trkpt lat="31.70110620" lon="35.08125680">
        <ele>672.10000</ele>
        <time>2010-01-01T01:08:34Z</time>
      </trkpt>
      <trkpt lat="31.70110030" lon="35.08160550">
        <ele>672.10000</ele>
        <time>2010-01-01T01:08:41Z</time>
      </trkpt>
      <trkpt lat="31.70111580" lon="35.08174880">
        <ele>671.62000</ele>
        <time>2010-01-01T01:08:45Z</time>
      </trkpt>
      <trkpt lat="31.70125870" lon="35.08215160">
        <ele>672.58000</ele>
        <time>2010-01-01T01:08:54Z</time>
      </trkpt>
      <trkpt lat="31.70128550" lon="35.08218790">
        <ele>672.58000</ele>
        <time>2010-01-01T01:08:55Z</time>
      </trkpt>
      <trkpt lat="31.70160250" lon="35.08241670">
        <ele>672.58000</ele>
        <time>2010-01-01T01:09:04Z</time>
      </trkpt>
      <trkpt lat="31.70175950" lon="35.08248640">
        <ele>672.58000</ele>
        <time>2010-01-01T01:09:08Z</time>
      </trkpt>
      <trkpt lat="31.70218450" lon="35.08271210">
        <ele>672.58000</ele>
        <time>2010-01-01T01:09:20Z</time>
      </trkpt>
      <trkpt lat="31.70234210" lon="35.08283240">
        <ele>673.06000</ele>
        <time>2010-01-01T01:09:25Z</time>
      </trkpt>
      <trkpt lat="31.70242180" lon="35.08289650">
        <ele>673.54000</ele>
        <time>2010-01-01T01:09:27Z</time>
      </trkpt>
      <trkpt lat="31.70254670" lon="35.08297830">
        <ele>674.02000</ele>
        <time>2010-01-01T01:09:30Z</time>
      </trkpt>
      <trkpt lat="31.70265830" lon="35.08307430">
        <ele>673.54000</ele>
        <time>2010-01-01T01:09:34Z</time>
      </trkpt>
      <trkpt lat="31.70272300" lon="35.08314590">
        <ele>674.02000</ele>
        <time>2010-01-01T01:09:36Z</time>
      </trkpt>
      <trkpt lat="31.70318150" lon="35.08364480">
        <ele>675.94000</ele>
        <time>2010-01-01T01:09:52Z</time>
      </trkpt>
      <trkpt lat="31.70343270" lon="35.08407140">
        <ele>677.87000</ele>
        <time>2010-01-01T01:10:03Z</time>
      </trkpt>
      <trkpt lat="31.70353160" lon="35.08440030">
        <ele>678.83000</ele>
        <time>2010-01-01T01:10:10Z</time>
      </trkpt>
      <trkpt lat="31.70355860" lon="35.08485630">
        <ele>679.79000</ele>
        <time>2010-01-01T01:10:20Z</time>
      </trkpt>
      <trkpt lat="31.70349170" lon="35.08523270">
        <ele>678.35000</ele>
        <time>2010-01-01T01:10:28Z</time>
      </trkpt>
      <trkpt lat="31.70341380" lon="35.08591290">
        <ele>678.83000</ele>
        <time>2010-01-01T01:10:42Z</time>
      </trkpt>
      <trkpt lat="31.70340980" lon="35.08646610">
        <ele>678.35000</ele>
        <time>2010-01-01T01:10:54Z</time>
      </trkpt>
      <trkpt lat="31.70347390" lon="35.08673930">
        <ele>677.87000</ele>
        <time>2010-01-01T01:11:00Z</time>
      </trkpt>
      <trkpt lat="31.70353610" lon="35.08686050">
        <ele>677.87000</ele>
        <time>2010-01-01T01:11:03Z</time>
      </trkpt>
      <trkpt lat="31.70365050" lon="35.08700230">
        <ele>678.35000</ele>
        <time>2010-01-01T01:11:07Z</time>
      </trkpt>
      <trkpt lat="31.70402780" lon="35.08728770">
        <ele>680.27000</ele>
        <time>2010-01-01T01:11:18Z</time>
      </trkpt>
      <trkpt lat="31.70417880" lon="35.08738980">
        <ele>680.27000</ele>
        <time>2010-01-01T01:11:23Z</time>
      </trkpt>
      <trkpt lat="31.70455950" lon="35.08784530">
        <ele>681.23000</ele>
        <time>2010-01-01T01:11:36Z</time>
      </trkpt>
      <trkpt lat="31.70474710" lon="35.08822670">
        <ele>682.19000</ele>
        <time>2010-01-01T01:11:46Z</time>
      </trkpt>
      <trkpt lat="31.70495520" lon="35.08847510">
        <ele>683.15000</ele>
        <time>2010-01-01T01:11:53Z</time>
      </trkpt>
      <trkpt lat="31.70520580" lon="35.08866200">
        <ele>684.60000</ele>
        <time>2010-01-01T01:12:00Z</time>
      </trkpt>
      <trkpt lat="31.70542960" lon="35.08900550">
        <ele>686.52000</ele>
        <time>2010-01-01T01:12:09Z</time>
      </trkpt>
      <trkpt lat="31.70553880" lon="35.08938530">
        <ele>687.96000</ele>
        <time>2010-01-01T01:12:18Z</time>
      </trkpt>
      <trkpt lat="31.70569910" lon="35.08966130">
        <ele>689.40000</ele>
        <time>2010-01-01T01:12:25Z</time>
      </trkpt>
      <trkpt lat="31.70593830" lon="35.08990230">
        <ele>691.33000</ele>
        <time>2010-01-01T01:12:33Z</time>
      </trkpt>
      <trkpt lat="31.70631930" lon="35.09000780">
        <ele>693.25000</ele>
        <time>2010-01-01T01:12:43Z</time>
      </trkpt>
      <trkpt lat="31.70664890" lon="35.08983620">
        <ele>693.25000</ele>
        <time>2010-01-01T01:12:52Z</time>
      </trkpt>
      <trkpt lat="31.70690740" lon="35.08962350">
        <ele>692.77000</ele>
        <time>2010-01-01T01:12:59Z</time>
      </trkpt>
      <trkpt lat="31.70701830" lon="35.08955100">
        <ele>692.77000</ele>
        <time>2010-01-01T01:13:03Z</time>
      </trkpt>
      <trkpt lat="31.70717890" lon="35.08947170">
        <ele>691.81000</ele>
        <time>2010-01-01T01:13:07Z</time>
      </trkpt>
      <trkpt lat="31.70731360" lon="35.08942870">
        <ele>691.33000</ele>
        <time>2010-01-01T01:13:10Z</time>
      </trkpt>
      <trkpt lat="31.70780110" lon="35.08929080">
        <ele>691.33000</ele>
        <time>2010-01-01T01:13:23Z</time>
      </trkpt>
      <trkpt lat="31.70833330" lon="35.08918010">
        <ele>692.77000</ele>
        <time>2010-01-01T01:13:36Z</time>
      </trkpt>
      <trkpt lat="31.70871800" lon="35.08918140">
        <ele>694.21000</ele>
        <time>2010-01-01T01:13:46Z</time>
      </trkpt>
      <trkpt lat="31.70904010" lon="35.08921410">
        <ele>695.65000</ele>
        <time>2010-01-01T01:13:54Z</time>
      </trkpt>
      <trkpt lat="31.70927580" lon="35.08927640">
        <ele>696.13000</ele>
        <time>2010-01-01T01:14:00Z</time>
      </trkpt>
      <trkpt lat="31.70955180" lon="35.08932240">
        <ele>697.09000</ele>
        <time>2010-01-01T01:14:07Z</time>
      </trkpt>
      <trkpt lat="31.70981040" lon="35.08941590">
        <ele>698.05000</ele>
        <time>2010-01-01T01:14:14Z</time>
      </trkpt>
      <trkpt lat="31.71012840" lon="35.08957640">
        <ele>699.50000</ele>
        <time>2010-01-01T01:14:22Z</time>
      </trkpt>
      <trkpt lat="31.71036930" lon="35.08969840">
        <ele>700.46000</ele>
        <time>2010-01-01T01:14:29Z</time>
      </trkpt>
      <trkpt lat="31.71069930" lon="35.08994250">
        <ele>702.38000</ele>
        <time>2010-01-01T01:14:38Z</time>
      </trkpt>
      <trkpt lat="31.71093520" lon="35.09017360">
        <ele>704.30000</ele>
        <time>2010-01-01T01:14:46Z</time>
      </trkpt>
      <trkpt lat="31.71113730" lon="35.09041290">
        <ele>706.23000</ele>
        <time>2010-01-01T01:14:53Z</time>
      </trkpt>
      <trkpt lat="31.71127110" lon="35.09078440">
        <ele>707.67000</ele>
        <time>2010-01-01T01:15:02Z</time>
      </trkpt>
      <trkpt lat="31.71127570" lon="35.09097680">
        <ele>709.11000</ele>
        <time>2010-01-01T01:15:06Z</time>
      </trkpt>
      <trkpt lat="31.71122870" lon="35.09127770">
        <ele>709.59000</ele>
        <time>2010-01-01T01:15:12Z</time>
      </trkpt>
      <trkpt lat="31.71116260" lon="35.09151040">
        <ele>711.03000</ele>
        <time>2010-01-01T01:15:18Z</time>
      </trkpt>
      <trkpt lat="31.71102360" lon="35.09175400">
        <ele>711.51000</ele>
        <time>2010-01-01T01:15:24Z</time>
      </trkpt>
      <trkpt lat="31.71086810" lon="35.09205110">
        <ele>712.47000</ele>
        <time>2010-01-01T01:15:31Z</time>
      </trkpt>
      <trkpt lat="31.71074470" lon="35.09229080">
        <ele>712.95000</ele>
        <time>2010-01-01T01:15:37Z</time>
      </trkpt>
      <trkpt lat="31.71065420" lon="35.09263210">
        <ele>712.95000</ele>
        <time>2010-01-01T01:15:45Z</time>
      </trkpt>
      <trkpt lat="31.71072990" lon="35.09287100">
        <ele>712.47000</ele>
        <time>2010-01-01T01:15:50Z</time>
      </trkpt>
      <trkpt lat="31.71077140" lon="35.09286800">
        <ele>711.99000</ele>
        <time>2010-01-01T01:15:51Z</time>
      </trkpt>
      <trkpt lat="31.71077320" lon="35.09286910">
        <ele>711.99000</ele>
        <time>2010-01-01T01:15:51Z</time>
      </trkpt>
      <trkpt lat="31.71077610" lon="35.09289820">
        <ele>711.99000</ele>
        <time>2010-01-01T01:15:52Z</time>
      </trkpt>
      <trkpt lat="31.71077830" lon="35.09289750">
        <ele>711.99000</ele>
        <time>2010-01-01T01:15:52Z</time>
      </trkpt>
      <trkpt lat="31.71077790" lon="35.09291310">
        <ele>711.99000</ele>
        <time>2010-01-01T01:15:52Z</time>
      </trkpt>
      <trkpt lat="31.71088300" lon="35.09304860">
        <ele>712.47000</ele>
        <time>2010-01-01T01:15:56Z</time>
      </trkpt>
      <trkpt lat="31.71094010" lon="35.09307140">
        <ele>713.92000</ele>
        <time>2010-01-01T01:15:57Z</time>
      </trkpt>
      <trkpt lat="31.71084690" lon="35.09303120">
        <ele>714.40000</ele>
        <time>2010-01-01T01:16:00Z</time>
      </trkpt>
      <trkpt lat="31.71069450" lon="35.09307750">
        <ele>715.84000</ele>
        <time>2010-01-01T01:16:04Z</time>
      </trkpt>
      <trkpt lat="31.71062620" lon="35.09315380">
        <ele>718.24000</ele>
        <time>2010-01-01T01:16:06Z</time>
      </trkpt>
      <trkpt lat="31.71047710" lon="35.09327580">
        <ele>722.09000</ele>
        <time>2010-01-01T01:16:11Z</time>
      </trkpt>
      <trkpt lat="31.71033980" lon="35.09339670">
        <ele>724.01000</ele>
        <time>2010-01-01T01:16:15Z</time>
      </trkpt>
      <trkpt lat="31.71013280" lon="35.09364150">
        <ele>724.49000</ele>
        <time>2010-01-01T01:16:22Z</time>
      </trkpt>
      <trkpt lat="31.71006040" lon="35.09410600">
        <ele>721.61000</ele>
        <time>2010-01-01T01:16:32Z</time>
      </trkpt>
      <trkpt lat="31.71005240" lon="35.09457150">
        <ele>720.16000</ele>
        <time>2010-01-01T01:16:42Z</time>
      </trkpt>
      <trkpt lat="31.71004610" lon="35.09498920">
        <ele>719.20000</ele>
        <time>2010-01-01T01:16:51Z</time>
      </trkpt>
      <trkpt lat="31.71013350" lon="35.09530560">
        <ele>718.24000</ele>
        <time>2010-01-01T01:16:58Z</time>
      </trkpt>
      <trkpt lat="31.71032890" lon="35.09565220">
        <ele>716.32000</ele>
        <time>2010-01-01T01:17:07Z</time>
      </trkpt>
      <trkpt lat="31.71055840" lon="35.09631100">
        <ele>712.95000</ele>
        <time>2010-01-01T01:17:22Z</time>
      </trkpt>
      <trkpt lat="31.71058890" lon="35.09638460">
        <ele>712.95000</ele>
        <time>2010-01-01T01:17:24Z</time>
      </trkpt>
      <trkpt lat="31.71081820" lon="35.09707880">
        <ele>709.59000</ele>
        <time>2010-01-01T01:17:39Z</time>
      </trkpt>
      <trkpt lat="31.71088630" lon="35.09732210">
        <ele>710.07000</ele>
        <time>2010-01-01T01:17:45Z</time>
      </trkpt>
      <trkpt lat="31.71094170" lon="35.09759040">
        <ele>711.51000</ele>
        <time>2010-01-01T01:17:51Z</time>
      </trkpt>
      <trkpt lat="31.71110890" lon="35.09802280">
        <ele>716.32000</ele>
        <time>2010-01-01T01:18:01Z</time>
      </trkpt>
      <trkpt lat="31.71122760" lon="35.09838390">
        <ele>719.68000</ele>
        <time>2010-01-01T01:18:09Z</time>
      </trkpt>
      <trkpt lat="31.71129910" lon="35.09864860">
        <ele>722.57000</ele>
        <time>2010-01-01T01:18:15Z</time>
      </trkpt>
      <trkpt lat="31.71134130" lon="35.09873710">
        <ele>723.05000</ele>
        <time>2010-01-01T01:18:17Z</time>
      </trkpt>
      <trkpt lat="31.71143870" lon="35.09904530">
        <ele>725.93000</ele>
        <time>2010-01-01T01:18:24Z</time>
      </trkpt>
      <trkpt lat="31.71152520" lon="35.09931660">
        <ele>727.86000</ele>
        <time>2010-01-01T01:18:30Z</time>
      </trkpt>
      <trkpt lat="31.71160900" lon="35.09957660">
        <ele>730.26000</ele>
        <time>2010-01-01T01:18:36Z</time>
      </trkpt>
      <trkpt lat="31.71164150" lon="35.09977770">
        <ele>730.74000</ele>
        <time>2010-01-01T01:18:40Z</time>
      </trkpt>
      <trkpt lat="31.71164040" lon="35.09998120">
        <ele>730.74000</ele>
        <time>2010-01-01T01:18:45Z</time>
      </trkpt>
      <trkpt lat="31.71162540" lon="35.10007810">
        <ele>730.74000</ele>
        <time>2010-01-01T01:18:47Z</time>
      </trkpt>
      <trkpt lat="31.71159040" lon="35.10048050">
        <ele>730.74000</ele>
        <time>2010-01-01T01:18:55Z</time>
      </trkpt>
      <trkpt lat="31.71164240" lon="35.10068610">
        <ele>731.22000</ele>
        <time>2010-01-01T01:19:00Z</time>
      </trkpt>
      <trkpt lat="31.71172490" lon="35.10086550">
        <ele>731.70000</ele>
        <time>2010-01-01T01:19:04Z</time>
      </trkpt>
      <trkpt lat="31.71176610" lon="35.10095350">
        <ele>731.70000</ele>
        <time>2010-01-01T01:19:06Z</time>
      </trkpt>
      <trkpt lat="31.71187150" lon="35.10117760">
        <ele>732.18000</ele>
        <time>2010-01-01T01:19:12Z</time>
      </trkpt>
      <trkpt lat="31.71219370" lon="35.10146990">
        <ele>733.62000</ele>
        <time>2010-01-01T01:19:22Z</time>
      </trkpt>
      <trkpt lat="31.71226020" lon="35.10157450">
        <ele>733.62000</ele>
        <time>2010-01-01T01:19:24Z</time>
      </trkpt>
      <trkpt lat="31.71225990" lon="35.10157450">
        <ele>733.62000</ele>
        <time>2010-01-01T01:19:24Z</time>
      </trkpt>
      <trkpt lat="31.71226090" lon="35.10157550">
        <ele>733.62000</ele>
        <time>2010-01-01T01:19:25Z</time>
      </trkpt>
      <trkpt lat="31.71226070" lon="35.10157150">
        <ele>733.62000</ele>
        <time>2010-01-01T01:19:25Z</time>
      </trkpt>
      <trkpt lat="31.71226290" lon="35.10157220">
        <ele>733.62000</ele>
        <time>2010-01-01T01:19:25Z</time>
      </trkpt>
      <trkpt lat="31.71226350" lon="35.10157550">
        <ele>733.14000</ele>
        <time>2010-01-01T01:19:25Z</time>
      </trkpt>
      <trkpt lat="31.71226160" lon="35.10157730">
        <ele>733.14000</ele>
        <time>2010-01-01T01:19:25Z</time>
      </trkpt>
      <trkpt lat="31.71230640" lon="35.10174330">
        <ele>731.70000</ele>
        <time>2010-01-01T01:19:28Z</time>
      </trkpt>
      <trkpt lat="31.71234970" lon="35.10192520">
        <ele>729.78000</ele>
        <time>2010-01-01T01:19:32Z</time>
      </trkpt>
      <trkpt lat="31.71253020" lon="35.10237760">
        <ele>725.45000</ele>
        <time>2010-01-01T01:19:43Z</time>
      </trkpt>
      <trkpt lat="31.71279570" lon="35.10264960">
        <ele>723.53000</ele>
        <time>2010-01-01T01:19:52Z</time>
      </trkpt>
      <trkpt lat="31.71331110" lon="35.10294720">
        <ele>722.09000</ele>
        <time>2010-01-01T01:20:06Z</time>
      </trkpt>
      <trkpt lat="31.71355380" lon="35.10299490">
        <ele>720.65000</ele>
        <time>2010-01-01T01:20:12Z</time>
      </trkpt>
      <trkpt lat="31.71401460" lon="35.10297310">
        <ele>718.72000</ele>
        <time>2010-01-01T01:20:24Z</time>
      </trkpt>
      <trkpt lat="31.71421230" lon="35.10298510">
        <ele>717.28000</ele>
        <time>2010-01-01T01:20:29Z</time>
      </trkpt>
      <trkpt lat="31.71447910" lon="35.10299940">
        <ele>716.80000</ele>
        <time>2010-01-01T01:20:35Z</time>
      </trkpt>
      <trkpt lat="31.71471430" lon="35.10306070">
        <ele>716.80000</ele>
        <time>2010-01-01T01:20:41Z</time>
      </trkpt>
      <trkpt lat="31.71520270" lon="35.10329040">
        <ele>717.28000</ele>
        <time>2010-01-01T01:20:54Z</time>
      </trkpt>
      <trkpt lat="31.71525830" lon="35.10332280">
        <ele>717.28000</ele>
        <time>2010-01-01T01:20:56Z</time>
      </trkpt>
      <trkpt lat="31.71590950" lon="35.10359670">
        <ele>715.36000</ele>
        <time>2010-01-01T01:21:13Z</time>
      </trkpt>
      <trkpt lat="31.71607000" lon="35.10364050">
        <ele>714.88000</ele>
        <time>2010-01-01T01:21:17Z</time>
      </trkpt>
      <trkpt lat="31.71623880" lon="35.10353220">
        <ele>715.84000</ele>
        <time>2010-01-01T01:21:22Z</time>
      </trkpt>
      <trkpt lat="31.71632060" lon="35.10331600">
        <ele>717.76000</ele>
        <time>2010-01-01T01:21:27Z</time>
      </trkpt>
      <trkpt lat="31.71643030" lon="35.10307850">
        <ele>720.65000</ele>
        <time>2010-01-01T01:21:33Z</time>
      </trkpt>
      <trkpt lat="31.71656620" lon="35.10280770">
        <ele>723.05000</ele>
        <time>2010-01-01T01:21:39Z</time>
      </trkpt>
      <trkpt lat="31.71667600" lon="35.10265600">
        <ele>727.37000</ele>
        <time>2010-01-01T01:21:44Z</time>
      </trkpt>
      <trkpt lat="31.71678270" lon="35.10260280">
        <ele>730.26000</ele>
        <time>2010-01-01T01:21:46Z</time>
      </trkpt>
      <trkpt lat="31.71687550" lon="35.10261200">
        <ele>732.18000</ele>
        <time>2010-01-01T01:21:49Z</time>
      </trkpt>
      <trkpt lat="31.71689160" lon="35.10261940">
        <ele>732.18000</ele>
        <time>2010-01-01T01:21:49Z</time>
      </trkpt>
      <trkpt lat="31.71704070" lon="35.10264390">
        <ele>735.55000</ele>
        <time>2010-01-01T01:21:53Z</time>
      </trkpt>
      <trkpt lat="31.71711940" lon="35.10265080">
        <ele>736.51000</ele>
        <time>2010-01-01T01:21:55Z</time>
      </trkpt>
      <trkpt lat="31.71719710" lon="35.10264760">
        <ele>736.51000</ele>
        <time>2010-01-01T01:21:57Z</time>
      </trkpt>
      <trkpt lat="31.71744010" lon="35.10271990">
        <ele>735.55000</ele>
        <time>2010-01-01T01:22:03Z</time>
      </trkpt>
      <trkpt lat="31.71752040" lon="35.10274780">
        <ele>735.55000</ele>
        <time>2010-01-01T01:22:05Z</time>
      </trkpt>
      <trkpt lat="31.71775030" lon="35.10289700">
        <ele>734.58000</ele>
        <time>2010-01-01T01:22:12Z</time>
      </trkpt>
      <trkpt lat="31.71792120" lon="35.10300970">
        <ele>734.10000</ele>
        <time>2010-01-01T01:22:17Z</time>
      </trkpt>
      <trkpt lat="31.71818700" lon="35.10315540">
        <ele>734.10000</ele>
        <time>2010-01-01T01:22:24Z</time>
      </trkpt>
      <trkpt lat="31.71855210" lon="35.10360580">
        <ele>736.03000</ele>
        <time>2010-01-01T01:22:37Z</time>
      </trkpt>
      <trkpt lat="31.71883740" lon="35.10398760">
        <ele>738.91000</ele>
        <time>2010-01-01T01:22:48Z</time>
      </trkpt>
      <trkpt lat="31.71909670" lon="35.10428340">
        <ele>739.87000</ele>
        <time>2010-01-01T01:22:57Z</time>
      </trkpt>
      <trkpt lat="31.71906720" lon="35.10453990">
        <ele>739.39000</ele>
        <time>2010-01-01T01:23:02Z</time>
      </trkpt>
      <trkpt lat="31.71897640" lon="35.10475100">
        <ele>738.91000</ele>
        <time>2010-01-01T01:23:07Z</time>
      </trkpt>
      <trkpt lat="31.71898910" lon="35.10502500">
        <ele>738.91000</ele>
        <time>2010-01-01T01:23:13Z</time>
      </trkpt>
      <trkpt lat="31.71894670" lon="35.10514100">
        <ele>738.91000</ele>
        <time>2010-01-01T01:23:16Z</time>
      </trkpt>
      <trkpt lat="31.71854270" lon="35.10603340">
        <ele>737.95000</ele>
        <time>2010-01-01T01:23:37Z</time>
      </trkpt>
      <trkpt lat="31.71840970" lon="35.10672360">
        <ele>737.47000</ele>
        <time>2010-01-01T01:23:52Z</time>
      </trkpt>
      <trkpt lat="31.71853010" lon="35.10759260">
        <ele>738.91000</ele>
        <time>2010-01-01T01:24:11Z</time>
      </trkpt>
      <trkpt lat="31.71878370" lon="35.10822680">
        <ele>740.35000</ele>
        <time>2010-01-01T01:24:26Z</time>
      </trkpt>
      <trkpt lat="31.71904340" lon="35.10898900">
        <ele>741.31000</ele>
        <time>2010-01-01T01:24:43Z</time>
      </trkpt>
      <trkpt lat="31.71908210" lon="35.10916640">
        <ele>741.31000</ele>
        <time>2010-01-01T01:24:47Z</time>
      </trkpt>
      <trkpt lat="31.71926900" lon="35.10943930">
        <ele>743.24000</ele>
        <time>2010-01-01T01:24:54Z</time>
      </trkpt>
      <trkpt lat="31.71929320" lon="35.10956400">
        <ele>744.68000</ele>
        <time>2010-01-01T01:24:57Z</time>
      </trkpt>
      <trkpt lat="31.71938060" lon="35.10993850">
        <ele>749.49000</ele>
        <time>2010-01-01T01:25:05Z</time>
      </trkpt>
      <trkpt lat="31.71949050" lon="35.11021280">
        <ele>752.85000</ele>
        <time>2010-01-01T01:25:12Z</time>
      </trkpt>
      <trkpt lat="31.71962670" lon="35.11053370">
        <ele>755.73000</ele>
        <time>2010-01-01T01:25:19Z</time>
      </trkpt>
      <trkpt lat="31.71976530" lon="35.11071600">
        <ele>758.14000</ele>
        <time>2010-01-01T01:25:24Z</time>
      </trkpt>
      <trkpt lat="31.71978840" lon="35.11074380">
        <ele>757.66000</ele>
        <time>2010-01-01T01:25:25Z</time>
      </trkpt>
      <trkpt lat="31.71989760" lon="35.11080110">
        <ele>757.66000</ele>
        <time>2010-01-01T01:25:28Z</time>
      </trkpt>
      <trkpt lat="31.72005400" lon="35.11096730">
        <ele>756.69000</ele>
        <time>2010-01-01T01:25:33Z</time>
      </trkpt>
      <trkpt lat="31.72012270" lon="35.11129420">
        <ele>750.93000</ele>
        <time>2010-01-01T01:25:41Z</time>
      </trkpt>
      <trkpt lat="31.72012940" lon="35.11152790">
        <ele>746.60000</ele>
        <time>2010-01-01T01:25:45Z</time>
      </trkpt>
      <trkpt lat="31.72031660" lon="35.11149750">
        <ele>741.79000</ele>
        <time>2010-01-01T01:25:50Z</time>
      </trkpt>
      <trkpt lat="31.72047570" lon="35.11135260">
        <ele>738.43000</ele>
        <time>2010-01-01T01:25:55Z</time>
      </trkpt>
      <trkpt lat="31.72059610" lon="35.11121420">
        <ele>736.51000</ele>
        <time>2010-01-01T01:25:59Z</time>
      </trkpt>
      <trkpt lat="31.72080480" lon="35.11106520">
        <ele>735.07000</ele>
        <time>2010-01-01T01:26:05Z</time>
      </trkpt>
      <trkpt lat="31.72104870" lon="35.11104570">
        <ele>733.62000</ele>
        <time>2010-01-01T01:26:12Z</time>
      </trkpt>
      <trkpt lat="31.72173100" lon="35.11127440">
        <ele>728.34000</ele>
        <time>2010-01-01T01:26:29Z</time>
      </trkpt>
      <trkpt lat="31.72190390" lon="35.11135710">
        <ele>727.37000</ele>
        <time>2010-01-01T01:26:34Z</time>
      </trkpt>
      <trkpt lat="31.72214980" lon="35.11174500">
        <ele>727.37000</ele>
        <time>2010-01-01T01:26:44Z</time>
      </trkpt>
      <trkpt lat="31.72219280" lon="35.11201120">
        <ele>726.89000</ele>
        <time>2010-01-01T01:26:50Z</time>
      </trkpt>
      <trkpt lat="31.72216830" lon="35.11234460">
        <ele>726.89000</ele>
        <time>2010-01-01T01:26:57Z</time>
      </trkpt>
      <trkpt lat="31.72195570" lon="35.11312390">
        <ele>725.93000</ele>
        <time>2010-01-01T01:27:14Z</time>
      </trkpt>
      <trkpt lat="31.72178950" lon="35.11382370">
        <ele>722.57000</ele>
        <time>2010-01-01T01:27:30Z</time>
      </trkpt>
      <trkpt lat="31.72196610" lon="35.11412540">
        <ele>719.68000</ele>
        <time>2010-01-01T01:27:37Z</time>
      </trkpt>
      <trkpt lat="31.72276210" lon="35.11463730">
        <ele>713.44000</ele>
        <time>2010-01-01T01:28:00Z</time>
      </trkpt>
      <trkpt lat="31.72328170" lon="35.11485920">
        <ele>711.99000</ele>
        <time>2010-01-01T01:28:14Z</time>
      </trkpt>
      <trkpt lat="31.72419500" lon="35.11541800">
        <ele>703.34000</ele>
        <time>2010-01-01T01:28:39Z</time>
      </trkpt>
      <trkpt lat="31.72427790" lon="35.11547220">
        <ele>702.38000</ele>
        <time>2010-01-01T01:28:42Z</time>
      </trkpt>
      <trkpt lat="31.72479150" lon="35.11604680">
        <ele>697.57000</ele>
        <time>2010-01-01T01:28:59Z</time>
      </trkpt>
      <trkpt lat="31.72501540" lon="35.11628440">
        <ele>696.13000</ele>
        <time>2010-01-01T01:29:07Z</time>
      </trkpt>
      <trkpt lat="31.72532800" lon="35.11654870">
        <ele>692.77000</ele>
        <time>2010-01-01T01:29:16Z</time>
      </trkpt>
      <trkpt lat="31.72538440" lon="35.11663320">
        <ele>692.29000</ele>
        <time>2010-01-01T01:29:19Z</time>
      </trkpt>
      <trkpt lat="31.72543480" lon="35.11686140">
        <ele>689.88000</ele>
        <time>2010-01-01T01:29:24Z</time>
      </trkpt>
      <trkpt lat="31.72543320" lon="35.11692310">
        <ele>689.40000</ele>
        <time>2010-01-01T01:29:25Z</time>
      </trkpt>
      <trkpt lat="31.72527950" lon="35.11705950">
        <ele>687.96000</ele>
        <time>2010-01-01T01:29:30Z</time>
      </trkpt>
      <trkpt lat="31.72499740" lon="35.11722270">
        <ele>687.48000</ele>
        <time>2010-01-01T01:29:38Z</time>
      </trkpt>
      <trkpt lat="31.72496130" lon="35.11736660">
        <ele>687.48000</ele>
        <time>2010-01-01T01:29:41Z</time>
      </trkpt>
      <trkpt lat="31.72496740" lon="35.11756460">
        <ele>687.48000</ele>
        <time>2010-01-01T01:29:45Z</time>
      </trkpt>
      <trkpt lat="31.72516570" lon="35.11785190">
        <ele>687.48000</ele>
        <time>2010-01-01T01:29:53Z</time>
      </trkpt>
      <trkpt lat="31.72549570" lon="35.11800380">
        <ele>686.52000</ele>
        <time>2010-01-01T01:30:02Z</time>
      </trkpt>
      <trkpt lat="31.72575440" lon="35.11795800">
        <ele>685.56000</ele>
        <time>2010-01-01T01:30:08Z</time>
      </trkpt>
      <trkpt lat="31.72576850" lon="35.11785430">
        <ele>685.56000</ele>
        <time>2010-01-01T01:30:10Z</time>
      </trkpt>
      <trkpt lat="31.72567700" lon="35.11776920">
        <ele>686.04000</ele>
        <time>2010-01-01T01:30:13Z</time>
      </trkpt>
      <trkpt lat="31.72562760" lon="35.11759130">
        <ele>685.56000</ele>
        <time>2010-01-01T01:30:17Z</time>
      </trkpt>
      <trkpt lat="31.72565120" lon="35.11731620">
        <ele>686.52000</ele>
        <time>2010-01-01T01:30:23Z</time>
      </trkpt>
      <trkpt lat="31.72579510" lon="35.11710150">
        <ele>687.48000</ele>
        <time>2010-01-01T01:30:29Z</time>
      </trkpt>
      <trkpt lat="31.72596320" lon="35.11703990">
        <ele>688.44000</ele>
        <time>2010-01-01T01:30:33Z</time>
      </trkpt>
      <trkpt lat="31.72621770" lon="35.11706940">
        <ele>688.44000</ele>
        <time>2010-01-01T01:30:40Z</time>
      </trkpt>
      <trkpt lat="31.72634910" lon="35.11703420">
        <ele>688.44000</ele>
        <time>2010-01-01T01:30:43Z</time>
      </trkpt>
      <trkpt lat="31.72666870" lon="35.11696220">
        <ele>690.84000</ele>
        <time>2010-01-01T01:30:51Z</time>
      </trkpt>
      <trkpt lat="31.72680680" lon="35.11688900">
        <ele>692.77000</ele>
        <time>2010-01-01T01:30:55Z</time>
      </trkpt>
      <trkpt lat="31.72691140" lon="35.11683010">
        <ele>694.69000</ele>
        <time>2010-01-01T01:30:58Z</time>
      </trkpt>
      <trkpt lat="31.72722200" lon="35.11671780">
        <ele>698.05000</ele>
        <time>2010-01-01T01:31:06Z</time>
      </trkpt>
      <trkpt lat="31.72746890" lon="35.11661370">
        <ele>699.50000</ele>
        <time>2010-01-01T01:31:12Z</time>
      </trkpt>
      <trkpt lat="31.72775610" lon="35.11649090">
        <ele>699.98000</ele>
        <time>2010-01-01T01:31:20Z</time>
      </trkpt>
      <trkpt lat="31.72809230" lon="35.11636180">
        <ele>701.42000</ele>
        <time>2010-01-01T01:31:29Z</time>
      </trkpt>
      <trkpt lat="31.72820020" lon="35.11631350">
        <ele>701.42000</ele>
        <time>2010-01-01T01:31:32Z</time>
      </trkpt>
      <trkpt lat="31.72865980" lon="35.11617260">
        <ele>701.90000</ele>
        <time>2010-01-01T01:31:43Z</time>
      </trkpt>
      <trkpt lat="31.72878490" lon="35.11612990">
        <ele>701.90000</ele>
        <time>2010-01-01T01:31:47Z</time>
      </trkpt>
      <trkpt lat="31.72940690" lon="35.11595870">
        <ele>702.38000</ele>
        <time>2010-01-01T01:32:02Z</time>
      </trkpt>
      <trkpt lat="31.72992870" lon="35.11579800">
        <ele>702.86000</ele>
        <time>2010-01-01T01:32:16Z</time>
      </trkpt>
      <trkpt lat="31.73041700" lon="35.11570840">
        <ele>704.78000</ele>
        <time>2010-01-01T01:32:28Z</time>
      </trkpt>
      <trkpt lat="31.73045650" lon="35.11569950">
        <ele>704.78000</ele>
        <time>2010-01-01T01:32:29Z</time>
      </trkpt>
      <trkpt lat="31.73059920" lon="35.11561720">
        <ele>705.75000</ele>
        <time>2010-01-01T01:32:33Z</time>
      </trkpt>
      <trkpt lat="31.73096090" lon="35.11534630">
        <ele>707.19000</ele>
        <time>2010-01-01T01:32:44Z</time>
      </trkpt>
      <trkpt lat="31.73115280" lon="35.11519240">
        <ele>706.71000</ele>
        <time>2010-01-01T01:32:50Z</time>
      </trkpt>
      <trkpt lat="31.73136160" lon="35.11490220">
        <ele>705.75000</ele>
        <time>2010-01-01T01:32:58Z</time>
      </trkpt>
      <trkpt lat="31.73141670" lon="35.11480960">
        <ele>706.23000</ele>
        <time>2010-01-01T01:33:00Z</time>
      </trkpt>
      <trkpt lat="31.73165480" lon="35.11432520">
        <ele>704.30000</ele>
        <time>2010-01-01T01:33:12Z</time>
      </trkpt>
      <trkpt lat="31.73177550" lon="35.11413740">
        <ele>702.86000</ele>
        <time>2010-01-01T01:33:17Z</time>
      </trkpt>
      <trkpt lat="31.73184660" lon="35.11369550">
        <ele>701.42000</ele>
        <time>2010-01-01T01:33:26Z</time>
      </trkpt>
      <trkpt lat="31.73158860" lon="35.11342400">
        <ele>700.46000</ele>
        <time>2010-01-01T01:33:35Z</time>
      </trkpt>
      <trkpt lat="31.73152800" lon="35.11339770">
        <ele>700.46000</ele>
        <time>2010-01-01T01:33:37Z</time>
      </trkpt>
      <trkpt lat="31.73086350" lon="35.11317230">
        <ele>700.94000</ele>
        <time>2010-01-01T01:33:54Z</time>
      </trkpt>
      <trkpt lat="31.73080770" lon="35.11315200">
        <ele>700.46000</ele>
        <time>2010-01-01T01:33:55Z</time>
      </trkpt>
      <trkpt lat="31.73051370" lon="35.11301770">
        <ele>699.02000</ele>
        <time>2010-01-01T01:34:03Z</time>
      </trkpt>
      <trkpt lat="31.72999690" lon="35.11293340">
        <ele>697.09000</ele>
        <time>2010-01-01T01:34:16Z</time>
      </trkpt>
      <trkpt lat="31.72983400" lon="35.11269620">
        <ele>696.61000</ele>
        <time>2010-01-01T01:34:22Z</time>
      </trkpt>
      <trkpt lat="31.72992910" lon="35.11252070">
        <ele>697.57000</ele>
        <time>2010-01-01T01:34:27Z</time>
      </trkpt>
      <trkpt lat="31.73041410" lon="35.11210520">
        <ele>699.50000</ele>
        <time>2010-01-01T01:34:42Z</time>
      </trkpt>
      <trkpt lat="31.73078990" lon="35.11177410">
        <ele>697.57000</ele>
        <time>2010-01-01T01:34:54Z</time>
      </trkpt>
      <trkpt lat="31.73111400" lon="35.11119570">
        <ele>697.09000</ele>
        <time>2010-01-01T01:35:08Z</time>
      </trkpt>
      <trkpt lat="31.73132240" lon="35.11064980">
        <ele>698.05000</ele>
        <time>2010-01-01T01:35:21Z</time>
      </trkpt>
      <trkpt lat="31.73136870" lon="35.11044390">
        <ele>698.53000</ele>
        <time>2010-01-01T01:35:25Z</time>
      </trkpt>
      <trkpt lat="31.73132450" lon="35.11017010">
        <ele>698.05000</ele>
        <time>2010-01-01T01:35:31Z</time>
      </trkpt>
      <trkpt lat="31.73082960" lon="35.10961220">
        <ele>698.05000</ele>
        <time>2010-01-01T01:35:48Z</time>
      </trkpt>
      <trkpt lat="31.73061650" lon="35.10940100">
        <ele>699.02000</ele>
        <time>2010-01-01T01:35:55Z</time>
      </trkpt>
      <trkpt lat="31.73030860" lon="35.10910430">
        <ele>700.46000</ele>
        <time>2010-01-01T01:36:05Z</time>
      </trkpt>
      <trkpt lat="31.73029610" lon="35.10877230">
        <ele>703.34000</ele>
        <time>2010-01-01T01:36:12Z</time>
      </trkpt>
      <trkpt lat="31.73045360" lon="35.10836680">
        <ele>705.26000</ele>
        <time>2010-01-01T01:36:22Z</time>
      </trkpt>
      <trkpt lat="31.73057680" lon="35.10804390">
        <ele>708.15000</ele>
        <time>2010-01-01T01:36:29Z</time>
      </trkpt>
      <trkpt lat="31.73080150" lon="35.10781800">
        <ele>711.03000</ele>
        <time>2010-01-01T01:36:36Z</time>
      </trkpt>
      <trkpt lat="31.73101230" lon="35.10765600">
        <ele>711.03000</ele>
        <time>2010-01-01T01:36:43Z</time>
      </trkpt>
      <trkpt lat="31.73123080" lon="35.10756320">
        <ele>711.51000</ele>
        <time>2010-01-01T01:36:48Z</time>
      </trkpt>
      <trkpt lat="31.73142980" lon="35.10747560">
        <ele>711.51000</ele>
        <time>2010-01-01T01:36:54Z</time>
      </trkpt>
      <trkpt lat="31.73175340" lon="35.10738450">
        <ele>711.51000</ele>
        <time>2010-01-01T01:37:02Z</time>
      </trkpt>
      <trkpt lat="31.73210940" lon="35.10722930">
        <ele>712.47000</ele>
        <time>2010-01-01T01:37:11Z</time>
      </trkpt>
      <trkpt lat="31.73238550" lon="35.10702740">
        <ele>712.47000</ele>
        <time>2010-01-01T01:37:20Z</time>
      </trkpt>
      <trkpt lat="31.73264270" lon="35.10672950">
        <ele>712.47000</ele>
        <time>2010-01-01T01:37:29Z</time>
      </trkpt>
      <trkpt lat="31.73274940" lon="35.10653410">
        <ele>711.03000</ele>
        <time>2010-01-01T01:37:33Z</time>
      </trkpt>
      <trkpt lat="31.73285030" lon="35.10628710">
        <ele>710.07000</ele>
        <time>2010-01-01T01:37:39Z</time>
      </trkpt>
      <trkpt lat="31.73297410" lon="35.10578340">
        <ele>710.07000</ele>
        <time>2010-01-01T01:37:50Z</time>
      </trkpt>
      <trkpt lat="31.73326430" lon="35.10520580">
        <ele>708.15000</ele>
        <time>2010-01-01T01:38:05Z</time>
      </trkpt>
      <trkpt lat="31.73331180" lon="35.10509420">
        <ele>708.15000</ele>
        <time>2010-01-01T01:38:07Z</time>
      </trkpt>
      <trkpt lat="31.73339710" lon="35.10462970">
        <ele>710.55000</ele>
        <time>2010-01-01T01:38:17Z</time>
      </trkpt>
      <trkpt lat="31.73346720" lon="35.10454630">
        <ele>711.03000</ele>
        <time>2010-01-01T01:38:20Z</time>
      </trkpt>
      <trkpt lat="31.73353640" lon="35.10450210">
        <ele>711.03000</ele>
        <time>2010-01-01T01:38:22Z</time>
      </trkpt>
      <trkpt lat="31.73397160" lon="35.10449170">
        <ele>711.03000</ele>
        <time>2010-01-01T01:38:33Z</time>
      </trkpt>
      <trkpt lat="31.73401480" lon="35.10449820">
        <ele>711.03000</ele>
        <time>2010-01-01T01:38:34Z</time>
      </trkpt>
      <trkpt lat="31.73410090" lon="35.10452190">
        <ele>711.03000</ele>
        <time>2010-01-01T01:38:36Z</time>
      </trkpt>
      <trkpt lat="31.73429810" lon="35.10458510">
        <ele>711.03000</ele>
        <time>2010-01-01T01:38:41Z</time>
      </trkpt>
      <trkpt lat="31.73455080" lon="35.10467580">
        <ele>711.03000</ele>
        <time>2010-01-01T01:38:47Z</time>
      </trkpt>
      <trkpt lat="31.73484190" lon="35.10471880">
        <ele>711.03000</ele>
        <time>2010-01-01T01:38:55Z</time>
      </trkpt>
      <trkpt lat="31.73509550" lon="35.10465240">
        <ele>711.51000</ele>
        <time>2010-01-01T01:39:01Z</time>
      </trkpt>
      <trkpt lat="31.73533520" lon="35.10453940">
        <ele>712.47000</ele>
        <time>2010-01-01T01:39:08Z</time>
      </trkpt>
      <trkpt lat="31.73552970" lon="35.10447790">
        <ele>712.47000</ele>
        <time>2010-01-01T01:39:13Z</time>
      </trkpt>
      <trkpt lat="31.73567200" lon="35.10438910">
        <ele>711.03000</ele>
        <time>2010-01-01T01:39:17Z</time>
      </trkpt>
      <trkpt lat="31.73602510" lon="35.10421760">
        <ele>707.67000</ele>
        <time>2010-01-01T01:39:26Z</time>
      </trkpt>
      <trkpt lat="31.73626130" lon="35.10401590">
        <ele>704.30000</ele>
        <time>2010-01-01T01:39:33Z</time>
      </trkpt>
      <trkpt lat="31.73636340" lon="35.10392090">
        <ele>703.34000</ele>
        <time>2010-01-01T01:39:37Z</time>
      </trkpt>
      <trkpt lat="31.73655540" lon="35.10365380">
        <ele>702.38000</ele>
        <time>2010-01-01T01:39:44Z</time>
      </trkpt>
      <trkpt lat="31.73672050" lon="35.10330520">
        <ele>701.42000</ele>
        <time>2010-01-01T01:39:53Z</time>
      </trkpt>
      <trkpt lat="31.73673430" lon="35.10317570">
        <ele>701.42000</ele>
        <time>2010-01-01T01:39:55Z</time>
      </trkpt>
      <trkpt lat="31.73672670" lon="35.10276040">
        <ele>701.90000</ele>
        <time>2010-01-01T01:40:04Z</time>
      </trkpt>
      <trkpt lat="31.73671470" lon="35.10258160">
        <ele>701.90000</ele>
        <time>2010-01-01T01:40:08Z</time>
      </trkpt>
      <trkpt lat="31.73674430" lon="35.10211070">
        <ele>699.02000</ele>
        <time>2010-01-01T01:40:18Z</time>
      </trkpt>
      <trkpt lat="31.73653850" lon="35.10098710">
        <ele>693.73000</ele>
        <time>2010-01-01T01:40:42Z</time>
      </trkpt>
      <trkpt lat="31.73648400" lon="35.10078120">
        <ele>692.77000</ele>
        <time>2010-01-01T01:40:47Z</time>
      </trkpt>
      <trkpt lat="31.73626030" lon="35.10018540">
        <ele>690.36000</ele>
        <time>2010-01-01T01:41:01Z</time>
      </trkpt>
      <trkpt lat="31.73614990" lon="35.09982450">
        <ele>689.40000</ele>
        <time>2010-01-01T01:41:09Z</time>
      </trkpt>
      <trkpt lat="31.73601190" lon="35.09922250">
        <ele>688.44000</ele>
        <time>2010-01-01T01:41:22Z</time>
      </trkpt>
      <trkpt lat="31.73599430" lon="35.09876220">
        <ele>687.00000</ele>
        <time>2010-01-01T01:41:32Z</time>
      </trkpt>
      <trkpt lat="31.73603980" lon="35.09845500">
        <ele>683.63000</ele>
        <time>2010-01-01T01:41:38Z</time>
      </trkpt>
      <trkpt lat="31.73596400" lon="35.09767180">
        <ele>678.35000</ele>
        <time>2010-01-01T01:41:55Z</time>
      </trkpt>
      <trkpt lat="31.73580440" lon="35.09709650">
        <ele>676.42000</ele>
        <time>2010-01-01T01:42:08Z</time>
      </trkpt>
      <trkpt lat="31.73566370" lon="35.09673680">
        <ele>674.50000</ele>
        <time>2010-01-01T01:42:16Z</time>
      </trkpt>
      <trkpt lat="31.73557050" lon="35.09649740">
        <ele>673.54000</ele>
        <time>2010-01-01T01:42:22Z</time>
      </trkpt>
      <trkpt lat="31.73556170" lon="35.09634930">
        <ele>673.54000</ele>
        <time>2010-01-01T01:42:25Z</time>
      </trkpt>
      <trkpt lat="31.73555910" lon="35.09631850">
        <ele>673.06000</ele>
        <time>2010-01-01T01:42:25Z</time>
      </trkpt>
      <trkpt lat="31.73544730" lon="35.09608280">
        <ele>671.62000</ele>
        <time>2010-01-01T01:42:31Z</time>
      </trkpt>
      <trkpt lat="31.73558440" lon="35.09597550">
        <ele>669.22000</ele>
        <time>2010-01-01T01:42:35Z</time>
      </trkpt>
      <trkpt lat="31.73564090" lon="35.09603750">
        <ele>668.73000</ele>
        <time>2010-01-01T01:42:37Z</time>
      </trkpt>
      <trkpt lat="31.73578570" lon="35.09630950">
        <ele>667.29000</ele>
        <time>2010-01-01T01:42:44Z</time>
      </trkpt>
      <trkpt lat="31.73593330" lon="35.09627840">
        <ele>666.33000</ele>
        <time>2010-01-01T01:42:48Z</time>
      </trkpt>
      <trkpt lat="31.73597670" lon="35.09613640">
        <ele>664.89000</ele>
        <time>2010-01-01T01:42:51Z</time>
      </trkpt>
      <trkpt lat="31.73595510" lon="35.09592260">
        <ele>663.93000</ele>
        <time>2010-01-01T01:42:55Z</time>
      </trkpt>
      <trkpt lat="31.73591670" lon="35.09581320">
        <ele>663.45000</ele>
        <time>2010-01-01T01:42:58Z</time>
      </trkpt>
      <trkpt lat="31.73582870" lon="35.09566190">
        <ele>662.97000</ele>
        <time>2010-01-01T01:43:02Z</time>
      </trkpt>
      <trkpt lat="31.73570620" lon="35.09557050">
        <ele>662.97000</ele>
        <time>2010-01-01T01:43:05Z</time>
      </trkpt>
      <trkpt lat="31.73540860" lon="35.09549250">
        <ele>661.52000</ele>
        <time>2010-01-01T01:43:13Z</time>
      </trkpt>
      <trkpt lat="31.73514030" lon="35.09546450">
        <ele>659.12000</ele>
        <time>2010-01-01T01:43:20Z</time>
      </trkpt>
      <trkpt lat="31.73485010" lon="35.09554200">
        <ele>657.68000</ele>
        <time>2010-01-01T01:43:27Z</time>
      </trkpt>
      <trkpt lat="31.73471790" lon="35.09569650">
        <ele>657.68000</ele>
        <time>2010-01-01T01:43:32Z</time>
      </trkpt>
      <trkpt lat="31.73462720" lon="35.09597670">
        <ele>658.16000</ele>
        <time>2010-01-01T01:43:38Z</time>
      </trkpt>
      <trkpt lat="31.73449460" lon="35.09623200">
        <ele>658.64000</ele>
        <time>2010-01-01T01:43:44Z</time>
      </trkpt>
      <trkpt lat="31.73429280" lon="35.09647990">
        <ele>659.12000</ele>
        <time>2010-01-01T01:43:52Z</time>
      </trkpt>
      <trkpt lat="31.73407240" lon="35.09684660">
        <ele>659.60000</ele>
        <time>2010-01-01T01:44:01Z</time>
      </trkpt>
      <trkpt lat="31.73383090" lon="35.09720730">
        <ele>662.01000</ele>
        <time>2010-01-01T01:44:11Z</time>
      </trkpt>
      <trkpt lat="31.73357500" lon="35.09749470">
        <ele>663.45000</ele>
        <time>2010-01-01T01:44:20Z</time>
      </trkpt>
      <trkpt lat="31.73322860" lon="35.09782070">
        <ele>664.89000</ele>
        <time>2010-01-01T01:44:31Z</time>
      </trkpt>
      <trkpt lat="31.73296840" lon="35.09802000">
        <ele>666.33000</ele>
        <time>2010-01-01T01:44:38Z</time>
      </trkpt>
      <trkpt lat="31.73268230" lon="35.09827010">
        <ele>666.81000</ele>
        <time>2010-01-01T01:44:47Z</time>
      </trkpt>
      <trkpt lat="31.73243770" lon="35.09841970">
        <ele>667.77000</ele>
        <time>2010-01-01T01:44:54Z</time>
      </trkpt>
      <trkpt lat="31.73236480" lon="35.09848260">
        <ele>667.77000</ele>
        <time>2010-01-01T01:44:56Z</time>
      </trkpt>
      <trkpt lat="31.73230290" lon="35.09856490">
        <ele>668.25000</ele>
        <time>2010-01-01T01:44:59Z</time>
      </trkpt>
      <trkpt lat="31.73219380" lon="35.09877540">
        <ele>667.77000</ele>
        <time>2010-01-01T01:45:04Z</time>
      </trkpt>
      <trkpt lat="31.73195070" lon="35.09926550">
        <ele>668.25000</ele>
        <time>2010-01-01T01:45:16Z</time>
      </trkpt>
      <trkpt lat="31.73184670" lon="35.09952780">
        <ele>668.25000</ele>
        <time>2010-01-01T01:45:22Z</time>
      </trkpt>
      <trkpt lat="31.73158200" lon="35.09936250">
        <ele>665.37000</ele>
        <time>2010-01-01T01:45:30Z</time>
      </trkpt>
      <trkpt lat="31.73098810" lon="35.09872590">
        <ele>655.76000</ele>
        <time>2010-01-01T01:45:50Z</time>
      </trkpt>
      <trkpt lat="31.73078290" lon="35.09856220">
        <ele>654.80000</ele>
        <time>2010-01-01T01:45:56Z</time>
      </trkpt>
      <trkpt lat="31.73041080" lon="35.09819920">
        <ele>659.60000</ele>
        <time>2010-01-01T01:46:08Z</time>
      </trkpt>
      <trkpt lat="31.73017880" lon="35.09800020">
        <ele>664.89000</ele>
        <time>2010-01-01T01:46:15Z</time>
      </trkpt>
      <trkpt lat="31.73010230" lon="35.09792890">
        <ele>666.33000</ele>
        <time>2010-01-01T01:46:17Z</time>
      </trkpt>
      <trkpt lat="31.72998760" lon="35.09774770">
        <ele>670.66000</ele>
        <time>2010-01-01T01:46:22Z</time>
      </trkpt>
      <trkpt lat="31.72996150" lon="35.09769460">
        <ele>671.62000</ele>
        <time>2010-01-01T01:46:23Z</time>
      </trkpt>
      <trkpt lat="31.72989400" lon="35.09755890">
        <ele>674.98000</ele>
        <time>2010-01-01T01:46:27Z</time>
      </trkpt>
      <trkpt lat="31.72988780" lon="35.09741820">
        <ele>676.91000</ele>
        <time>2010-01-01T01:46:30Z</time>
      </trkpt>
      <trkpt lat="31.72991000" lon="35.09736790">
        <ele>676.91000</ele>
        <time>2010-01-01T01:46:31Z</time>
      </trkpt>
      <trkpt lat="31.73011110" lon="35.09711700">
        <ele>676.91000</ele>
        <time>2010-01-01T01:46:38Z</time>
      </trkpt>
      <trkpt lat="31.73045460" lon="35.09696970">
        <ele>677.39000</ele>
        <time>2010-01-01T01:46:47Z</time>
      </trkpt>
      <trkpt lat="31.73085190" lon="35.09682870">
        <ele>676.91000</ele>
        <time>2010-01-01T01:46:58Z</time>
      </trkpt>
      <trkpt lat="31.73120650" lon="35.09669640">
        <ele>677.87000</ele>
        <time>2010-01-01T01:47:07Z</time>
      </trkpt>
      <trkpt lat="31.73116570" lon="35.09657990">
        <ele>678.35000</ele>
        <time>2010-01-01T01:47:10Z</time>
      </trkpt>
      <trkpt lat="31.73090850" lon="35.09664270">
        <ele>680.75000</ele>
        <time>2010-01-01T01:47:16Z</time>
      </trkpt>
      <trkpt lat="31.73060000" lon="35.09661980">
        <ele>683.15000</ele>
        <time>2010-01-01T01:47:24Z</time>
      </trkpt>
      <trkpt lat="31.73031810" lon="35.09659490">
        <ele>685.56000</ele>
        <time>2010-01-01T01:47:31Z</time>
      </trkpt>
      <trkpt lat="31.73006600" lon="35.09654520">
        <ele>687.00000</ele>
        <time>2010-01-01T01:47:37Z</time>
      </trkpt>
      <trkpt lat="31.73002220" lon="35.09653000">
        <ele>687.48000</ele>
        <time>2010-01-01T01:47:38Z</time>
      </trkpt>
      <trkpt lat="31.72973260" lon="35.09650670">
        <ele>688.92000</ele>
        <time>2010-01-01T01:47:46Z</time>
      </trkpt>
      <trkpt lat="31.72942330" lon="35.09657210">
        <ele>691.33000</ele>
        <time>2010-01-01T01:47:53Z</time>
      </trkpt>
      <trkpt lat="31.72918370" lon="35.09652730">
        <ele>691.81000</ele>
        <time>2010-01-01T01:47:59Z</time>
      </trkpt>
      <trkpt lat="31.72884410" lon="35.09647510">
        <ele>692.29000</ele>
        <time>2010-01-01T01:48:08Z</time>
      </trkpt>
      <trkpt lat="31.72853030" lon="35.09624320">
        <ele>690.84000</ele>
        <time>2010-01-01T01:48:17Z</time>
      </trkpt>
      <trkpt lat="31.72809400" lon="35.09592150">
        <ele>686.52000</ele>
        <time>2010-01-01T01:48:30Z</time>
      </trkpt>
      <trkpt lat="31.72793450" lon="35.09581790">
        <ele>685.08000</ele>
        <time>2010-01-01T01:48:34Z</time>
      </trkpt>
      <trkpt lat="31.72781070" lon="35.09576070">
        <ele>683.63000</ele>
        <time>2010-01-01T01:48:38Z</time>
      </trkpt>
      <trkpt lat="31.72743820" lon="35.09579970">
        <ele>681.71000</ele>
        <time>2010-01-01T01:48:47Z</time>
      </trkpt>
      <trkpt lat="31.72717410" lon="35.09586790">
        <ele>681.71000</ele>
        <time>2010-01-01T01:48:54Z</time>
      </trkpt>
      <trkpt lat="31.72711060" lon="35.09589920">
        <ele>681.71000</ele>
        <time>2010-01-01T01:48:56Z</time>
      </trkpt>
      <trkpt lat="31.72708670" lon="35.09588620">
        <ele>681.71000</ele>
        <time>2010-01-01T01:48:56Z</time>
      </trkpt>
      <trkpt lat="31.72723550" lon="35.09584270">
        <ele>682.19000</ele>
        <time>2010-01-01T01:49:00Z</time>
      </trkpt>
      <trkpt lat="31.72725390" lon="35.09583570">
        <ele>682.67000</ele>
        <time>2010-01-01T01:49:00Z</time>
      </trkpt>
      <trkpt lat="31.72726950" lon="35.09583620">
        <ele>682.19000</ele>
        <time>2010-01-01T01:49:01Z</time>
      </trkpt>
      <trkpt lat="31.72742530" lon="35.09580780">
        <ele>682.67000</ele>
        <time>2010-01-01T01:49:05Z</time>
      </trkpt>
      <trkpt lat="31.72769700" lon="35.09574410">
        <ele>682.67000</ele>
        <time>2010-01-01T01:49:12Z</time>
      </trkpt>
      <trkpt lat="31.72773640" lon="35.09570950">
        <ele>683.15000</ele>
        <time>2010-01-01T01:49:13Z</time>
      </trkpt>
      <trkpt lat="31.72773380" lon="35.09570780">
        <ele>683.63000</ele>
        <time>2010-01-01T01:49:13Z</time>
      </trkpt>
      <trkpt lat="31.72769820" lon="35.09570730">
        <ele>684.12000</ele>
        <time>2010-01-01T01:49:14Z</time>
      </trkpt>
      <trkpt lat="31.72755450" lon="35.09576510">
        <ele>685.08000</ele>
        <time>2010-01-01T01:49:18Z</time>
      </trkpt>
      <trkpt lat="31.72720810" lon="35.09585190">
        <ele>685.08000</ele>
        <time>2010-01-01T01:49:26Z</time>
      </trkpt>
      <trkpt lat="31.72678030" lon="35.09595820">
        <ele>685.56000</ele>
        <time>2010-01-01T01:49:37Z</time>
      </trkpt>
      <trkpt lat="31.72629490" lon="35.09603980">
        <ele>686.04000</ele>
        <time>2010-01-01T01:49:50Z</time>
      </trkpt>
      <trkpt lat="31.72622610" lon="35.09602590">
        <ele>686.04000</ele>
        <time>2010-01-01T01:49:51Z</time>
      </trkpt>
      <trkpt lat="31.72609870" lon="35.09601580">
        <ele>685.56000</ele>
        <time>2010-01-01T01:49:54Z</time>
      </trkpt>
      <trkpt lat="31.72588210" lon="35.09596140">
        <ele>684.12000</ele>
        <time>2010-01-01T01:50:00Z</time>
      </trkpt>
      <trkpt lat="31.72567730" lon="35.09599690">
        <ele>684.12000</ele>
        <time>2010-01-01T01:50:05Z</time>
      </trkpt>
      <trkpt lat="31.72549020" lon="35.09602660">
        <ele>684.12000</ele>
        <time>2010-01-01T01:50:10Z</time>
      </trkpt>
      <trkpt lat="31.72541950" lon="35.09597170">
        <ele>684.12000</ele>
        <time>2010-01-01T01:50:12Z</time>
      </trkpt>
      <trkpt lat="31.72533160" lon="35.09558790">
        <ele>684.12000</ele>
        <time>2010-01-01T01:50:20Z</time>
      </trkpt>
      <trkpt lat="31.72534890" lon="35.09548540">
        <ele>683.63000</ele>
        <time>2010-01-01T01:50:23Z</time>
      </trkpt>
      <trkpt lat="31.72538120" lon="35.09539250">
        <ele>683.63000</ele>
        <time>2010-01-01T01:50:25Z</time>
      </trkpt>
      <trkpt lat="31.72556050" lon="35.09526220">
        <ele>682.19000</ele>
        <time>2010-01-01T01:50:30Z</time>
      </trkpt>
      <trkpt lat="31.72585050" lon="35.09508830">
        <ele>681.23000</ele>
        <time>2010-01-01T01:50:38Z</time>
      </trkpt>
      <trkpt lat="31.72639860" lon="35.09478490">
        <ele>679.79000</ele>
        <time>2010-01-01T01:50:53Z</time>
      </trkpt>
      <trkpt lat="31.72644350" lon="35.09475650">
        <ele>679.79000</ele>
        <time>2010-01-01T01:50:54Z</time>
      </trkpt>
      <trkpt lat="31.72665400" lon="35.09464540">
        <ele>678.83000</ele>
        <time>2010-01-01T01:51:00Z</time>
      </trkpt>
      <trkpt lat="31.72677090" lon="35.09454410">
        <ele>677.39000</ele>
        <time>2010-01-01T01:51:04Z</time>
      </trkpt>
      <trkpt lat="31.72691400" lon="35.09430170">
        <ele>675.94000</ele>
        <time>2010-01-01T01:51:10Z</time>
      </trkpt>
      <trkpt lat="31.72695090" lon="35.09414450">
        <ele>676.42000</ele>
        <time>2010-01-01T01:51:13Z</time>
      </trkpt>
      <trkpt lat="31.72706240" lon="35.09378240">
        <ele>677.87000</ele>
        <time>2010-01-01T01:51:22Z</time>
      </trkpt>
      <trkpt lat="31.72715530" lon="35.09337610">
        <ele>679.31000</ele>
        <time>2010-01-01T01:51:30Z</time>
      </trkpt>
      <trkpt lat="31.72713130" lon="35.09317860">
        <ele>680.27000</ele>
        <time>2010-01-01T01:51:35Z</time>
      </trkpt>
      <trkpt lat="31.72711240" lon="35.09311200">
        <ele>681.71000</ele>
        <time>2010-01-01T01:51:36Z</time>
      </trkpt>
      <trkpt lat="31.72705910" lon="35.09295730">
        <ele>683.63000</ele>
        <time>2010-01-01T01:51:40Z</time>
      </trkpt>
      <trkpt lat="31.72703170" lon="35.09272980">
        <ele>686.04000</ele>
        <time>2010-01-01T01:51:45Z</time>
      </trkpt>
      <trkpt lat="31.72700820" lon="35.09257270">
        <ele>688.92000</ele>
        <time>2010-01-01T01:51:48Z</time>
      </trkpt>
      <trkpt lat="31.72698630" lon="35.09232560">
        <ele>695.17000</ele>
        <time>2010-01-01T01:51:53Z</time>
      </trkpt>
      <trkpt lat="31.72695060" lon="35.09210740">
        <ele>699.02000</ele>
        <time>2010-01-01T01:51:58Z</time>
      </trkpt>
      <trkpt lat="31.72694070" lon="35.09205510">
        <ele>699.98000</ele>
        <time>2010-01-01T01:51:59Z</time>
      </trkpt>
      <trkpt lat="31.72691530" lon="35.09188640">
        <ele>702.86000</ele>
        <time>2010-01-01T01:52:03Z</time>
      </trkpt>
      <trkpt lat="31.72686800" lon="35.09162220">
        <ele>705.75000</ele>
        <time>2010-01-01T01:52:08Z</time>
      </trkpt>
      <trkpt lat="31.72681600" lon="35.09136760">
        <ele>708.15000</ele>
        <time>2010-01-01T01:52:14Z</time>
      </trkpt>
      <trkpt lat="31.72677530" lon="35.09104410">
        <ele>710.07000</ele>
        <time>2010-01-01T01:52:21Z</time>
      </trkpt>
      <trkpt lat="31.72672090" lon="35.09071730">
        <ele>711.51000</ele>
        <time>2010-01-01T01:52:28Z</time>
      </trkpt>
      <trkpt lat="31.72667420" lon="35.09039180">
        <ele>711.99000</ele>
        <time>2010-01-01T01:52:35Z</time>
      </trkpt>
      <trkpt lat="31.72678720" lon="35.09017360">
        <ele>711.51000</ele>
        <time>2010-01-01T01:52:40Z</time>
      </trkpt>
      <trkpt lat="31.72699210" lon="35.08994610">
        <ele>712.47000</ele>
        <time>2010-01-01T01:52:47Z</time>
      </trkpt>
      <trkpt lat="31.72722240" lon="35.08980900">
        <ele>712.47000</ele>
        <time>2010-01-01T01:52:54Z</time>
      </trkpt>
      <trkpt lat="31.72734820" lon="35.08953870">
        <ele>713.44000</ele>
        <time>2010-01-01T01:53:00Z</time>
      </trkpt>
      <trkpt lat="31.72752960" lon="35.08933790">
        <ele>711.99000</ele>
        <time>2010-01-01T01:53:06Z</time>
      </trkpt>
      <trkpt lat="31.72785270" lon="35.08904000">
        <ele>711.51000</ele>
        <time>2010-01-01T01:53:17Z</time>
      </trkpt>
      <trkpt lat="31.72798540" lon="35.08892000">
        <ele>710.55000</ele>
        <time>2010-01-01T01:53:21Z</time>
      </trkpt>
      <trkpt lat="31.72821060" lon="35.08861710">
        <ele>711.51000</ele>
        <time>2010-01-01T01:53:29Z</time>
      </trkpt>
      <trkpt lat="31.72826620" lon="35.08854500">
        <ele>711.03000</ele>
        <time>2010-01-01T01:53:31Z</time>
      </trkpt>
      <trkpt lat="31.72845600" lon="35.08839510">
        <ele>709.59000</ele>
        <time>2010-01-01T01:53:37Z</time>
      </trkpt>
      <trkpt lat="31.72878300" lon="35.08806170">
        <ele>707.67000</ele>
        <time>2010-01-01T01:53:48Z</time>
      </trkpt>
      <trkpt lat="31.72910280" lon="35.08778090">
        <ele>705.26000</ele>
        <time>2010-01-01T01:53:58Z</time>
      </trkpt>
      <trkpt lat="31.72919340" lon="35.08762540">
        <ele>704.78000</ele>
        <time>2010-01-01T01:54:02Z</time>
      </trkpt>
      <trkpt lat="31.72926330" lon="35.08740170">
        <ele>705.26000</ele>
        <time>2010-01-01T01:54:07Z</time>
      </trkpt>
      <trkpt lat="31.72927320" lon="35.08705800">
        <ele>708.15000</ele>
        <time>2010-01-01T01:54:14Z</time>
      </trkpt>
      <trkpt lat="31.72918160" lon="35.08686460">
        <ele>711.51000</ele>
        <time>2010-01-01T01:54:19Z</time>
      </trkpt>
      <trkpt lat="31.72916950" lon="35.08682210">
        <ele>712.47000</ele>
        <time>2010-01-01T01:54:20Z</time>
      </trkpt>
      <trkpt lat="31.72914770" lon="35.08653050">
        <ele>715.84000</ele>
        <time>2010-01-01T01:54:26Z</time>
      </trkpt>
      <trkpt lat="31.72910780" lon="35.08629840">
        <ele>718.24000</ele>
        <time>2010-01-01T01:54:31Z</time>
      </trkpt>
      <trkpt lat="31.72904890" lon="35.08608750">
        <ele>720.65000</ele>
        <time>2010-01-01T01:54:36Z</time>
      </trkpt>
      <trkpt lat="31.72901240" lon="35.08590480">
        <ele>721.61000</ele>
        <time>2010-01-01T01:54:40Z</time>
      </trkpt>
      <trkpt lat="31.72900680" lon="35.08557130">
        <ele>724.01000</ele>
        <time>2010-01-01T01:54:47Z</time>
      </trkpt>
      <trkpt lat="31.72901450" lon="35.08539230">
        <ele>724.97000</ele>
        <time>2010-01-01T01:54:50Z</time>
      </trkpt>
      <trkpt lat="31.72904260" lon="35.08511770">
        <ele>726.89000</ele>
        <time>2010-01-01T01:54:56Z</time>
      </trkpt>
      <trkpt lat="31.72911610" lon="35.08484930">
        <ele>727.86000</ele>
        <time>2010-01-01T01:55:02Z</time>
      </trkpt>
      <trkpt lat="31.72923910" lon="35.08458780">
        <ele>728.82000</ele>
        <time>2010-01-01T01:55:09Z</time>
      </trkpt>
      <trkpt lat="31.72935390" lon="35.08428420">
        <ele>729.78000</ele>
        <time>2010-01-01T01:55:16Z</time>
      </trkpt>
      <trkpt lat="31.72943360" lon="35.08400150">
        <ele>733.14000</ele>
        <time>2010-01-01T01:55:22Z</time>
      </trkpt>
      <trkpt lat="31.72952620" lon="35.08372270">
        <ele>734.58000</ele>
        <time>2010-01-01T01:55:28Z</time>
      </trkpt>
      <trkpt lat="31.72950180" lon="35.08352290">
        <ele>734.58000</ele>
        <time>2010-01-01T01:55:32Z</time>
      </trkpt>
      <trkpt lat="31.72946580" lon="35.08318740">
        <ele>733.62000</ele>
        <time>2010-01-01T01:55:40Z</time>
      </trkpt>
      <trkpt lat="31.72951750" lon="35.08288170">
        <ele>732.18000</ele>
        <time>2010-01-01T01:55:46Z</time>
      </trkpt>
      <trkpt lat="31.72957760" lon="35.08258470">
        <ele>730.26000</ele>
        <time>2010-01-01T01:55:53Z</time>
      </trkpt>
      <trkpt lat="31.72943630" lon="35.08236120">
        <ele>729.30000</ele>
        <time>2010-01-01T01:55:59Z</time>
      </trkpt>
      <trkpt lat="31.72901510" lon="35.08232920">
        <ele>726.89000</ele>
        <time>2010-01-01T01:56:09Z</time>
      </trkpt>
      <trkpt lat="31.72878770" lon="35.08233710">
        <ele>724.01000</ele>
        <time>2010-01-01T01:56:15Z</time>
      </trkpt>
      <trkpt lat="31.72855340" lon="35.08232270">
        <ele>722.57000</ele>
        <time>2010-01-01T01:56:21Z</time>
      </trkpt>
      <trkpt lat="31.72852420" lon="35.08220310">
        <ele>721.61000</ele>
        <time>2010-01-01T01:56:23Z</time>
      </trkpt>
      <trkpt lat="31.72855030" lon="35.08208850">
        <ele>721.61000</ele>
        <time>2010-01-01T01:56:26Z</time>
      </trkpt>
      <trkpt lat="31.72857490" lon="35.08199780">
        <ele>721.61000</ele>
        <time>2010-01-01T01:56:28Z</time>
      </trkpt>
      <trkpt lat="31.72872580" lon="35.08132610">
        <ele>720.65000</ele>
        <time>2010-01-01T01:56:42Z</time>
      </trkpt>
      <trkpt lat="31.72892860" lon="35.08040780">
        <ele>718.72000</ele>
        <time>2010-01-01T01:57:03Z</time>
      </trkpt>
      <trkpt lat="31.72921030" lon="35.07909870">
        <ele>714.88000</ele>
        <time>2010-01-01T01:57:31Z</time>
      </trkpt>
      <trkpt lat="31.72931120" lon="35.07795300">
        <ele>711.51000</ele>
        <time>2010-01-01T01:57:55Z</time>
      </trkpt>
      <trkpt lat="31.72936870" lon="35.07770960">
        <ele>711.03000</ele>
        <time>2010-01-01T01:58:01Z</time>
      </trkpt>
      <trkpt lat="31.72980140" lon="35.07698270">
        <ele>707.67000</ele>
        <time>2010-01-01T01:58:20Z</time>
      </trkpt>
      <trkpt lat="31.73012280" lon="35.07626170">
        <ele>705.75000</ele>
        <time>2010-01-01T01:58:37Z</time>
      </trkpt>
      <trkpt lat="31.73042790" lon="35.07595790">
        <ele>703.82000</ele>
        <time>2010-01-01T01:58:47Z</time>
      </trkpt>
      <trkpt lat="31.73157790" lon="35.07541520">
        <ele>700.94000</ele>
        <time>2010-01-01T01:59:18Z</time>
      </trkpt>
      <trkpt lat="31.73225880" lon="35.07509610">
        <ele>699.02000</ele>
        <time>2010-01-01T01:59:36Z</time>
      </trkpt>
      <trkpt lat="31.73252880" lon="35.07497460">
        <ele>697.09000</ele>
        <time>2010-01-01T01:59:43Z</time>
      </trkpt>
      <trkpt lat="31.73261930" lon="35.07491610">
        <ele>696.13000</ele>
        <time>2010-01-01T01:59:46Z</time>
      </trkpt>
      <trkpt lat="31.73284540" lon="35.07489100">
        <ele>694.69000</ele>
        <time>2010-01-01T01:59:51Z</time>
      </trkpt>
      <trkpt lat="31.73316210" lon="35.07472730">
        <ele>694.21000</ele>
        <time>2010-01-01T02:00:00Z</time>
      </trkpt>
      <trkpt lat="31.73347370" lon="35.07412470">
        <ele>690.84000</ele>
        <time>2010-01-01T02:00:15Z</time>
      </trkpt>
      <trkpt lat="31.73387560" lon="35.07309280">
        <ele>685.08000</ele>
        <time>2010-01-01T02:00:39Z</time>
      </trkpt>
      <trkpt lat="31.73422220" lon="35.07222030">
        <ele>680.75000</ele>
        <time>2010-01-01T02:00:59Z</time>
      </trkpt>
      <trkpt lat="31.73424660" lon="35.07218110">
        <ele>680.75000</ele>
        <time>2010-01-01T02:01:00Z</time>
      </trkpt>
      <trkpt lat="31.73446990" lon="35.07221750">
        <ele>679.31000</ele>
        <time>2010-01-01T02:01:06Z</time>
      </trkpt>
      <trkpt lat="31.73455870" lon="35.07220650">
        <ele>679.31000</ele>
        <time>2010-01-01T02:01:08Z</time>
      </trkpt>
      <trkpt lat="31.73469150" lon="35.07222750">
        <ele>678.83000</ele>
        <time>2010-01-01T02:01:11Z</time>
      </trkpt>
      <trkpt lat="31.73471660" lon="35.07221030">
        <ele>678.35000</ele>
        <time>2010-01-01T02:01:12Z</time>
      </trkpt>
      <trkpt lat="31.73470710" lon="35.07220800">
        <ele>678.35000</ele>
        <time>2010-01-01T02:01:12Z</time>
      </trkpt>
      <trkpt lat="31.73470640" lon="35.07221100">
        <ele>678.35000</ele>
        <time>2010-01-01T02:01:12Z</time>
      </trkpt>
      <trkpt lat="31.73470540" lon="35.07221270">
        <ele>678.35000</ele>
        <time>2010-01-01T02:01:12Z</time>
      </trkpt>
      <trkpt lat="31.73469730" lon="35.07221180">
        <ele>678.83000</ele>
        <time>2010-01-01T02:01:13Z</time>
      </trkpt>
      <trkpt lat="31.73467390" lon="35.07220760">
        <ele>678.83000</ele>
        <time>2010-01-01T02:01:13Z</time>
      </trkpt>
      <trkpt lat="31.73459200" lon="35.07203870">
        <ele>679.31000</ele>
        <time>2010-01-01T02:01:17Z</time>
      </trkpt>
      <trkpt lat="31.73456130" lon="35.07205970">
        <ele>679.31000</ele>
        <time>2010-01-01T02:01:18Z</time>
      </trkpt>
      <trkpt lat="31.73458140" lon="35.07215730">
        <ele>679.31000</ele>
        <time>2010-01-01T02:01:20Z</time>
      </trkpt>
      <trkpt lat="31.73473590" lon="35.07226880">
        <ele>677.87000</ele>
        <time>2010-01-01T02:01:25Z</time>
      </trkpt>
      <trkpt lat="31.73490860" lon="35.07244220">
        <ele>675.94000</ele>
        <time>2010-01-01T02:01:30Z</time>
      </trkpt>
      <trkpt lat="31.73498080" lon="35.07244430">
        <ele>675.46000</ele>
        <time>2010-01-01T02:01:32Z</time>
      </trkpt>
      <trkpt lat="31.73527250" lon="35.07228720">
        <ele>673.06000</ele>
        <time>2010-01-01T02:01:40Z</time>
      </trkpt>
      <trkpt lat="31.73535470" lon="35.07219650">
        <ele>671.62000</ele>
        <time>2010-01-01T02:01:43Z</time>
      </trkpt>
      <trkpt lat="31.73553320" lon="35.07218230">
        <ele>669.70000</ele>
        <time>2010-01-01T02:01:48Z</time>
      </trkpt>
      <trkpt lat="31.73572730" lon="35.07225880">
        <ele>666.81000</ele>
        <time>2010-01-01T02:01:53Z</time>
      </trkpt>
      <trkpt lat="31.73596760" lon="35.07234890">
        <ele>662.97000</ele>
        <time>2010-01-01T02:01:59Z</time>
      </trkpt>
      <trkpt lat="31.73619260" lon="35.07237340">
        <ele>659.12000</ele>
        <time>2010-01-01T02:02:05Z</time>
      </trkpt>
      <trkpt lat="31.73642180" lon="35.07236020">
        <ele>653.83000</ele>
        <time>2010-01-01T02:02:10Z</time>
      </trkpt>
      <trkpt lat="31.73644850" lon="35.07233530">
        <ele>653.35000</ele>
        <time>2010-01-01T02:02:11Z</time>
      </trkpt>
      <trkpt lat="31.73652060" lon="35.07223440">
        <ele>651.43000</ele>
        <time>2010-01-01T02:02:14Z</time>
      </trkpt>
      <trkpt lat="31.73668020" lon="35.07188900">
        <ele>649.99000</ele>
        <time>2010-01-01T02:02:22Z</time>
      </trkpt>
      <trkpt lat="31.73700970" lon="35.07159420">
        <ele>649.03000</ele>
        <time>2010-01-01T02:02:32Z</time>
      </trkpt>
      <trkpt lat="31.73719160" lon="35.07146640">
        <ele>647.59000</ele>
        <time>2010-01-01T02:02:38Z</time>
      </trkpt>
      <trkpt lat="31.73733950" lon="35.07141890">
        <ele>645.66000</ele>
        <time>2010-01-01T02:02:42Z</time>
      </trkpt>
      <trkpt lat="31.73749240" lon="35.07131820">
        <ele>644.22000</ele>
        <time>2010-01-01T02:02:46Z</time>
      </trkpt>
      <trkpt lat="31.73774100" lon="35.07091900">
        <ele>644.70000</ele>
        <time>2010-01-01T02:02:56Z</time>
      </trkpt>
      <trkpt lat="31.73784800" lon="35.07067450">
        <ele>643.74000</ele>
        <time>2010-01-01T02:03:02Z</time>
      </trkpt>
      <trkpt lat="31.73795330" lon="35.07045990">
        <ele>643.26000</ele>
        <time>2010-01-01T02:03:07Z</time>
      </trkpt>
      <trkpt lat="31.73799270" lon="35.07020340">
        <ele>643.26000</ele>
        <time>2010-01-01T02:03:13Z</time>
      </trkpt>
      <trkpt lat="31.73798640" lon="35.06978260">
        <ele>642.78000</ele>
        <time>2010-01-01T02:03:22Z</time>
      </trkpt>
      <trkpt lat="31.73798020" lon="35.06953420">
        <ele>641.82000</ele>
        <time>2010-01-01T02:03:27Z</time>
      </trkpt>
      <trkpt lat="31.73798170" lon="35.06940170">
        <ele>640.86000</ele>
        <time>2010-01-01T02:03:30Z</time>
      </trkpt>
      <trkpt lat="31.73797510" lon="35.06926660">
        <ele>640.38000</ele>
        <time>2010-01-01T02:03:33Z</time>
      </trkpt>
      <trkpt lat="31.73806720" lon="35.06899290">
        <ele>637.97000</ele>
        <time>2010-01-01T02:03:39Z</time>
      </trkpt>
      <trkpt lat="31.73831900" lon="35.06883100">
        <ele>634.13000</ele>
        <time>2010-01-01T02:03:46Z</time>
      </trkpt>
      <trkpt lat="31.73862210" lon="35.06886220">
        <ele>629.80000</ele>
        <time>2010-01-01T02:03:54Z</time>
      </trkpt>
      <trkpt lat="31.73887920" lon="35.06893140">
        <ele>626.44000</ele>
        <time>2010-01-01T02:04:00Z</time>
      </trkpt>
      <trkpt lat="31.73939340" lon="35.06904470">
        <ele>622.59000</ele>
        <time>2010-01-01T02:04:13Z</time>
      </trkpt>
      <trkpt lat="31.73993260" lon="35.06900000">
        <ele>621.63000</ele>
        <time>2010-01-01T02:04:27Z</time>
      </trkpt>
      <trkpt lat="31.74013470" lon="35.06897380">
        <ele>622.59000</ele>
        <time>2010-01-01T02:04:32Z</time>
      </trkpt>
      <trkpt lat="31.74057380" lon="35.06891760">
        <ele>624.03000</ele>
        <time>2010-01-01T02:04:43Z</time>
      </trkpt>
      <trkpt lat="31.74091090" lon="35.06882840">
        <ele>627.40000</ele>
        <time>2010-01-01T02:04:51Z</time>
      </trkpt>
      <trkpt lat="31.74107150" lon="35.06882070">
        <ele>626.44000</ele>
        <time>2010-01-01T02:04:55Z</time>
      </trkpt>
      <trkpt lat="31.74163740" lon="35.06888220">
        <ele>623.07000</ele>
        <time>2010-01-01T02:05:10Z</time>
      </trkpt>
      <trkpt lat="31.74183420" lon="35.06894090">
        <ele>622.59000</ele>
        <time>2010-01-01T02:05:15Z</time>
      </trkpt>
      <trkpt lat="31.74215960" lon="35.06895480">
        <ele>621.63000</ele>
        <time>2010-01-01T02:05:23Z</time>
      </trkpt>
      <trkpt lat="31.74268010" lon="35.06896110">
        <ele>615.86000</ele>
        <time>2010-01-01T02:05:36Z</time>
      </trkpt>
      <trkpt lat="31.74275840" lon="35.06898160">
        <ele>615.38000</ele>
        <time>2010-01-01T02:05:38Z</time>
      </trkpt>
      <trkpt lat="31.74291700" lon="35.06904260">
        <ele>613.94000</ele>
        <time>2010-01-01T02:05:42Z</time>
      </trkpt>
      <trkpt lat="31.74331930" lon="35.06905260">
        <ele>615.38000</ele>
        <time>2010-01-01T02:05:52Z</time>
      </trkpt>
      <trkpt lat="31.74357610" lon="35.06905430">
        <ele>615.38000</ele>
        <time>2010-01-01T02:05:58Z</time>
      </trkpt>
      <trkpt lat="31.74372080" lon="35.06902220">
        <ele>615.38000</ele>
        <time>2010-01-01T02:06:02Z</time>
      </trkpt>
      <trkpt lat="31.74391490" lon="35.06896320">
        <ele>615.86000</ele>
        <time>2010-01-01T02:06:07Z</time>
      </trkpt>
      <trkpt lat="31.74403150" lon="35.06891190">
        <ele>616.34000</ele>
        <time>2010-01-01T02:06:10Z</time>
      </trkpt>
      <trkpt lat="31.74451540" lon="35.06853690">
        <ele>617.78000</ele>
        <time>2010-01-01T02:06:24Z</time>
      </trkpt>
      <trkpt lat="31.74486620" lon="35.06820170">
        <ele>616.82000</ele>
        <time>2010-01-01T02:06:36Z</time>
      </trkpt>
      <trkpt lat="31.74501600" lon="35.06799510">
        <ele>615.86000</ele>
        <time>2010-01-01T02:06:41Z</time>
      </trkpt>
      <trkpt lat="31.74513080" lon="35.06775100">
        <ele>614.42000</ele>
        <time>2010-01-01T02:06:47Z</time>
      </trkpt>
      <trkpt lat="31.74520500" lon="35.06745460">
        <ele>612.98000</ele>
        <time>2010-01-01T02:06:54Z</time>
      </trkpt>
      <trkpt lat="31.74536230" lon="35.06706550">
        <ele>612.98000</ele>
        <time>2010-01-01T02:07:03Z</time>
      </trkpt>
      <trkpt lat="31.74548330" lon="35.06663000">
        <ele>612.98000</ele>
        <time>2010-01-01T02:07:13Z</time>
      </trkpt>
      <trkpt lat="31.74556910" lon="35.06637180">
        <ele>613.94000</ele>
        <time>2010-01-01T02:07:18Z</time>
      </trkpt>
      <trkpt lat="31.74564360" lon="35.06597500">
        <ele>615.86000</ele>
        <time>2010-01-01T02:07:27Z</time>
      </trkpt>
      <trkpt lat="31.74561060" lon="35.06576310">
        <ele>619.23000</ele>
        <time>2010-01-01T02:07:32Z</time>
      </trkpt>
      <trkpt lat="31.74560400" lon="35.06554970">
        <ele>621.15000</ele>
        <time>2010-01-01T02:07:36Z</time>
      </trkpt>
      <trkpt lat="31.74566490" lon="35.06526450">
        <ele>623.07000</ele>
        <time>2010-01-01T02:07:42Z</time>
      </trkpt>
      <trkpt lat="31.74574630" lon="35.06500710">
        <ele>624.51000</ele>
        <time>2010-01-01T02:07:48Z</time>
      </trkpt>
      <trkpt lat="31.74579310" lon="35.06490760">
        <ele>625.96000</ele>
        <time>2010-01-01T02:07:51Z</time>
      </trkpt>
      <trkpt lat="31.74587920" lon="35.06472630">
        <ele>628.84000</ele>
        <time>2010-01-01T02:07:55Z</time>
      </trkpt>
      <trkpt lat="31.74607690" lon="35.06449490">
        <ele>632.20000</ele>
        <time>2010-01-01T02:08:02Z</time>
      </trkpt>
      <trkpt lat="31.74626520" lon="35.06428860">
        <ele>634.13000</ele>
        <time>2010-01-01T02:08:08Z</time>
      </trkpt>
      <trkpt lat="31.74640120" lon="35.06397790">
        <ele>634.61000</ele>
        <time>2010-01-01T02:08:16Z</time>
      </trkpt>
      <trkpt lat="31.74643890" lon="35.06388590">
        <ele>634.61000</ele>
        <time>2010-01-01T02:08:18Z</time>
      </trkpt>
      <trkpt lat="31.74647590" lon="35.06382580">
        <ele>635.09000</ele>
        <time>2010-01-01T02:08:19Z</time>
      </trkpt>
      <trkpt lat="31.74658610" lon="35.06356980">
        <ele>635.57000</ele>
        <time>2010-01-01T02:08:25Z</time>
      </trkpt>
      <trkpt lat="31.74660450" lon="35.06315710">
        <ele>635.57000</ele>
        <time>2010-01-01T02:08:34Z</time>
      </trkpt>
      <trkpt lat="31.74655750" lon="35.06266780">
        <ele>634.13000</ele>
        <time>2010-01-01T02:08:45Z</time>
      </trkpt>
      <trkpt lat="31.74657220" lon="35.06226310">
        <ele>634.13000</ele>
        <time>2010-01-01T02:08:53Z</time>
      </trkpt>
      <trkpt lat="31.74697330" lon="35.06208130">
        <ele>636.05000</ele>
        <time>2010-01-01T02:09:04Z</time>
      </trkpt>
      <trkpt lat="31.74736750" lon="35.06184520">
        <ele>638.45000</ele>
        <time>2010-01-01T02:09:15Z</time>
      </trkpt>
      <trkpt lat="31.74749040" lon="35.06175470">
        <ele>638.93000</ele>
        <time>2010-01-01T02:09:19Z</time>
      </trkpt>
      <trkpt lat="31.74762150" lon="35.06158970">
        <ele>639.41000</ele>
        <time>2010-01-01T02:09:23Z</time>
      </trkpt>
      <trkpt lat="31.74773760" lon="35.06107590">
        <ele>641.34000</ele>
        <time>2010-01-01T02:09:35Z</time>
      </trkpt>
      <trkpt lat="31.74776770" lon="35.06086850">
        <ele>641.82000</ele>
        <time>2010-01-01T02:09:39Z</time>
      </trkpt>
      <trkpt lat="31.74801900" lon="35.06064540">
        <ele>643.26000</ele>
        <time>2010-01-01T02:09:47Z</time>
      </trkpt>
      <trkpt lat="31.74827580" lon="35.06043040">
        <ele>644.70000</ele>
        <time>2010-01-01T02:09:55Z</time>
      </trkpt>
      <trkpt lat="31.74835620" lon="35.06033080">
        <ele>644.70000</ele>
        <time>2010-01-01T02:09:58Z</time>
      </trkpt>
      <trkpt lat="31.74842530" lon="35.06001240">
        <ele>645.66000</ele>
        <time>2010-01-01T02:10:05Z</time>
      </trkpt>
      <trkpt lat="31.74851870" lon="35.05964030">
        <ele>646.62000</ele>
        <time>2010-01-01T02:10:13Z</time>
      </trkpt>
      <trkpt lat="31.74855240" lon="35.05924030">
        <ele>647.59000</ele>
        <time>2010-01-01T02:10:21Z</time>
      </trkpt>
      <trkpt lat="31.74851990" lon="35.05874140">
        <ele>647.10000</ele>
        <time>2010-01-01T02:10:32Z</time>
      </trkpt>
      <trkpt lat="31.74868070" lon="35.05851410">
        <ele>645.18000</ele>
        <time>2010-01-01T02:10:38Z</time>
      </trkpt>
      <trkpt lat="31.74896570" lon="35.05842190">
        <ele>644.70000</ele>
        <time>2010-01-01T02:10:45Z</time>
      </trkpt>
      <trkpt lat="31.74927620" lon="35.05839540">
        <ele>642.30000</ele>
        <time>2010-01-01T02:10:53Z</time>
      </trkpt>
      <trkpt lat="31.74942610" lon="35.05834570">
        <ele>641.34000</ele>
        <time>2010-01-01T02:10:57Z</time>
      </trkpt>
      <trkpt lat="31.74972890" lon="35.05817260">
        <ele>642.30000</ele>
        <time>2010-01-01T02:11:05Z</time>
      </trkpt>
      <trkpt lat="31.75002870" lon="35.05794610">
        <ele>644.22000</ele>
        <time>2010-01-01T02:11:14Z</time>
      </trkpt>
      <trkpt lat="31.75023780" lon="35.05772830">
        <ele>646.14000</ele>
        <time>2010-01-01T02:11:21Z</time>
      </trkpt>
      <trkpt lat="31.75033740" lon="35.05751200">
        <ele>646.62000</ele>
        <time>2010-01-01T02:11:26Z</time>
      </trkpt>
      <trkpt lat="31.75033380" lon="35.05715300">
        <ele>648.07000</ele>
        <time>2010-01-01T02:11:34Z</time>
      </trkpt>
      <trkpt lat="31.75033440" lon="35.05713380">
        <ele>648.07000</ele>
        <time>2010-01-01T02:11:34Z</time>
      </trkpt>
      <trkpt lat="31.75033700" lon="35.05713770">
        <ele>648.07000</ele>
        <time>2010-01-01T02:11:35Z</time>
      </trkpt>
      <trkpt lat="31.75033430" lon="35.05713690">
        <ele>647.59000</ele>
        <time>2010-01-01T02:11:35Z</time>
      </trkpt>
      <trkpt lat="31.75032950" lon="35.05712560">
        <ele>647.59000</ele>
        <time>2010-01-01T02:11:35Z</time>
      </trkpt>
      <trkpt lat="31.75033680" lon="35.05700070">
        <ele>645.66000</ele>
        <time>2010-01-01T02:11:38Z</time>
      </trkpt>
      <trkpt lat="31.75013870" lon="35.05655550">
        <ele>642.78000</ele>
        <time>2010-01-01T02:11:48Z</time>
      </trkpt>
      <trkpt lat="31.75009710" lon="35.05650090">
        <ele>642.30000</ele>
        <time>2010-01-01T02:11:50Z</time>
      </trkpt>
      <trkpt lat="31.74994410" lon="35.05635980">
        <ele>642.78000</ele>
        <time>2010-01-01T02:11:55Z</time>
      </trkpt>
      <trkpt lat="31.74974830" lon="35.05616470">
        <ele>643.74000</ele>
        <time>2010-01-01T02:12:01Z</time>
      </trkpt>
      <trkpt lat="31.74957860" lon="35.05593250">
        <ele>643.74000</ele>
        <time>2010-01-01T02:12:07Z</time>
      </trkpt>
      <trkpt lat="31.74931790" lon="35.05566190">
        <ele>644.22000</ele>
        <time>2010-01-01T02:12:16Z</time>
      </trkpt>
      <trkpt lat="31.74921600" lon="35.05558630">
        <ele>644.70000</ele>
        <time>2010-01-01T02:12:19Z</time>
      </trkpt>
      <trkpt lat="31.74907140" lon="35.05548950">
        <ele>645.18000</ele>
        <time>2010-01-01T02:12:23Z</time>
      </trkpt>
      <trkpt lat="31.74877090" lon="35.05533790">
        <ele>646.62000</ele>
        <time>2010-01-01T02:12:31Z</time>
      </trkpt>
      <trkpt lat="31.74869590" lon="35.05494590">
        <ele>644.22000</ele>
        <time>2010-01-01T02:12:40Z</time>
      </trkpt>
      <trkpt lat="31.74869770" lon="35.05451640">
        <ele>643.26000</ele>
        <time>2010-01-01T02:12:49Z</time>
      </trkpt>
      <trkpt lat="31.74872410" lon="35.05421780">
        <ele>642.78000</ele>
        <time>2010-01-01T02:12:55Z</time>
      </trkpt>
      <trkpt lat="31.74870150" lon="35.05396570">
        <ele>642.78000</ele>
        <time>2010-01-01T02:13:01Z</time>
      </trkpt>
      <trkpt lat="31.74861140" lon="35.05351610">
        <ele>646.14000</ele>
        <time>2010-01-01T02:13:10Z</time>
      </trkpt>
      <trkpt lat="31.74852050" lon="35.05315380">
        <ele>645.66000</ele>
        <time>2010-01-01T02:13:18Z</time>
      </trkpt>
      <trkpt lat="31.74847820" lon="35.05295310">
        <ele>645.18000</ele>
        <time>2010-01-01T02:13:23Z</time>
      </trkpt>
      <trkpt lat="31.74845150" lon="35.05255000">
        <ele>643.74000</ele>
        <time>2010-01-01T02:13:31Z</time>
      </trkpt>
      <trkpt lat="31.74841590" lon="35.05183030">
        <ele>640.38000</ele>
        <time>2010-01-01T02:13:47Z</time>
      </trkpt>
      <trkpt lat="31.74840680" lon="35.05164310">
        <ele>639.41000</ele>
        <time>2010-01-01T02:13:51Z</time>
      </trkpt>
      <trkpt lat="31.74828070" lon="35.05075880">
        <ele>634.61000</ele>
        <time>2010-01-01T02:14:10Z</time>
      </trkpt>
      <trkpt lat="31.74844670" lon="35.04982530">
        <ele>629.80000</ele>
        <time>2010-01-01T02:14:30Z</time>
      </trkpt>
      <trkpt lat="31.74848030" lon="35.04961360">
        <ele>628.84000</ele>
        <time>2010-01-01T02:14:34Z</time>
      </trkpt>
      <trkpt lat="31.74853750" lon="35.04930870">
        <ele>626.92000</ele>
        <time>2010-01-01T02:14:41Z</time>
      </trkpt>
      <trkpt lat="31.74846370" lon="35.04867590">
        <ele>626.44000</ele>
        <time>2010-01-01T02:14:54Z</time>
      </trkpt>
      <trkpt lat="31.74840570" lon="35.04847760">
        <ele>627.88000</ele>
        <time>2010-01-01T02:14:59Z</time>
      </trkpt>
      <trkpt lat="31.74840300" lon="35.04808710">
        <ele>628.36000</ele>
        <time>2010-01-01T02:15:07Z</time>
      </trkpt>
      <trkpt lat="31.74839190" lon="35.04793930">
        <ele>628.36000</ele>
        <time>2010-01-01T02:15:10Z</time>
      </trkpt>
      <trkpt lat="31.74839790" lon="35.04779580">
        <ele>628.36000</ele>
        <time>2010-01-01T02:15:13Z</time>
      </trkpt>
      <trkpt lat="31.74842180" lon="35.04765650">
        <ele>627.88000</ele>
        <time>2010-01-01T02:15:16Z</time>
      </trkpt>
      <trkpt lat="31.74843850" lon="35.04750500">
        <ele>627.40000</ele>
        <time>2010-01-01T02:15:20Z</time>
      </trkpt>
      <trkpt lat="31.74839970" lon="35.04719650">
        <ele>627.40000</ele>
        <time>2010-01-01T02:15:26Z</time>
      </trkpt>
      <trkpt lat="31.74842380" lon="35.04706290">
        <ele>627.40000</ele>
        <time>2010-01-01T02:15:29Z</time>
      </trkpt>
      <trkpt lat="31.74844050" lon="35.04675510">
        <ele>627.88000</ele>
        <time>2010-01-01T02:15:36Z</time>
      </trkpt>
      <trkpt lat="31.74843940" lon="35.04672010">
        <ele>627.88000</ele>
        <time>2010-01-01T02:15:36Z</time>
      </trkpt>
      <trkpt lat="31.74848270" lon="35.04634120">
        <ele>629.80000</ele>
        <time>2010-01-01T02:15:44Z</time>
      </trkpt>
      <trkpt lat="31.74851960" lon="35.04607240">
        <ele>631.24000</ele>
        <time>2010-01-01T02:15:50Z</time>
      </trkpt>
      <trkpt lat="31.74843520" lon="35.04587140">
        <ele>633.17000</ele>
        <time>2010-01-01T02:15:55Z</time>
      </trkpt>
      <trkpt lat="31.74828130" lon="35.04561860">
        <ele>635.09000</ele>
        <time>2010-01-01T02:16:01Z</time>
      </trkpt>
      <trkpt lat="31.74822900" lon="35.04533320">
        <ele>637.49000</ele>
        <time>2010-01-01T02:16:08Z</time>
      </trkpt>
      <trkpt lat="31.74823830" lon="35.04527800">
        <ele>637.97000</ele>
        <time>2010-01-01T02:16:09Z</time>
      </trkpt>
      <trkpt lat="31.74822770" lon="35.04533280">
        <ele>638.45000</ele>
        <time>2010-01-01T02:16:10Z</time>
      </trkpt>
      <trkpt lat="31.74822840" lon="35.04536160">
        <ele>638.45000</ele>
        <time>2010-01-01T02:16:11Z</time>
      </trkpt>
      <trkpt lat="31.74823290" lon="35.04534300">
        <ele>637.97000</ele>
        <time>2010-01-01T02:16:11Z</time>
      </trkpt>
      <trkpt lat="31.74823250" lon="35.04534060">
        <ele>637.97000</ele>
        <time>2010-01-01T02:16:11Z</time>
      </trkpt>
      <trkpt lat="31.74823900" lon="35.04533510">
        <ele>638.45000</ele>
        <time>2010-01-01T02:16:11Z</time>
      </trkpt>
      <trkpt lat="31.74830240" lon="35.04529840">
        <ele>639.41000</ele>
        <time>2010-01-01T02:16:13Z</time>
      </trkpt>
      <trkpt lat="31.74838930" lon="35.04536160">
        <ele>639.89000</ele>
        <time>2010-01-01T02:16:16Z</time>
      </trkpt>
      <trkpt lat="31.74872810" lon="35.04537130">
        <ele>643.26000</ele>
        <time>2010-01-01T02:16:24Z</time>
      </trkpt>
      <trkpt lat="31.74897140" lon="35.04527480">
        <ele>644.70000</ele>
        <time>2010-01-01T02:16:30Z</time>
      </trkpt>
      <trkpt lat="31.74928950" lon="35.04504420">
        <ele>644.70000</ele>
        <time>2010-01-01T02:16:40Z</time>
      </trkpt>
      <trkpt lat="31.74961820" lon="35.04476390">
        <ele>643.74000</ele>
        <time>2010-01-01T02:16:50Z</time>
      </trkpt>
      <trkpt lat="31.74994950" lon="35.04453540">
        <ele>641.82000</ele>
        <time>2010-01-01T02:16:59Z</time>
      </trkpt>
      <trkpt lat="31.75015190" lon="35.04430730">
        <ele>641.34000</ele>
        <time>2010-01-01T02:17:06Z</time>
      </trkpt>
      <trkpt lat="31.75043840" lon="35.04400620">
        <ele>641.34000</ele>
        <time>2010-01-01T02:17:16Z</time>
      </trkpt>
      <trkpt lat="31.75118020" lon="35.04358040">
        <ele>640.86000</ele>
        <time>2010-01-01T02:17:36Z</time>
      </trkpt>
      <trkpt lat="31.75135120" lon="35.04351710">
        <ele>640.86000</ele>
        <time>2010-01-01T02:17:41Z</time>
      </trkpt>
      <trkpt lat="31.75145100" lon="35.04348530">
        <ele>640.38000</ele>
        <time>2010-01-01T02:17:43Z</time>
      </trkpt>
      <trkpt lat="31.75161380" lon="35.04345110">
        <ele>639.89000</ele>
        <time>2010-01-01T02:17:48Z</time>
      </trkpt>
      <trkpt lat="31.75192890" lon="35.04325390">
        <ele>637.01000</ele>
        <time>2010-01-01T02:17:56Z</time>
      </trkpt>
      <trkpt lat="31.75197070" lon="35.04320050">
        <ele>637.01000</ele>
        <time>2010-01-01T02:17:58Z</time>
      </trkpt>
      <trkpt lat="31.75222390" lon="35.04297150">
        <ele>634.61000</ele>
        <time>2010-01-01T02:18:06Z</time>
      </trkpt>
      <trkpt lat="31.75267470" lon="35.04260480">
        <ele>632.68000</ele>
        <time>2010-01-01T02:18:20Z</time>
      </trkpt>
      <trkpt lat="31.75282340" lon="35.04245960">
        <ele>633.17000</ele>
        <time>2010-01-01T02:18:24Z</time>
      </trkpt>
      <trkpt lat="31.75301530" lon="35.04200240">
        <ele>630.76000</ele>
        <time>2010-01-01T02:18:35Z</time>
      </trkpt>
      <trkpt lat="31.75301050" lon="35.04184930">
        <ele>630.28000</ele>
        <time>2010-01-01T02:18:38Z</time>
      </trkpt>
      <trkpt lat="31.75282580" lon="35.04162700">
        <ele>628.84000</ele>
        <time>2010-01-01T02:18:45Z</time>
      </trkpt>
      <trkpt lat="31.75274190" lon="35.04152540">
        <ele>629.80000</ele>
        <time>2010-01-01T02:18:48Z</time>
      </trkpt>
      <trkpt lat="31.75268480" lon="35.04141130">
        <ele>629.32000</ele>
        <time>2010-01-01T02:18:51Z</time>
      </trkpt>
      <trkpt lat="31.75266770" lon="35.04107640">
        <ele>627.88000</ele>
        <time>2010-01-01T02:18:58Z</time>
      </trkpt>
      <trkpt lat="31.75258250" lon="35.04069120">
        <ele>626.44000</ele>
        <time>2010-01-01T02:19:06Z</time>
      </trkpt>
      <trkpt lat="31.75256550" lon="35.04061000">
        <ele>625.96000</ele>
        <time>2010-01-01T02:19:08Z</time>
      </trkpt>
      <trkpt lat="31.75232080" lon="35.03976930">
        <ele>622.59000</ele>
        <time>2010-01-01T02:19:27Z</time>
      </trkpt>
      <trkpt lat="31.75217180" lon="35.03947150">
        <ele>621.63000</ele>
        <time>2010-01-01T02:19:34Z</time>
      </trkpt>
      <trkpt lat="31.75195770" lon="35.03915380">
        <ele>620.67000</ele>
        <time>2010-01-01T02:19:43Z</time>
      </trkpt>
      <trkpt lat="31.75169140" lon="35.03913000">
        <ele>620.67000</ele>
        <time>2010-01-01T02:19:49Z</time>
      </trkpt>
      <trkpt lat="31.75165040" lon="35.03916800">
        <ele>621.15000</ele>
        <time>2010-01-01T02:19:51Z</time>
      </trkpt>
      <trkpt lat="31.75130440" lon="35.03929050">
        <ele>624.99000</ele>
        <time>2010-01-01T02:20:00Z</time>
      </trkpt>
      <trkpt lat="31.75117830" lon="35.03933560">
        <ele>625.47000</ele>
        <time>2010-01-01T02:20:03Z</time>
      </trkpt>
      <trkpt lat="31.75079000" lon="35.03943390">
        <ele>625.47000</ele>
        <time>2010-01-01T02:20:13Z</time>
      </trkpt>
      <trkpt lat="31.75061790" lon="35.03956630">
        <ele>624.51000</ele>
        <time>2010-01-01T02:20:18Z</time>
      </trkpt>
      <trkpt lat="31.75031410" lon="35.03980760">
        <ele>624.03000</ele>
        <time>2010-01-01T02:20:27Z</time>
      </trkpt>
      <trkpt lat="31.75004760" lon="35.03988020">
        <ele>623.55000</ele>
        <time>2010-01-01T02:20:34Z</time>
      </trkpt>
      <trkpt lat="31.74993230" lon="35.03990840">
        <ele>622.59000</ele>
        <time>2010-01-01T02:20:37Z</time>
      </trkpt>
      <trkpt lat="31.74989350" lon="35.03991720">
        <ele>622.11000</ele>
        <time>2010-01-01T02:20:38Z</time>
      </trkpt>
      <trkpt lat="31.74986110" lon="35.03994730">
        <ele>622.11000</ele>
        <time>2010-01-01T02:20:39Z</time>
      </trkpt>
      <trkpt lat="31.74975460" lon="35.03997970">
        <ele>622.11000</ele>
        <time>2010-01-01T02:20:42Z</time>
      </trkpt>
      <trkpt lat="31.74969980" lon="35.04008340">
        <ele>621.15000</ele>
        <time>2010-01-01T02:20:44Z</time>
      </trkpt>
      <trkpt lat="31.74968070" lon="35.04012830">
        <ele>621.15000</ele>
        <time>2010-01-01T02:20:45Z</time>
      </trkpt>
      <trkpt lat="31.74958790" lon="35.04047840">
        <ele>622.59000</ele>
        <time>2010-01-01T02:20:53Z</time>
      </trkpt>
      <trkpt lat="31.74956390" lon="35.04105910">
        <ele>628.36000</ele>
        <time>2010-01-01T02:21:05Z</time>
      </trkpt>
      <trkpt lat="31.74948640" lon="35.04155120">
        <ele>632.68000</ele>
        <time>2010-01-01T02:21:16Z</time>
      </trkpt>
      <trkpt lat="31.74935540" lon="35.04206420">
        <ele>634.13000</ele>
        <time>2010-01-01T02:21:27Z</time>
      </trkpt>
      <trkpt lat="31.74935140" lon="35.04250470">
        <ele>634.13000</ele>
        <time>2010-01-01T02:21:36Z</time>
      </trkpt>
      <trkpt lat="31.74933900" lon="35.04290380">
        <ele>634.13000</ele>
        <time>2010-01-01T02:21:45Z</time>
      </trkpt>
      <trkpt lat="31.74914540" lon="35.04355530">
        <ele>635.57000</ele>
        <time>2010-01-01T02:22:00Z</time>
      </trkpt>
      <trkpt lat="31.74888490" lon="35.04404220">
        <ele>637.49000</ele>
        <time>2010-01-01T02:22:12Z</time>
      </trkpt>
      <trkpt lat="31.74854280" lon="35.04444420">
        <ele>636.05000</ele>
        <time>2010-01-01T02:22:24Z</time>
      </trkpt>
      <trkpt lat="31.74814720" lon="35.04475950">
        <ele>634.13000</ele>
        <time>2010-01-01T02:22:36Z</time>
      </trkpt>
      <trkpt lat="31.74798210" lon="35.04489070">
        <ele>633.65000</ele>
        <time>2010-01-01T02:22:41Z</time>
      </trkpt>
      <trkpt lat="31.74775920" lon="35.04477520">
        <ele>630.28000</ele>
        <time>2010-01-01T02:22:47Z</time>
      </trkpt>
      <trkpt lat="31.74762920" lon="35.04465780">
        <ele>628.84000</ele>
        <time>2010-01-01T02:22:51Z</time>
      </trkpt>
      <trkpt lat="31.74728960" lon="35.04427740">
        <ele>623.07000</ele>
        <time>2010-01-01T02:23:02Z</time>
      </trkpt>
      <trkpt lat="31.74712640" lon="35.04415620">
        <ele>620.67000</ele>
        <time>2010-01-01T02:23:07Z</time>
      </trkpt>
      <trkpt lat="31.74699920" lon="35.04410800">
        <ele>618.75000</ele>
        <time>2010-01-01T02:23:11Z</time>
      </trkpt>
      <trkpt lat="31.74648910" lon="35.04417470">
        <ele>614.42000</ele>
        <time>2010-01-01T02:23:23Z</time>
      </trkpt>
      <trkpt lat="31.74624230" lon="35.04409350">
        <ele>612.50000</ele>
        <time>2010-01-01T02:23:30Z</time>
      </trkpt>
      <trkpt lat="31.74622410" lon="35.04396180">
        <ele>611.54000</ele>
        <time>2010-01-01T02:23:32Z</time>
      </trkpt>
      <trkpt lat="31.74630580" lon="35.04326680">
        <ele>605.77000</ele>
        <time>2010-01-01T02:23:47Z</time>
      </trkpt>
      <trkpt lat="31.74623260" lon="35.04256070">
        <ele>600.48000</ele>
        <time>2010-01-01T02:24:02Z</time>
      </trkpt>
      <trkpt lat="31.74626860" lon="35.04231010">
        <ele>598.56000</ele>
        <time>2010-01-01T02:24:08Z</time>
      </trkpt>
      <trkpt lat="31.74637380" lon="35.04207490">
        <ele>596.15000</ele>
        <time>2010-01-01T02:24:13Z</time>
      </trkpt>
      <trkpt lat="31.74659430" lon="35.04169590">
        <ele>593.75000</ele>
        <time>2010-01-01T02:24:23Z</time>
      </trkpt>
      <trkpt lat="31.74680180" lon="35.04141780">
        <ele>591.83000</ele>
        <time>2010-01-01T02:24:31Z</time>
      </trkpt>
      <trkpt lat="31.74711320" lon="35.04096160">
        <ele>588.95000</ele>
        <time>2010-01-01T02:24:43Z</time>
      </trkpt>
      <trkpt lat="31.74737940" lon="35.04054450">
        <ele>585.58000</ele>
        <time>2010-01-01T02:24:54Z</time>
      </trkpt>
      <trkpt lat="31.74749260" lon="35.04032600">
        <ele>586.54000</ele>
        <time>2010-01-01T02:25:00Z</time>
      </trkpt>
      <trkpt lat="31.74746930" lon="35.04021560">
        <ele>586.54000</ele>
        <time>2010-01-01T02:25:02Z</time>
      </trkpt>
      <trkpt lat="31.74736840" lon="35.03980460">
        <ele>580.29000</ele>
        <time>2010-01-01T02:25:11Z</time>
      </trkpt>
      <trkpt lat="31.74732930" lon="35.03950200">
        <ele>575.49000</ele>
        <time>2010-01-01T02:25:18Z</time>
      </trkpt>
      <trkpt lat="31.74721590" lon="35.03946410">
        <ele>573.08000</ele>
        <time>2010-01-01T02:25:21Z</time>
      </trkpt>
      <trkpt lat="31.74668170" lon="35.03945670">
        <ele>567.80000</ele>
        <time>2010-01-01T02:25:34Z</time>
      </trkpt>
      <trkpt lat="31.74602860" lon="35.03958330">
        <ele>565.87000</ele>
        <time>2010-01-01T02:25:50Z</time>
      </trkpt>
      <trkpt lat="31.74577630" lon="35.03960170">
        <ele>565.87000</ele>
        <time>2010-01-01T02:25:57Z</time>
      </trkpt>
      <trkpt lat="31.74551150" lon="35.03961270">
        <ele>565.87000</ele>
        <time>2010-01-01T02:26:03Z</time>
      </trkpt>
      <trkpt lat="31.74521820" lon="35.03957280">
        <ele>565.87000</ele>
        <time>2010-01-01T02:26:11Z</time>
      </trkpt>
      <trkpt lat="31.74477180" lon="35.03957780">
        <ele>563.95000</ele>
        <time>2010-01-01T02:26:22Z</time>
      </trkpt>
      <trkpt lat="31.74413530" lon="35.03936270">
        <ele>560.11000</ele>
        <time>2010-01-01T02:26:38Z</time>
      </trkpt>
      <trkpt lat="31.74389610" lon="35.03925180">
        <ele>558.66000</ele>
        <time>2010-01-01T02:26:45Z</time>
      </trkpt>
      <trkpt lat="31.74303710" lon="35.03903480">
        <ele>552.90000</ele>
        <time>2010-01-01T02:27:06Z</time>
      </trkpt>
      <trkpt lat="31.74234590" lon="35.03882900">
        <ele>547.61000</ele>
        <time>2010-01-01T02:27:24Z</time>
      </trkpt>
      <trkpt lat="31.74197570" lon="35.03873460">
        <ele>543.28000</ele>
        <time>2010-01-01T02:27:34Z</time>
      </trkpt>
      <trkpt lat="31.74164840" lon="35.03857580">
        <ele>539.92000</ele>
        <time>2010-01-01T02:27:42Z</time>
      </trkpt>
      <trkpt lat="31.74145060" lon="35.03851790">
        <ele>537.51000</ele>
        <time>2010-01-01T02:27:47Z</time>
      </trkpt>
      <trkpt lat="31.74122210" lon="35.03841300">
        <ele>534.63000</ele>
        <time>2010-01-01T02:27:54Z</time>
      </trkpt>
      <trkpt lat="31.74091930" lon="35.03810590">
        <ele>530.79000</ele>
        <time>2010-01-01T02:28:04Z</time>
      </trkpt>
      <trkpt lat="31.74083350" lon="35.03802160">
        <ele>530.79000</ele>
        <time>2010-01-01T02:28:06Z</time>
      </trkpt>
      <trkpt lat="31.74075370" lon="35.03791480">
        <ele>530.79000</ele>
        <time>2010-01-01T02:28:09Z</time>
      </trkpt>
      <trkpt lat="31.74066560" lon="35.03772380">
        <ele>530.79000</ele>
        <time>2010-01-01T02:28:14Z</time>
      </trkpt>
      <trkpt lat="31.74050140" lon="35.03749000">
        <ele>531.75000</ele>
        <time>2010-01-01T02:28:20Z</time>
      </trkpt>
      <trkpt lat="31.74050660" lon="35.03738650">
        <ele>532.71000</ele>
        <time>2010-01-01T02:28:23Z</time>
      </trkpt>
      <trkpt lat="31.74052870" lon="35.03715590">
        <ele>538.48000</ele>
        <time>2010-01-01T02:28:27Z</time>
      </trkpt>
      <trkpt lat="31.74050510" lon="35.03693730">
        <ele>541.84000</ele>
        <time>2010-01-01T02:28:32Z</time>
      </trkpt>
      <trkpt lat="31.74035000" lon="35.03670220">
        <ele>539.44000</ele>
        <time>2010-01-01T02:28:38Z</time>
      </trkpt>
      <trkpt lat="31.74029930" lon="35.03659310">
        <ele>539.92000</ele>
        <time>2010-01-01T02:28:41Z</time>
      </trkpt>
      <trkpt lat="31.74024760" lon="35.03626570">
        <ele>539.44000</ele>
        <time>2010-01-01T02:28:48Z</time>
      </trkpt>
      <trkpt lat="31.74023290" lon="35.03606670">
        <ele>539.92000</ele>
        <time>2010-01-01T02:28:52Z</time>
      </trkpt>
      <trkpt lat="31.74023340" lon="35.03596910">
        <ele>540.40000</ele>
        <time>2010-01-01T02:28:54Z</time>
      </trkpt>
      <trkpt lat="31.74032190" lon="35.03566600">
        <ele>541.36000</ele>
        <time>2010-01-01T02:29:01Z</time>
      </trkpt>
      <trkpt lat="31.74033440" lon="35.03564580">
        <ele>541.84000</ele>
        <time>2010-01-01T02:29:02Z</time>
      </trkpt>
      <trkpt lat="31.74035840" lon="35.03529900">
        <ele>541.84000</ele>
        <time>2010-01-01T02:29:09Z</time>
      </trkpt>
      <trkpt lat="31.74035730" lon="35.03522030">
        <ele>541.36000</ele>
        <time>2010-01-01T02:29:11Z</time>
      </trkpt>
      <trkpt lat="31.74038640" lon="35.03487040">
        <ele>539.92000</ele>
        <time>2010-01-01T02:29:18Z</time>
      </trkpt>
      <trkpt lat="31.74038800" lon="35.03460460">
        <ele>539.44000</ele>
        <time>2010-01-01T02:29:24Z</time>
      </trkpt>
      <trkpt lat="31.74037670" lon="35.03431410">
        <ele>539.44000</ele>
        <time>2010-01-01T02:29:30Z</time>
      </trkpt>
      <trkpt lat="31.74031930" lon="35.03392920">
        <ele>539.92000</ele>
        <time>2010-01-01T02:29:38Z</time>
      </trkpt>
      <trkpt lat="31.74024870" lon="35.03368440">
        <ele>538.48000</ele>
        <time>2010-01-01T02:29:44Z</time>
      </trkpt>
      <trkpt lat="31.74018250" lon="35.03356290">
        <ele>537.03000</ele>
        <time>2010-01-01T02:29:47Z</time>
      </trkpt>
      <trkpt lat="31.74013000" lon="35.03310950">
        <ele>535.59000</ele>
        <time>2010-01-01T02:29:56Z</time>
      </trkpt>
      <trkpt lat="31.74015760" lon="35.03299150">
        <ele>535.59000</ele>
        <time>2010-01-01T02:29:59Z</time>
      </trkpt>
      <trkpt lat="31.74017390" lon="35.03288410">
        <ele>536.07000</ele>
        <time>2010-01-01T02:30:01Z</time>
      </trkpt>
      <trkpt lat="31.74022590" lon="35.03267090">
        <ele>535.11000</ele>
        <time>2010-01-01T02:30:06Z</time>
      </trkpt>
      <trkpt lat="31.74026440" lon="35.03246840">
        <ele>534.15000</ele>
        <time>2010-01-01T02:30:10Z</time>
      </trkpt>
      <trkpt lat="31.74037070" lon="35.03194960">
        <ele>530.30000</ele>
        <time>2010-01-01T02:30:22Z</time>
      </trkpt>
      <trkpt lat="31.74036310" lon="35.03151840">
        <ele>525.98000</ele>
        <time>2010-01-01T02:30:31Z</time>
      </trkpt>
      <trkpt lat="31.74044480" lon="35.03113030">
        <ele>524.06000</ele>
        <time>2010-01-01T02:30:39Z</time>
      </trkpt>
      <trkpt lat="31.74049600" lon="35.03098280">
        <ele>523.58000</ele>
        <time>2010-01-01T02:30:43Z</time>
      </trkpt>
      <trkpt lat="31.74055120" lon="35.03067990">
        <ele>521.65000</ele>
        <time>2010-01-01T02:30:49Z</time>
      </trkpt>
      <trkpt lat="31.74075590" lon="35.03044600">
        <ele>519.25000</ele>
        <time>2010-01-01T02:30:56Z</time>
      </trkpt>
      <trkpt lat="31.74079670" lon="35.03043360">
        <ele>518.77000</ele>
        <time>2010-01-01T02:30:57Z</time>
      </trkpt>
      <trkpt lat="31.74092360" lon="35.03041490">
        <ele>516.85000</ele>
        <time>2010-01-01T02:31:00Z</time>
      </trkpt>
      <trkpt lat="31.74116760" lon="35.03056640">
        <ele>514.44000</ele>
        <time>2010-01-01T02:31:07Z</time>
      </trkpt>
      <trkpt lat="31.74125020" lon="35.03062620">
        <ele>513.96000</ele>
        <time>2010-01-01T02:31:10Z</time>
      </trkpt>
      <trkpt lat="31.74160580" lon="35.03079100">
        <ele>511.56000</ele>
        <time>2010-01-01T02:31:19Z</time>
      </trkpt>
      <trkpt lat="31.74192100" lon="35.03086060">
        <ele>504.83000</ele>
        <time>2010-01-01T02:31:27Z</time>
      </trkpt>
      <trkpt lat="31.74210750" lon="35.03094490">
        <ele>500.98000</ele>
        <time>2010-01-01T02:31:32Z</time>
      </trkpt>
      <trkpt lat="31.74215660" lon="35.03088130">
        <ele>499.06000</ele>
        <time>2010-01-01T02:31:34Z</time>
      </trkpt>
      <trkpt lat="31.74213180" lon="35.03080820">
        <ele>498.58000</ele>
        <time>2010-01-01T02:31:36Z</time>
      </trkpt>
      <trkpt lat="31.74209020" lon="35.03071540">
        <ele>497.62000</ele>
        <time>2010-01-01T02:31:38Z</time>
      </trkpt>
      <trkpt lat="31.74205000" lon="35.03060510">
        <ele>497.14000</ele>
        <time>2010-01-01T02:31:40Z</time>
      </trkpt>
      <trkpt lat="31.74188900" lon="35.03016580">
        <ele>492.33000</ele>
        <time>2010-01-01T02:31:51Z</time>
      </trkpt>
      <trkpt lat="31.74175070" lon="35.03001840">
        <ele>491.85000</ele>
        <time>2010-01-01T02:31:55Z</time>
      </trkpt>
      <trkpt lat="31.74165990" lon="35.02996680">
        <ele>492.33000</ele>
        <time>2010-01-01T02:31:58Z</time>
      </trkpt>
      <trkpt lat="31.74138510" lon="35.02971400">
        <ele>495.22000</ele>
        <time>2010-01-01T02:32:06Z</time>
      </trkpt>
      <trkpt lat="31.74134950" lon="35.02962100">
        <ele>494.26000</ele>
        <time>2010-01-01T02:32:09Z</time>
      </trkpt>
      <trkpt lat="31.74132230" lon="35.02950430">
        <ele>493.77000</ele>
        <time>2010-01-01T02:32:11Z</time>
      </trkpt>
      <trkpt lat="31.74111730" lon="35.02904840">
        <ele>492.81000</ele>
        <time>2010-01-01T02:32:22Z</time>
      </trkpt>
      <trkpt lat="31.74105100" lon="35.02894340">
        <ele>493.29000</ele>
        <time>2010-01-01T02:32:25Z</time>
      </trkpt>
      <trkpt lat="31.74080310" lon="35.02857420">
        <ele>495.22000</ele>
        <time>2010-01-01T02:32:35Z</time>
      </trkpt>
      <trkpt lat="31.74072580" lon="35.02830460">
        <ele>494.26000</ele>
        <time>2010-01-01T02:32:41Z</time>
      </trkpt>
      <trkpt lat="31.74074490" lon="35.02819840">
        <ele>492.81000</ele>
        <time>2010-01-01T02:32:43Z</time>
      </trkpt>
      <trkpt lat="31.74075060" lon="35.02782700">
        <ele>489.93000</ele>
        <time>2010-01-01T02:32:51Z</time>
      </trkpt>
      <trkpt lat="31.74068290" lon="35.02771850">
        <ele>491.37000</ele>
        <time>2010-01-01T02:32:54Z</time>
      </trkpt>
      <trkpt lat="31.74072510" lon="35.02742650">
        <ele>491.37000</ele>
        <time>2010-01-01T02:33:00Z</time>
      </trkpt>
      <trkpt lat="31.74085320" lon="35.02710790">
        <ele>487.53000</ele>
        <time>2010-01-01T02:33:08Z</time>
      </trkpt>
      <trkpt lat="31.74087550" lon="35.02708750">
        <ele>487.05000</ele>
        <time>2010-01-01T02:33:08Z</time>
      </trkpt>
      <trkpt lat="31.74089020" lon="35.02694460">
        <ele>484.64000</ele>
        <time>2010-01-01T02:33:11Z</time>
      </trkpt>
      <trkpt lat="31.74085010" lon="35.02685130">
        <ele>483.20000</ele>
        <time>2010-01-01T02:33:13Z</time>
      </trkpt>
      <trkpt lat="31.74081710" lon="35.02672100">
        <ele>481.76000</ele>
        <time>2010-01-01T02:33:16Z</time>
      </trkpt>
      <trkpt lat="31.74071130" lon="35.02635610">
        <ele>479.35000</ele>
        <time>2010-01-01T02:33:25Z</time>
      </trkpt>
      <trkpt lat="31.74056130" lon="35.02617680">
        <ele>480.32000</ele>
        <time>2010-01-01T02:33:30Z</time>
      </trkpt>
      <trkpt lat="31.74048640" lon="35.02603720">
        <ele>480.80000</ele>
        <time>2010-01-01T02:33:33Z</time>
      </trkpt>
      <trkpt lat="31.74045830" lon="35.02592910">
        <ele>480.32000</ele>
        <time>2010-01-01T02:33:36Z</time>
      </trkpt>
      <trkpt lat="31.74044580" lon="35.02551300">
        <ele>479.84000</ele>
        <time>2010-01-01T02:33:45Z</time>
      </trkpt>
      <trkpt lat="31.74039620" lon="35.02527780">
        <ele>479.84000</ele>
        <time>2010-01-01T02:33:50Z</time>
      </trkpt>
      <trkpt lat="31.74037710" lon="35.02497570">
        <ele>478.39000</ele>
        <time>2010-01-01T02:33:56Z</time>
      </trkpt>
      <trkpt lat="31.74039710" lon="35.02489830">
        <ele>477.91000</ele>
        <time>2010-01-01T02:33:58Z</time>
      </trkpt>
      <trkpt lat="31.74040430" lon="35.02465520">
        <ele>476.95000</ele>
        <time>2010-01-01T02:34:03Z</time>
      </trkpt>
      <trkpt lat="31.74039090" lon="35.02457200">
        <ele>476.95000</ele>
        <time>2010-01-01T02:34:05Z</time>
      </trkpt>
      <trkpt lat="31.74032770" lon="35.02440530">
        <ele>475.99000</ele>
        <time>2010-01-01T02:34:09Z</time>
      </trkpt>
      <trkpt lat="31.74017620" lon="35.02421920">
        <ele>477.43000</ele>
        <time>2010-01-01T02:34:14Z</time>
      </trkpt>
      <trkpt lat="31.74002820" lon="35.02403430">
        <ele>477.43000</ele>
        <time>2010-01-01T02:34:19Z</time>
      </trkpt>
      <trkpt lat="31.73988490" lon="35.02376780">
        <ele>478.39000</ele>
        <time>2010-01-01T02:34:26Z</time>
      </trkpt>
      <trkpt lat="31.73981740" lon="35.02366720">
        <ele>479.35000</ele>
        <time>2010-01-01T02:34:29Z</time>
      </trkpt>
      <trkpt lat="31.73971260" lon="35.02345030">
        <ele>479.84000</ele>
        <time>2010-01-01T02:34:34Z</time>
      </trkpt>
      <trkpt lat="31.73950850" lon="35.02316380">
        <ele>480.80000</ele>
        <time>2010-01-01T02:34:42Z</time>
      </trkpt>
      <trkpt lat="31.73932480" lon="35.02287010">
        <ele>479.84000</ele>
        <time>2010-01-01T02:34:50Z</time>
      </trkpt>
      <trkpt lat="31.73934280" lon="35.02278050">
        <ele>479.35000</ele>
        <time>2010-01-01T02:34:52Z</time>
      </trkpt>
      <trkpt lat="31.73929620" lon="35.02241610">
        <ele>477.91000</ele>
        <time>2010-01-01T02:34:59Z</time>
      </trkpt>
      <trkpt lat="31.73922780" lon="35.02227910">
        <ele>479.35000</ele>
        <time>2010-01-01T02:35:03Z</time>
      </trkpt>
      <trkpt lat="31.73905550" lon="35.02214800">
        <ele>479.35000</ele>
        <time>2010-01-01T02:35:08Z</time>
      </trkpt>
      <trkpt lat="31.73881460" lon="35.02198180">
        <ele>477.91000</ele>
        <time>2010-01-01T02:35:15Z</time>
      </trkpt>
      <trkpt lat="31.73882170" lon="35.02190200">
        <ele>478.39000</ele>
        <time>2010-01-01T02:35:17Z</time>
      </trkpt>
      <trkpt lat="31.73886710" lon="35.02169550">
        <ele>477.43000</ele>
        <time>2010-01-01T02:35:21Z</time>
      </trkpt>
      <trkpt lat="31.73869920" lon="35.02147460">
        <ele>476.47000</ele>
        <time>2010-01-01T02:35:27Z</time>
      </trkpt>
      <trkpt lat="31.73861920" lon="35.02145390">
        <ele>476.47000</ele>
        <time>2010-01-01T02:35:29Z</time>
      </trkpt>
      <trkpt lat="31.73825760" lon="35.02136110">
        <ele>474.55000</ele>
        <time>2010-01-01T02:35:39Z</time>
      </trkpt>
      <trkpt lat="31.73788840" lon="35.02113400">
        <ele>469.74000</ele>
        <time>2010-01-01T02:35:49Z</time>
      </trkpt>
      <trkpt lat="31.73779310" lon="35.02107940">
        <ele>468.30000</ele>
        <time>2010-01-01T02:35:52Z</time>
      </trkpt>
      <trkpt lat="31.73757140" lon="35.02103350">
        <ele>465.42000</ele>
        <time>2010-01-01T02:35:57Z</time>
      </trkpt>
      <trkpt lat="31.73735660" lon="35.02072480">
        <ele>462.53000</ele>
        <time>2010-01-01T02:36:06Z</time>
      </trkpt>
      <trkpt lat="31.73737060" lon="35.02059480">
        <ele>461.09000</ele>
        <time>2010-01-01T02:36:08Z</time>
      </trkpt>
      <trkpt lat="31.73727070" lon="35.02042720">
        <ele>458.69000</ele>
        <time>2010-01-01T02:36:13Z</time>
      </trkpt>
      <trkpt lat="31.73705380" lon="35.02034940">
        <ele>456.76000</ele>
        <time>2010-01-01T02:36:18Z</time>
      </trkpt>
      <trkpt lat="31.73695260" lon="35.02035160">
        <ele>455.80000</ele>
        <time>2010-01-01T02:36:21Z</time>
      </trkpt>
      <trkpt lat="31.73694760" lon="35.02017880">
        <ele>452.44000</ele>
        <time>2010-01-01T02:36:25Z</time>
      </trkpt>
      <trkpt lat="31.73730520" lon="35.01994730">
        <ele>448.11000</ele>
        <time>2010-01-01T02:36:35Z</time>
      </trkpt>
      <trkpt lat="31.73750080" lon="35.01990700">
        <ele>447.63000</ele>
        <time>2010-01-01T02:36:40Z</time>
      </trkpt>
      <trkpt lat="31.73767270" lon="35.01983020">
        <ele>446.67000</ele>
        <time>2010-01-01T02:36:44Z</time>
      </trkpt>
      <trkpt lat="31.73833780" lon="35.01953110">
        <ele>442.34000</ele>
        <time>2010-01-01T02:37:02Z</time>
      </trkpt>
      <trkpt lat="31.73863870" lon="35.01932150">
        <ele>438.50000</ele>
        <time>2010-01-01T02:37:11Z</time>
      </trkpt>
      <trkpt lat="31.73876650" lon="35.01923230">
        <ele>436.58000</ele>
        <time>2010-01-01T02:37:14Z</time>
      </trkpt>
      <trkpt lat="31.73895460" lon="35.01914820">
        <ele>433.69000</ele>
        <time>2010-01-01T02:37:19Z</time>
      </trkpt>
      <trkpt lat="31.73907640" lon="35.01894300">
        <ele>430.81000</ele>
        <time>2010-01-01T02:37:25Z</time>
      </trkpt>
      <trkpt lat="31.73907050" lon="35.01873660">
        <ele>428.89000</ele>
        <time>2010-01-01T02:37:29Z</time>
      </trkpt>
      <trkpt lat="31.73906080" lon="35.01858090">
        <ele>427.44000</ele>
        <time>2010-01-01T02:37:32Z</time>
      </trkpt>
      <trkpt lat="31.73897380" lon="35.01834020">
        <ele>424.56000</ele>
        <time>2010-01-01T02:37:38Z</time>
      </trkpt>
      <trkpt lat="31.73878530" lon="35.01833990">
        <ele>424.08000</ele>
        <time>2010-01-01T02:37:43Z</time>
      </trkpt>
      <trkpt lat="31.73878760" lon="35.01834090">
        <ele>424.08000</ele>
        <time>2010-01-01T02:37:43Z</time>
      </trkpt>
      <trkpt lat="31.73878650" lon="35.01833920">
        <ele>424.08000</ele>
        <time>2010-01-01T02:37:43Z</time>
      </trkpt>
      <trkpt lat="31.73876670" lon="35.01833110">
        <ele>424.08000</ele>
        <time>2010-01-01T02:37:43Z</time>
      </trkpt>
      <trkpt lat="31.73875110" lon="35.01832520">
        <ele>424.08000</ele>
        <time>2010-01-01T02:37:44Z</time>
      </trkpt>
      <trkpt lat="31.73873240" lon="35.01829010">
        <ele>423.60000</ele>
        <time>2010-01-01T02:37:44Z</time>
      </trkpt>
      <trkpt lat="31.73876630" lon="35.01817730">
        <ele>422.64000</ele>
        <time>2010-01-01T02:37:47Z</time>
      </trkpt>
      <trkpt lat="31.73886390" lon="35.01794750">
        <ele>419.75000</ele>
        <time>2010-01-01T02:37:52Z</time>
      </trkpt>
      <trkpt lat="31.73907070" lon="35.01773950">
        <ele>415.43000</ele>
        <time>2010-01-01T02:37:59Z</time>
      </trkpt>
      <trkpt lat="31.73915520" lon="35.01769810">
        <ele>414.95000</ele>
        <time>2010-01-01T02:38:01Z</time>
      </trkpt>
      <trkpt lat="31.73930990" lon="35.01749270">
        <ele>412.06000</ele>
        <time>2010-01-01T02:38:07Z</time>
      </trkpt>
      <trkpt lat="31.73929390" lon="35.01746410">
        <ele>411.58000</ele>
        <time>2010-01-01T02:38:08Z</time>
      </trkpt>
      <trkpt lat="31.73916860" lon="35.01736270">
        <ele>407.74000</ele>
        <time>2010-01-01T02:38:12Z</time>
      </trkpt>
      <trkpt lat="31.73916340" lon="35.01735660">
        <ele>407.74000</ele>
        <time>2010-01-01T02:38:12Z</time>
      </trkpt>
      <trkpt lat="31.73909140" lon="35.01730880">
        <ele>406.29000</ele>
        <time>2010-01-01T02:38:14Z</time>
      </trkpt>
      <trkpt lat="31.73895220" lon="35.01722060">
        <ele>403.41000</ele>
        <time>2010-01-01T02:38:18Z</time>
      </trkpt>
      <trkpt lat="31.73895490" lon="35.01702960">
        <ele>399.08000</ele>
        <time>2010-01-01T02:38:22Z</time>
      </trkpt>
      <trkpt lat="31.73901400" lon="35.01696500">
        <ele>397.16000</ele>
        <time>2010-01-01T02:38:24Z</time>
      </trkpt>
      <trkpt lat="31.73912710" lon="35.01686390">
        <ele>393.80000</ele>
        <time>2010-01-01T02:38:28Z</time>
      </trkpt>
      <trkpt lat="31.73914090" lon="35.01681010">
        <ele>392.36000</ele>
        <time>2010-01-01T02:38:29Z</time>
      </trkpt>
      <trkpt lat="31.73898700" lon="35.01667790">
        <ele>388.51000</ele>
        <time>2010-01-01T02:38:33Z</time>
      </trkpt>
      <trkpt lat="31.73884850" lon="35.01666870">
        <ele>386.59000</ele>
        <time>2010-01-01T02:38:37Z</time>
      </trkpt>
      <trkpt lat="31.73865770" lon="35.01669960">
        <ele>385.15000</ele>
        <time>2010-01-01T02:38:42Z</time>
      </trkpt>
      <trkpt lat="31.73847780" lon="35.01661620">
        <ele>381.78000</ele>
        <time>2010-01-01T02:38:46Z</time>
      </trkpt>
      <trkpt lat="31.73846590" lon="35.01649460">
        <ele>378.90000</ele>
        <time>2010-01-01T02:38:49Z</time>
      </trkpt>
      <trkpt lat="31.73852930" lon="35.01619910">
        <ele>374.57000</ele>
        <time>2010-01-01T02:38:56Z</time>
      </trkpt>
      <trkpt lat="31.73865110" lon="35.01602140">
        <ele>372.65000</ele>
        <time>2010-01-01T02:39:00Z</time>
      </trkpt>
      <trkpt lat="31.73881760" lon="35.01587150">
        <ele>371.69000</ele>
        <time>2010-01-01T02:39:06Z</time>
      </trkpt>
      <trkpt lat="31.73906280" lon="35.01563880">
        <ele>367.84000</ele>
        <time>2010-01-01T02:39:13Z</time>
      </trkpt>
      <trkpt lat="31.73919890" lon="35.01533000">
        <ele>364.48000</ele>
        <time>2010-01-01T02:39:21Z</time>
      </trkpt>
      <trkpt lat="31.73926950" lon="35.01513870">
        <ele>362.07000</ele>
        <time>2010-01-01T02:39:25Z</time>
      </trkpt>
      <trkpt lat="31.73928270" lon="35.01484460">
        <ele>360.15000</ele>
        <time>2010-01-01T02:39:31Z</time>
      </trkpt>
      <trkpt lat="31.73933560" lon="35.01460160">
        <ele>358.23000</ele>
        <time>2010-01-01T02:39:37Z</time>
      </trkpt>
      <trkpt lat="31.73926200" lon="35.01424570">
        <ele>355.34000</ele>
        <time>2010-01-01T02:39:44Z</time>
      </trkpt>
      <trkpt lat="31.73912720" lon="35.01419600">
        <ele>352.94000</ele>
        <time>2010-01-01T02:39:48Z</time>
      </trkpt>
      <trkpt lat="31.73906160" lon="35.01412770">
        <ele>350.06000</ele>
        <time>2010-01-01T02:39:50Z</time>
      </trkpt>
      <trkpt lat="31.73916120" lon="35.01393080">
        <ele>347.17000</ele>
        <time>2010-01-01T02:39:55Z</time>
      </trkpt>
      <trkpt lat="31.73926790" lon="35.01363620">
        <ele>345.25000</ele>
        <time>2010-01-01T02:40:02Z</time>
      </trkpt>
      <trkpt lat="31.73931600" lon="35.01323460">
        <ele>342.37000</ele>
        <time>2010-01-01T02:40:10Z</time>
      </trkpt>
      <trkpt lat="31.73920950" lon="35.01303000">
        <ele>339.96000</ele>
        <time>2010-01-01T02:40:15Z</time>
      </trkpt>
      <trkpt lat="31.73905680" lon="35.01282540">
        <ele>336.60000</ele>
        <time>2010-01-01T02:40:21Z</time>
      </trkpt>
      <trkpt lat="31.73901070" lon="35.01274960">
        <ele>335.16000</ele>
        <time>2010-01-01T02:40:23Z</time>
      </trkpt>
      <trkpt lat="31.73894600" lon="35.01263340">
        <ele>332.75000</ele>
        <time>2010-01-01T02:40:26Z</time>
      </trkpt>
      <trkpt lat="31.73887570" lon="35.01234360">
        <ele>327.95000</ele>
        <time>2010-01-01T02:40:33Z</time>
      </trkpt>
      <trkpt lat="31.73878080" lon="35.01224370">
        <ele>326.99000</ele>
        <time>2010-01-01T02:40:36Z</time>
      </trkpt>
      <trkpt lat="31.73882740" lon="35.01190960">
        <ele>324.10000</ele>
        <time>2010-01-01T02:40:43Z</time>
      </trkpt>
      <trkpt lat="31.73904840" lon="35.01133010">
        <ele>318.81000</ele>
        <time>2010-01-01T02:40:56Z</time>
      </trkpt>
      <trkpt lat="31.73906240" lon="35.01098330">
        <ele>316.89000</ele>
        <time>2010-01-01T02:41:04Z</time>
      </trkpt>
      <trkpt lat="31.73899250" lon="35.01071630">
        <ele>314.01000</ele>
        <time>2010-01-01T02:41:10Z</time>
      </trkpt>
      <trkpt lat="31.73895430" lon="35.01061400">
        <ele>312.09000</ele>
        <time>2010-01-01T02:41:12Z</time>
      </trkpt>
      <trkpt lat="31.73887800" lon="35.01046480">
        <ele>308.72000</ele>
        <time>2010-01-01T02:41:16Z</time>
      </trkpt>
      <trkpt lat="31.73878020" lon="35.01032050">
        <ele>305.36000</ele>
        <time>2010-01-01T02:41:19Z</time>
      </trkpt>
      <trkpt lat="31.73872350" lon="35.01020330">
        <ele>303.43000</ele>
        <time>2010-01-01T02:41:22Z</time>
      </trkpt>
      <trkpt lat="31.73859210" lon="35.00983090">
        <ele>297.67000</ele>
        <time>2010-01-01T02:41:31Z</time>
      </trkpt>
      <trkpt lat="31.73850140" lon="35.00994490">
        <ele>295.26000</ele>
        <time>2010-01-01T02:41:34Z</time>
      </trkpt>
      <trkpt lat="31.73849570" lon="35.00999900">
        <ele>294.78000</ele>
        <time>2010-01-01T02:41:35Z</time>
      </trkpt>
      <trkpt lat="31.73845300" lon="35.01024850">
        <ele>293.82000</ele>
        <time>2010-01-01T02:41:41Z</time>
      </trkpt>
      <trkpt lat="31.73826910" lon="35.01043570">
        <ele>291.90000</ele>
        <time>2010-01-01T02:41:47Z</time>
      </trkpt>
      <trkpt lat="31.73823270" lon="35.01030830">
        <ele>289.97000</ele>
        <time>2010-01-01T02:41:50Z</time>
      </trkpt>
      <trkpt lat="31.73822660" lon="35.01015510">
        <ele>288.05000</ele>
        <time>2010-01-01T02:41:53Z</time>
      </trkpt>
      <trkpt lat="31.73814410" lon="35.00982960">
        <ele>284.69000</ele>
        <time>2010-01-01T02:42:00Z</time>
      </trkpt>
      <trkpt lat="31.73804440" lon="35.00966650">
        <ele>282.28000</ele>
        <time>2010-01-01T02:42:04Z</time>
      </trkpt>
      <trkpt lat="31.73792160" lon="35.00957330">
        <ele>279.88000</ele>
        <time>2010-01-01T02:42:08Z</time>
      </trkpt>
      <trkpt lat="31.73772550" lon="35.00976300">
        <ele>276.04000</ele>
        <time>2010-01-01T02:42:14Z</time>
      </trkpt>
      <trkpt lat="31.73764890" lon="35.00987780">
        <ele>274.59000</ele>
        <time>2010-01-01T02:42:17Z</time>
      </trkpt>
      <trkpt lat="31.73739100" lon="35.00988960">
        <ele>270.75000</ele>
        <time>2010-01-01T02:42:24Z</time>
      </trkpt>
      <trkpt lat="31.73725150" lon="35.00977230">
        <ele>269.31000</ele>
        <time>2010-01-01T02:42:28Z</time>
      </trkpt>
      <trkpt lat="31.73687660" lon="35.00974210">
        <ele>265.46000</ele>
        <time>2010-01-01T02:42:37Z</time>
      </trkpt>
      <trkpt lat="31.73671500" lon="35.00989560">
        <ele>263.06000</ele>
        <time>2010-01-01T02:42:43Z</time>
      </trkpt>
      <trkpt lat="31.73660720" lon="35.00997620">
        <ele>262.10000</ele>
        <time>2010-01-01T02:42:46Z</time>
      </trkpt>
      <trkpt lat="31.73623350" lon="35.00999470">
        <ele>260.17000</ele>
        <time>2010-01-01T02:42:55Z</time>
      </trkpt>
      <trkpt lat="31.73617320" lon="35.00996940">
        <ele>260.17000</ele>
        <time>2010-01-01T02:42:57Z</time>
      </trkpt>
      <trkpt lat="31.73604770" lon="35.00992730">
        <ele>260.17000</ele>
        <time>2010-01-01T02:43:00Z</time>
      </trkpt>
      <trkpt lat="31.73587250" lon="35.00986960">
        <ele>259.69000</ele>
        <time>2010-01-01T02:43:04Z</time>
      </trkpt>
      <trkpt lat="31.73567800" lon="35.00964420">
        <ele>260.17000</ele>
        <time>2010-01-01T02:43:11Z</time>
      </trkpt>
      <trkpt lat="31.73573570" lon="35.00944640">
        <ele>260.65000</ele>
        <time>2010-01-01T02:43:16Z</time>
      </trkpt>
      <trkpt lat="31.73565260" lon="35.00936230">
        <ele>262.58000</ele>
        <time>2010-01-01T02:43:18Z</time>
      </trkpt>
      <trkpt lat="31.73565320" lon="35.00936580">
        <ele>263.06000</ele>
        <time>2010-01-01T02:43:18Z</time>
      </trkpt>
      <trkpt lat="31.73564560" lon="35.00937260">
        <ele>263.54000</ele>
        <time>2010-01-01T02:43:19Z</time>
      </trkpt>
      <trkpt lat="31.73556630" lon="35.00938390">
        <ele>265.46000</ele>
        <time>2010-01-01T02:43:21Z</time>
      </trkpt>
      <trkpt lat="31.73549700" lon="35.00941320">
        <ele>268.35000</ele>
        <time>2010-01-01T02:43:22Z</time>
      </trkpt>
      <trkpt lat="31.73537410" lon="35.00946820">
        <ele>271.23000</ele>
        <time>2010-01-01T02:43:26Z</time>
      </trkpt>
      <trkpt lat="31.73528740" lon="35.00953690">
        <ele>273.15000</ele>
        <time>2010-01-01T02:43:28Z</time>
      </trkpt>
      <trkpt lat="31.73527760" lon="35.00955110">
        <ele>273.63000</ele>
        <time>2010-01-01T02:43:29Z</time>
      </trkpt>
      <trkpt lat="31.73520230" lon="35.00965300">
        <ele>277.48000</ele>
        <time>2010-01-01T02:43:32Z</time>
      </trkpt>
      <trkpt lat="31.73513610" lon="35.00977770">
        <ele>279.88000</ele>
        <time>2010-01-01T02:43:35Z</time>
      </trkpt>
      <trkpt lat="31.73509460" lon="35.00986850">
        <ele>283.25000</ele>
        <time>2010-01-01T02:43:37Z</time>
      </trkpt>
      <trkpt lat="31.73502810" lon="35.00999910">
        <ele>285.17000</ele>
        <time>2010-01-01T02:43:40Z</time>
      </trkpt>
      <trkpt lat="31.73496050" lon="35.01006710">
        <ele>287.57000</ele>
        <time>2010-01-01T02:43:42Z</time>
      </trkpt>
      <trkpt lat="31.73485720" lon="35.01012830">
        <ele>289.01000</ele>
        <time>2010-01-01T02:43:45Z</time>
      </trkpt>
      <trkpt lat="31.73476410" lon="35.01020000">
        <ele>291.42000</ele>
        <time>2010-01-01T02:43:48Z</time>
      </trkpt>
      <trkpt lat="31.73466650" lon="35.01028410">
        <ele>294.78000</ele>
        <time>2010-01-01T02:43:51Z</time>
      </trkpt>
      <trkpt lat="31.73464340" lon="35.01031670">
        <ele>295.74000</ele>
        <time>2010-01-01T02:43:52Z</time>
      </trkpt>
      <trkpt lat="31.73453200" lon="35.01036260">
        <ele>296.70000</ele>
        <time>2010-01-01T02:43:55Z</time>
      </trkpt>
      <trkpt lat="31.73450750" lon="35.01030860">
        <ele>298.63000</ele>
        <time>2010-01-01T02:43:56Z</time>
      </trkpt>
      <trkpt lat="31.73451420" lon="35.01021200">
        <ele>299.59000</ele>
        <time>2010-01-01T02:43:58Z</time>
      </trkpt>
      <trkpt lat="31.73451200" lon="35.01016670">
        <ele>299.59000</ele>
        <time>2010-01-01T02:43:59Z</time>
      </trkpt>
      <trkpt lat="31.73455050" lon="35.01006170">
        <ele>298.15000</ele>
        <time>2010-01-01T02:44:02Z</time>
      </trkpt>
      <trkpt lat="31.73464000" lon="35.00964940">
        <ele>295.26000</ele>
        <time>2010-01-01T02:44:11Z</time>
      </trkpt>
      <trkpt lat="31.73466880" lon="35.00950240">
        <ele>294.30000</ele>
        <time>2010-01-01T02:44:14Z</time>
      </trkpt>
      <trkpt lat="31.73472100" lon="35.00942460">
        <ele>293.34000</ele>
        <time>2010-01-01T02:44:16Z</time>
      </trkpt>
      <trkpt lat="31.73475940" lon="35.00921340">
        <ele>291.42000</ele>
        <time>2010-01-01T02:44:20Z</time>
      </trkpt>
      <trkpt lat="31.73475070" lon="35.00908570">
        <ele>290.46000</ele>
        <time>2010-01-01T02:44:23Z</time>
      </trkpt>
      <trkpt lat="31.73455100" lon="35.00885130">
        <ele>288.05000</ele>
        <time>2010-01-01T02:44:30Z</time>
      </trkpt>
      <trkpt lat="31.73439170" lon="35.00886940">
        <ele>287.57000</ele>
        <time>2010-01-01T02:44:34Z</time>
      </trkpt>
      <trkpt lat="31.73404960" lon="35.00876940">
        <ele>285.17000</ele>
        <time>2010-01-01T02:44:43Z</time>
      </trkpt>
      <trkpt lat="31.73401520" lon="35.00872130">
        <ele>284.69000</ele>
        <time>2010-01-01T02:44:44Z</time>
      </trkpt>
      <trkpt lat="31.73407880" lon="35.00846630">
        <ele>278.92000</ele>
        <time>2010-01-01T02:44:50Z</time>
      </trkpt>
      <trkpt lat="31.73409950" lon="35.00835660">
        <ele>277.00000</ele>
        <time>2010-01-01T02:44:52Z</time>
      </trkpt>
      <trkpt lat="31.73410240" lon="35.00820350">
        <ele>274.59000</ele>
        <time>2010-01-01T02:44:55Z</time>
      </trkpt>
      <trkpt lat="31.73430150" lon="35.00803540">
        <ele>270.27000</ele>
        <time>2010-01-01T02:45:02Z</time>
      </trkpt>
      <trkpt lat="31.73439140" lon="35.00789860">
        <ele>267.38000</ele>
        <time>2010-01-01T02:45:05Z</time>
      </trkpt>
      <trkpt lat="31.73436870" lon="35.00775480">
        <ele>264.98000</ele>
        <time>2010-01-01T02:45:08Z</time>
      </trkpt>
      <trkpt lat="31.73432000" lon="35.00757330">
        <ele>262.10000</ele>
        <time>2010-01-01T02:45:12Z</time>
      </trkpt>
      <trkpt lat="31.73419630" lon="35.00753760">
        <ele>261.62000</ele>
        <time>2010-01-01T02:45:15Z</time>
      </trkpt>
      <trkpt lat="31.73415320" lon="35.00755160">
        <ele>262.10000</ele>
        <time>2010-01-01T02:45:17Z</time>
      </trkpt>
      <trkpt lat="31.73404390" lon="35.00761240">
        <ele>262.58000</ele>
        <time>2010-01-01T02:45:20Z</time>
      </trkpt>
      <trkpt lat="31.73377770" lon="35.00775610">
        <ele>264.02000</ele>
        <time>2010-01-01T02:45:27Z</time>
      </trkpt>
      <trkpt lat="31.73345860" lon="35.00783120">
        <ele>264.50000</ele>
        <time>2010-01-01T02:45:35Z</time>
      </trkpt>
      <trkpt lat="31.73332700" lon="35.00798400">
        <ele>266.42000</ele>
        <time>2010-01-01T02:45:40Z</time>
      </trkpt>
      <trkpt lat="31.73324360" lon="35.00809200">
        <ele>266.42000</ele>
        <time>2010-01-01T02:45:43Z</time>
      </trkpt>
      <trkpt lat="31.73306170" lon="35.00822600">
        <ele>265.46000</ele>
        <time>2010-01-01T02:45:48Z</time>
      </trkpt>
      <trkpt lat="31.73260020" lon="35.00826950">
        <ele>266.90000</ele>
        <time>2010-01-01T02:46:00Z</time>
      </trkpt>
      <trkpt lat="31.73239190" lon="35.00837620">
        <ele>270.27000</ele>
        <time>2010-01-01T02:46:05Z</time>
      </trkpt>
      <trkpt lat="31.73226050" lon="35.00848720">
        <ele>272.19000</ele>
        <time>2010-01-01T02:46:09Z</time>
      </trkpt>
      <trkpt lat="31.73202750" lon="35.00857770">
        <ele>273.63000</ele>
        <time>2010-01-01T02:46:15Z</time>
      </trkpt>
      <trkpt lat="31.73172190" lon="35.00858890">
        <ele>272.67000</ele>
        <time>2010-01-01T02:46:23Z</time>
      </trkpt>
      <trkpt lat="31.73159370" lon="35.00863120">
        <ele>271.71000</ele>
        <time>2010-01-01T02:46:26Z</time>
      </trkpt>
      <trkpt lat="31.73152530" lon="35.00868390">
        <ele>270.75000</ele>
        <time>2010-01-01T02:46:28Z</time>
      </trkpt>
      <trkpt lat="31.73145750" lon="35.00876210">
        <ele>269.79000</ele>
        <time>2010-01-01T02:46:31Z</time>
      </trkpt>
      <trkpt lat="31.73120100" lon="35.00882050">
        <ele>269.79000</ele>
        <time>2010-01-01T02:46:37Z</time>
      </trkpt>
      <trkpt lat="31.73116850" lon="35.00881010">
        <ele>269.79000</ele>
        <time>2010-01-01T02:46:38Z</time>
      </trkpt>
      <trkpt lat="31.73108420" lon="35.00876010">
        <ele>269.79000</ele>
        <time>2010-01-01T02:46:40Z</time>
      </trkpt>
      <trkpt lat="31.73109280" lon="35.00833840">
        <ele>266.90000</ele>
        <time>2010-01-01T02:46:49Z</time>
      </trkpt>
      <trkpt lat="31.73105500" lon="35.00803990">
        <ele>265.46000</ele>
        <time>2010-01-01T02:46:56Z</time>
      </trkpt>
      <trkpt lat="31.73098960" lon="35.00756610">
        <ele>264.02000</ele>
        <time>2010-01-01T02:47:06Z</time>
      </trkpt>
      <trkpt lat="31.73102480" lon="35.00750360">
        <ele>263.54000</ele>
        <time>2010-01-01T02:47:07Z</time>
      </trkpt>
      <trkpt lat="31.73111320" lon="35.00739200">
        <ele>263.06000</ele>
        <time>2010-01-01T02:47:11Z</time>
      </trkpt>
      <trkpt lat="31.73135840" lon="35.00702920">
        <ele>260.17000</ele>
        <time>2010-01-01T02:47:20Z</time>
      </trkpt>
      <trkpt lat="31.73151050" lon="35.00645630">
        <ele>254.41000</ele>
        <time>2010-01-01T02:47:33Z</time>
      </trkpt>
      <trkpt lat="31.73153960" lon="35.00621560">
        <ele>251.52000</ele>
        <time>2010-01-01T02:47:38Z</time>
      </trkpt>
      <trkpt lat="31.73167380" lon="35.00590270">
        <ele>249.12000</ele>
        <time>2010-01-01T02:47:46Z</time>
      </trkpt>
      <trkpt lat="31.73176630" lon="35.00578070">
        <ele>249.12000</ele>
        <time>2010-01-01T02:47:49Z</time>
      </trkpt>
      <trkpt lat="31.73188890" lon="35.00546180">
        <ele>250.56000</ele>
        <time>2010-01-01T02:47:57Z</time>
      </trkpt>
      <trkpt lat="31.73192200" lon="35.00522690">
        <ele>250.56000</ele>
        <time>2010-01-01T02:48:02Z</time>
      </trkpt>
      <trkpt lat="31.73185010" lon="35.00464990">
        <ele>252.48000</ele>
        <time>2010-01-01T02:48:14Z</time>
      </trkpt>
      <trkpt lat="31.73189210" lon="35.00455000">
        <ele>252.96000</ele>
        <time>2010-01-01T02:48:16Z</time>
      </trkpt>
      <trkpt lat="31.73192370" lon="35.00453690">
        <ele>252.96000</ele>
        <time>2010-01-01T02:48:17Z</time>
      </trkpt>
    </trkseg>
  </trk>
</gpx>

